[[{"header":{"parameterUnit":"m.s-1","parameterCategory":1,"la1":30.6,"la2":29.2853,"lo1":-89.7004,"lo2":-87.6739,"dy":0.0162,"dx":0.0183,"nx":112,"ny":82,"refTime":"2023-05-03T18:00:00:Z","depth":0,"parameterNumber":2,"parameterNumberName":"U-component_of_WINDS"},"data":[0.0,0.0,0.0,0.0,0.0,0.0,0.0,0.0,0.0,0.0,0.0,0.0,0.0,0.0,0.0,0.0,0.0,0.0,0.0,0.0,0.0,0.0,0.0,0.0,0.0,0.0,0.0,0.0,0.0,0.0,0.0,0.0,0.0,0.0,0.0,0.0,0.0,0.0,0.0,0.0,0.0,0.0,0.0,0.0,0.0,0.0,0.0,0.0,0.0,0.0,0.0,0.0,0.0,0.0,0.0,0.0,0.0,0.0,0.0,0.0,0.0,0.0,0.0,0.0,0.0,0.0,0.0,0.0,0.0,0.0,0.0,0.0,0.0,0.0,0.0,0.0,0.0,0.0,0.0,0.0,0.0,0.0,0.0,0.0,0.0,0.0,0.0,0.0,0.0,0.0,-1.3391,-1.3357,-1.3113,-1.2859,-1.2567,-1.2789,-1.3135,-1.3635,0.0,0.0,0.0,0.0,0.0,0.0,0.0,0.0,0.0,0.0,0.0,0.0,0.0,0.0,0.0,0.0,0.0,0.0,0.0,0.0,0.0,0.0,0.0,0.0,0.0,0.0,0.0,0.0,0.0,0.0,0.0,0.0,0.0,0.0,0.0,0.0,0.0,0.0,0.0,0.0,0.0,0.0,0.0,0.0,0.0,0.0,0.0,0.0,0.0,0.0,0.0,0.0,0.0,0.0,0.0,0.0,0.0,0.0,0.0,0.0,0.0,0.0,0.0,0.0,0.0,0.0,0.0,0.0,0.0,0.0,0.0,0.0,0.0,0.0,0.0,0.0,0.0,0.0,0.0,0.0,0.0,0.0,0.0,0.0,0.0,0.0,0.0,0.0,0.0,0.0,0.0,0.0,0.0,0.0,0.0,0.0,0.0,0.0,0.0,0.0,0.0,0.0,0.0,0.0,-1.3412,-1.316,-1.2896,-1.2791,-1.2824,-1.3032,-1.3387,-1.3901,0.0,0.0,0.0,0.0,0.0,0.0,0.0,0.0,0.0,0.0,0.0,0.0,0.0,0.0,0.0,0.0,0.0,0.0,0.0,0.0,0.0,0.0,0.0,0.0,0.0,0.0,0.0,0.0,0.0,0.0,0.0,0.0,0.0,0.0,0.0,0.0,0.0,0.0,0.0,0.0,0.0,0.0,0.0,0.0,0.0,0.0,0.0,0.0,0.0,0.0,0.0,0.0,0.0,0.0,0.0,0.0,0.0,0.0,0.0,0.0,0.0,0.0,0.0,0.0,0.0,0.0,0.0,0.0,0.0,0.0,0.0,0.0,0.0,0.0,0.0,0.0,0.0,0.0,0.0,0.0,0.0,0.0,0.0,0.0,0.0,0.0,0.0,0.0,0.0,0.0,0.0,0.0,0.0,0.0,0.0,0.0,0.0,0.0,0.0,0.0,0.0,0.0,0.0,-1.3927,-1.3628,-1.3344,-1.3446,-1.3493,-1.3412,-1.3615,-1.4,-1.4564,-1.4724,0.0,0.0,0.0,0.0,0.0,0.0,0.0,0.0,0.0,0.0,0.0,0.0,0.0,0.0,0.0,0.0,0.0,0.0,0.0,0.0,0.0,0.0,0.0,0.0,0.0,0.0,0.0,0.0,0.0,0.0,0.0,0.0,0.0,0.0,0.0,0.0,0.0,0.0,0.0,0.0,0.0,0.0,0.0,0.0,0.0,0.0,0.0,0.0,0.0,0.0,0.0,0.0,0.0,0.0,0.0,0.0,0.0,0.0,0.0,0.0,0.0,0.0,0.0,0.0,0.0,0.0,0.0,0.0,0.0,0.0,0.0,0.0,0.0,0.0,0.0,0.0,0.0,0.0,0.0,0.0,0.0,0.0,0.0,0.0,0.0,0.0,0.0,0.0,0.0,0.0,0.0,0.0,0.0,0.0,0.0,0.0,0.0,0.0,0.0,0.0,0.0,0.0,-1.4078,-1.3927,-1.3715,-1.396,-1.4124,-1.4124,-1.4222,-1.456,-1.518,-1.5374,0.0,0.0,0.0,0.0,0.0,0.0,0.0,0.0,0.0,0.0,0.0,0.0,0.0,0.0,0.0,0.0,0.0,0.0,0.0,0.0,0.0,0.0,0.0,0.0,0.0,0.0,0.0,0.0,0.0,0.0,0.0,0.0,0.0,0.0,0.0,0.0,0.0,0.0,0.0,0.0,0.0,0.0,0.0,0.0,0.0,0.0,0.0,0.0,0.0,0.0,0.0,0.0,0.0,0.0,0.0,0.0,0.0,0.0,0.0,0.0,0.0,0.0,0.0,0.0,0.0,0.0,0.0,0.0,0.0,0.0,0.0,0.0,0.0,0.0,0.0,0.0,0.0,0.0,0.0,0.0,0.0,0.0,0.0,0.0,0.0,0.0,0.0,0.0,0.0,0.0,0.0,0.0,0.0,0.0,0.0,0.0,0.0,0.0,0.0,0.0,0.0,0.0,-1.4374,-1.4356,-1.4351,-1.4078,-1.4214,-1.497,-1.4738,-1.4876,-1.5521,-1.5752,0.0,0.0,0.0,0.0,0.0,0.0,0.0,0.0,0.0,0.0,0.0,0.0,0.0,0.0,0.0,0.0,0.0,0.0,0.0,0.0,0.0,0.0,0.0,0.0,0.0,0.0,0.0,0.0,0.0,0.0,0.0,0.0,0.0,0.0,0.0,0.0,0.0,0.0,0.0,0.0,0.0,0.0,0.0,0.0,0.0,0.0,0.0,0.0,0.0,0.0,0.0,0.0,0.0,0.0,0.0,0.0,0.0,0.0,0.0,0.0,0.0,0.0,0.0,0.0,0.0,0.0,0.0,0.0,0.0,0.0,0.0,0.0,0.0,0.0,0.0,0.0,0.0,0.0,0.0,0.0,0.0,0.0,0.0,0.0,0.0,0.0,0.0,0.0,0.0,0.0,0.0,0.0,0.0,0.0,0.0,0.0,0.0,0.0,0.0,0.0,0.0,0.0,-1.4752,-1.469,0.0,-1.4738,-1.4939,-1.5315,-1.5271,-1.5448,-1.5994,0.0,0.0,0.0,0.0,0.0,0.0,0.0,0.0,0.0,0.0,0.0,0.0,0.0,0.0,0.0,0.0,0.0,0.0,0.0,0.0,0.0,0.0,0.0,0.0,0.0,0.0,0.0,0.0,0.0,0.0,0.0,0.0,0.0,0.0,0.0,0.0,0.0,0.0,0.0,0.0,0.0,0.0,0.0,0.0,0.0,0.0,0.0,0.0,0.0,0.0,0.0,0.0,0.0,0.0,0.0,0.0,0.0,0.0,0.0,0.0,0.0,0.0,0.0,0.0,0.0,0.0,0.0,0.0,0.0,0.0,0.0,0.0,0.0,0.0,0.0,0.0,0.0,0.0,0.0,0.0,0.0,0.0,0.0,0.0,0.0,0.0,0.0,0.0,0.0,0.0,0.0,0.0,0.0,0.0,0.0,0.0,0.0,0.0,0.0,0.0,0.0,0.0,-1.527,-1.518,-1.515,0.0,-1.5345,-1.555,-1.5838,-1.5836,-1.6031,-1.6501,0.0,0.0,0.0,0.0,0.0,0.0,0.0,0.0,0.0,0.0,0.0,0.0,0.0,0.0,0.0,0.0,0.0,0.0,0.0,0.0,0.0,0.0,0.0,0.0,0.0,0.0,0.0,0.0,0.0,0.0,0.0,0.0,0.0,0.0,0.0,0.0,0.0,0.0,0.0,0.0,0.0,0.0,0.0,0.0,0.0,0.0,0.0,0.0,0.0,0.0,0.0,0.0,0.0,0.0,0.0,0.0,0.0,0.0,0.0,0.0,0.0,0.0,0.0,0.0,0.0,0.0,0.0,0.0,0.0,0.0,0.0,0.0,0.0,0.0,0.0,0.0,0.0,0.0,0.0,0.0,0.0,0.0,0.0,0.0,0.0,0.0,0.0,0.0,0.0,0.0,0.0,0.0,0.0,0.0,0.0,0.0,0.0,0.0,0.0,0.0,0.0,0.0,-1.5767,-1.571,-1.571,-1.571,-1.5767,-1.6037,-1.657,-1.6421,-1.6501,0.0,0.0,0.0,0.0,0.0,0.0,0.0,0.0,0.0,0.0,0.0,0.0,0.0,0.0,0.0,0.0,0.0,0.0,0.0,0.0,0.0,0.0,0.0,0.0,0.0,0.0,0.0,0.0,0.0,0.0,0.0,0.0,0.0,0.0,0.0,0.0,0.0,0.0,0.0,0.0,0.0,0.0,0.0,0.0,0.0,0.0,0.0,0.0,0.0,0.0,0.0,0.0,0.0,0.0,0.0,0.0,0.0,0.0,0.0,0.0,0.0,0.0,0.0,0.0,0.0,0.0,0.0,0.0,0.0,0.0,0.0,0.0,0.0,0.0,0.0,0.0,0.0,0.0,0.0,0.0,0.0,0.0,0.0,0.0,0.0,0.0,0.0,0.0,0.0,0.0,0.0,0.0,0.0,0.0,0.0,0.0,0.0,0.0,0.0,0.0,0.0,0.0,0.0,-1.6297,-1.6309,-1.6363,-1.6389,-1.6496,-1.668,-1.6926,-1.6984,-1.7075,-1.7264,0.0,0.0,0.0,0.0,0.0,0.0,0.0,0.0,0.0,0.0,0.0,0.0,0.0,0.0,0.0,0.0,0.0,0.0,0.0,0.0,0.0,0.0,0.0,0.0,0.0,0.0,0.0,0.0,0.0,0.0,0.0,0.0,0.0,0.0,0.0,0.0,0.0,0.0,0.0,0.0,0.0,0.0,0.0,0.0,0.0,0.0,0.0,0.0,0.0,0.0,0.0,0.0,0.0,0.0,0.0,0.0,0.0,0.0,0.0,0.0,0.0,0.0,0.0,0.0,0.0,0.0,0.0,0.0,0.0,0.0,0.0,0.0,0.0,0.0,0.0,0.0,0.0,0.0,0.0,0.0,0.0,0.0,0.0,0.0,0.0,0.0,0.0,0.0,0.0,0.0,0.0,0.0,0.0,0.0,0.0,0.0,0.0,0.0,0.0,0.0,0.0,0.0,-1.6747,-1.6696,-1.6747,-1.691,-1.7002,-1.7076,-1.7199,-1.7377,-1.7489,-1.7566,0.0,0.0,0.0,0.0,0.0,0.0,0.0,0.0,0.0,0.0,0.0,0.0,0.0,0.0,0.0,0.0,0.0,0.0,0.0,0.0,0.0,0.0,0.0,0.0,0.0,0.0,0.0,0.0,0.0,0.0,0.0,0.0,0.0,0.0,0.0,0.0,0.0,0.0,0.0,0.0,0.0,0.0,0.0,0.0,0.0,0.0,0.0,0.0,0.0,0.0,0.0,0.0,0.0,0.0,0.0,0.0,0.0,0.0,0.0,0.0,0.0,0.0,0.0,0.0,0.0,0.0,0.0,0.0,0.0,0.0,0.0,0.0,0.0,0.0,0.0,0.0,0.0,0.0,0.0,0.0,0.0,0.0,0.0,0.0,0.0,0.0,0.0,0.0,0.0,0.0,0.0,0.0,0.0,0.0,0.0,0.0,0.0,0.0,0.0,0.0,0.0,0.0,-1.7158,-1.7027,-1.7027,-1.7344,-1.7296,-1.7313,-1.7455,-1.7618,-1.7749,-1.7833,0.0,0.0,0.0,0.0,0.0,0.0,0.0,0.0,0.0,0.0,0.0,0.0,0.0,0.0,0.0,0.0,0.0,0.0,0.0,0.0,0.0,0.0,0.0,0.0,0.0,0.0,0.0,0.0,0.0,0.0,0.0,0.0,0.0,0.0,0.0,0.0,0.0,0.0,0.0,0.0,0.0,0.0,0.0,0.0,0.0,0.0,0.0,0.0,0.0,0.0,0.0,0.0,0.0,0.0,0.0,0.0,0.0,0.0,0.0,0.0,-2.2882,-2.1973,0.0,0.0,0.0,0.0,0.0,0.0,0.0,0.0,0.0,0.0,0.0,0.0,0.0,0.0,0.0,0.0,0.0,0.0,0.0,0.0,0.0,0.0,0.0,0.0,0.0,0.0,0.0,0.0,0.0,0.0,0.0,0.0,0.0,0.0,0.0,0.0,0.0,0.0,0.0,0.0,-1.7658,-1.7749,-1.7816,-1.7856,-1.7726,-1.7766,-1.7944,-1.7794,-1.7816,-1.8108,-1.8159,0.0,0.0,0.0,0.0,0.0,0.0,0.0,0.0,0.0,0.0,0.0,0.0,0.0,0.0,0.0,0.0,0.0,0.0,0.0,0.0,0.0,0.0,0.0,0.0,0.0,0.0,0.0,0.0,0.0,0.0,0.0,0.0,0.0,0.0,0.0,0.0,0.0,0.0,0.0,0.0,0.0,0.0,0.0,0.0,0.0,0.0,0.0,0.0,0.0,0.0,0.0,0.0,0.0,0.0,0.0,0.0,0.0,0.0,0.0,-2.3859,-2.3009,0.0,0.0,0.0,0.0,0.0,0.0,0.0,0.0,0.0,0.0,0.0,0.0,0.0,0.0,0.0,0.0,0.0,0.0,0.0,0.0,0.0,0.0,0.0,0.0,0.0,0.0,0.0,0.0,0.0,0.0,0.0,0.0,0.0,0.0,0.0,0.0,0.0,0.0,0.0,0.0,-1.7983,-1.8031,-1.8078,-1.818,-1.8057,-1.8057,-1.8184,-1.8159,-1.818,-1.8298,-1.8388,0.0,0.0,0.0,0.0,0.0,0.0,0.0,0.0,0.0,0.0,0.0,0.0,0.0,0.0,0.0,0.0,0.0,0.0,0.0,0.0,0.0,0.0,0.0,0.0,0.0,0.0,0.0,0.0,0.0,0.0,0.0,0.0,0.0,0.0,0.0,0.0,0.0,0.0,0.0,0.0,0.0,0.0,0.0,0.0,0.0,0.0,0.0,0.0,0.0,0.0,0.0,0.0,0.0,-2.3465,-2.3543,-2.3552,-2.4214,-2.4122,-2.3525,-2.4981,-2.4224,-2.2056,-2.2871,0.0,0.0,0.0,0.0,0.0,0.0,0.0,0.0,0.0,0.0,0.0,0.0,0.0,0.0,0.0,0.0,0.0,0.0,0.0,0.0,0.0,0.0,-1.9571,-1.9512,-1.9431,-1.9311,-1.907,0.0,0.0,0.0,0.0,0.0,0.0,0.0,0.0,0.0,0.0,0.0,-1.8236,-1.8163,-1.817,-1.8406,-1.8307,-1.8287,-1.8348,-1.8485,-1.8542,-1.8445,-1.8622,-1.8659,0.0,0.0,0.0,0.0,0.0,0.0,0.0,0.0,0.0,0.0,0.0,0.0,0.0,0.0,0.0,0.0,0.0,0.0,0.0,0.0,0.0,0.0,0.0,0.0,0.0,0.0,0.0,0.0,0.0,0.0,0.0,0.0,-2.4121,-2.3359,0.0,0.0,0.0,0.0,0.0,0.0,0.0,0.0,0.0,0.0,0.0,0.0,0.0,-2.3274,-2.3266,-2.3956,-2.4253,-2.4152,-2.4914,-2.5279,-2.5279,-2.5372,-2.5372,-2.526,-2.5493,0.0,-2.2815,-2.3695,0.0,0.0,0.0,0.0,0.0,0.0,0.0,0.0,0.0,0.0,0.0,0.0,0.0,0.0,0.0,0.0,0.0,0.0,0.0,0.0,0.0,0.0,-2.0205,-1.9571,-1.9372,-1.9261,-1.9052,-1.9053,-1.9019,-1.8824,-1.8806,-1.8769,0.0,0.0,0.0,0.0,0.0,0.0,-1.8445,-1.8506,-1.8508,-1.8485,-1.8465,-1.8502,-1.8559,-1.8526,-1.8529,-1.8566,-1.8752,-1.8807,-1.8678,-1.8788,0.0,0.0,0.0,0.0,0.0,0.0,0.0,0.0,0.0,0.0,0.0,0.0,0.0,0.0,0.0,0.0,0.0,0.0,0.0,0.0,0.0,0.0,0.0,0.0,0.0,0.0,0.0,0.0,0.0,-2.451,-2.4452,-2.2637,-2.4023,-2.4607,0.0,0.0,0.0,0.0,0.0,0.0,0.0,0.0,0.0,-2.4331,-2.3961,-2.4016,-2.4505,-2.4846,-2.5036,-2.5031,-2.5921,-2.6324,-2.6324,-2.6329,-2.6304,-2.6254,-2.5793,-2.5135,-2.4355,-2.4284,-2.3727,-2.289,0.0,0.0,0.0,0.0,-2.2235,-2.222,-2.2611,-2.2743,-2.2789,-2.3087,0.0,0.0,0.0,0.0,0.0,0.0,0.0,-2.0575,-2.024,-2.036,-2.0383,-1.9682,-1.946,-1.9383,-1.9248,-1.9168,-1.9017,-1.8698,-1.866,-1.8659,-1.8565,0.0,0.0,0.0,0.0,-1.8642,-1.8676,-1.8788,-1.8843,-1.8752,-1.8716,-1.8752,-1.8769,-1.8715,-1.8697,-1.877,-1.8896,-1.8914,-1.8824,-1.8949,-1.8966,0.0,0.0,0.0,0.0,0.0,0.0,0.0,0.0,0.0,0.0,0.0,0.0,0.0,0.0,0.0,0.0,0.0,0.0,0.0,0.0,0.0,0.0,0.0,0.0,0.0,0.0,0.0,0.0,-2.4082,-2.4252,-2.2129,-2.3943,-2.476,0.0,0.0,0.0,0.0,0.0,0.0,-2.3435,-2.3626,-2.4004,-2.4618,-2.4851,-2.5288,-2.5931,-2.6145,-2.6242,-2.6242,-2.6903,-2.7213,-2.7213,-2.7206,-2.7181,-2.7084,-2.6275,-2.5868,-2.5737,-2.4923,-2.4166,-2.3543,-2.3516,-2.3469,-2.3389,-2.3206,-2.3083,-2.3122,-2.3659,-2.3824,-2.3812,-2.3993,-2.3812,-2.3413,-2.2825,0.0,0.0,0.0,0.0,-2.1189,-2.1002,-2.0912,-2.0726,-2.0041,-1.9685,-1.9442,-1.9341,-1.9182,-1.8964,-1.868,-1.8605,-1.8586,-1.8567,0.0,0.0,0.0,0.0,-1.8861,-1.8825,-1.8949,-1.9018,-1.8913,-1.8931,-1.8931,-1.8914,-1.8896,-1.8914,-1.8914,-1.9002,-1.9018,-1.8949,-1.9051,-1.9049,-1.8965,0.0,0.0,0.0,0.0,0.0,0.0,0.0,0.0,0.0,0.0,0.0,0.0,0.0,0.0,0.0,0.0,0.0,0.0,0.0,0.0,0.0,0.0,0.0,0.0,0.0,0.0,0.0,0.0,0.0,-2.1911,-2.3389,0.0,0.0,0.0,0.0,-2.3108,-2.3852,-2.4291,-2.4239,-2.5016,-2.549,-2.5523,-2.6345,-2.6792,-2.6825,-2.7602,-2.7964,-2.7964,-2.8023,-2.8042,-2.8042,-2.8042,-2.8042,-2.7984,-2.7174,-2.6754,-2.6563,-2.5708,-2.5324,-2.5277,-2.5206,-2.5148,-2.4992,-2.4284,-2.3996,-2.3938,-2.3985,-2.3986,-2.4111,-2.4808,-2.4384,-2.3554,-2.3405,-2.2795,0.0,0.0,-2.2432,-2.2807,-2.2027,-2.1791,-2.1553,-2.0825,-1.9996,-1.935,-1.9164,-1.9016,-1.8913,-1.8966,-1.8932,-1.8861,-1.8788,0.0,-1.8807,-1.8878,-1.8843,-1.8825,-1.8878,-1.8895,-1.8913,-1.8896,-1.9002,-1.9035,-1.8913,-1.9067,-1.9137,-1.8984,-1.912,-1.9168,-1.9099,-1.9102,-1.9102,-1.9099,-1.8965,0.0,0.0,0.0,0.0,0.0,0.0,0.0,0.0,0.0,0.0,0.0,0.0,0.0,0.0,0.0,0.0,0.0,0.0,0.0,0.0,0.0,0.0,0.0,0.0,0.0,0.0,0.0,0.0,-2.2808,-2.4184,0.0,-2.3237,-2.4113,-2.4534,-2.3988,-2.4689,-2.5372,-2.594,-2.626,-2.6448,-2.6436,-2.7233,-2.7427,-2.6903,-2.7699,-2.81,-2.81,-2.867,-2.8942,-2.8942,-2.8942,-2.8625,-2.8081,-2.7796,-2.7356,-2.6812,-2.6447,-2.592,-2.5331,-2.5313,-2.5283,-2.5233,-2.4907,-2.4791,-2.4771,-2.4777,-2.4736,-2.474,-2.4898,-2.4723,-2.4341,-2.3757,-2.3328,-2.3011,-2.2868,-2.2961,-2.3027,-2.2682,-2.2239,-2.1664,-2.0883,-2.01,-1.9508,-1.9383,-1.9292,-1.9216,-1.9202,-1.8966,-1.8807,-1.8914,-1.8932,-1.8949,-1.9018,-1.9053,-1.9052,-1.9033,-1.9101,-1.9135,-1.9104,-1.9137,-1.9153,-1.9102,-1.9086,-1.9102,-1.9198,-1.9152,-1.9168,-1.9227,-1.923,-1.9198,-1.9115,-1.9051,-1.8983,0.0,0.0,0.0,0.0,0.0,0.0,0.0,0.0,0.0,0.0,0.0,0.0,0.0,0.0,0.0,0.0,0.0,0.0,0.0,0.0,0.0,0.0,0.0,0.0,0.0,0.0,-2.4822,-2.368,-2.4818,-2.5236,-2.4068,-2.5272,-2.5886,-2.5286,-2.6013,-2.6739,-2.7307,-2.734,-2.7329,-2.7342,-2.8126,-2.8282,-2.7757,-2.8554,-2.8981,-2.8981,-2.9564,-2.9836,-2.9836,-2.9836,-2.9518,-2.8967,-2.8676,-2.8067,-2.7246,-2.6927,-2.621,-2.5322,-2.5332,-2.5303,-2.5252,-2.5222,-2.5201,-2.5198,-2.5206,-2.5172,-2.5113,-2.5032,-2.498,-2.4858,-2.4282,-2.403,-2.3896,-2.3771,-2.3659,-2.356,-2.3492,-2.2699,-2.1773,-2.1235,-2.0304,-1.9522,-1.9471,-1.9398,-1.9341,-1.928,-1.9051,-1.8896,-1.9,-1.9069,-1.9104,-1.9102,-1.9152,-1.9184,-1.9115,-1.9182,-1.9216,-1.92,-1.9216,-1.9232,-1.92,-1.9135,-1.9166,-1.9323,-1.928,-1.9261,-1.935,-1.9383,-1.9305,-1.918,-1.9168,-1.9069,-1.8895,0.0,0.0,0.0,0.0,0.0,0.0,0.0,0.0,0.0,0.0,0.0,0.0,0.0,0.0,0.0,0.0,0.0,0.0,0.0,0.0,0.0,0.0,0.0,-2.338,-2.389,-2.4443,-2.4475,-2.523,-2.5722,-2.5687,-2.649,-2.702,-2.6958,-2.7722,-2.8209,-2.8237,-2.824,-2.8229,-2.8248,-2.9026,-2.9428,-2.9408,-3.0263,-3.069,-3.069,-3.069,-3.069,-3.069,-3.069,-3.0683,-3.0603,-2.98,-2.8912,-2.7981,-2.7187,-2.6334,-2.5484,-2.5425,-2.5332,-2.5192,-2.5192,-2.5198,-2.5203,-2.519,-2.5198,-2.5191,-2.5195,-2.5141,-2.5088,-2.4961,-2.4865,-2.4779,-2.4639,-2.4564,-2.4482,-2.4412,-2.3154,-2.1895,-2.1895,-2.064,-1.9409,-1.9409,-1.9365,-1.9289,-1.9225,-1.9214,-1.92,-1.9115,-1.9216,-1.9251,-1.9132,-1.915,0.0,-1.9115,-1.9099,-1.9115,-1.9184,-1.9261,-1.9277,-1.92,-1.9261,-1.9338,-1.9405,-1.946,-1.9499,-1.9518,-1.9518,-1.9442,-1.9305,-1.9295,-1.9168,-1.8913,0.0,0.0,0.0,0.0,0.0,0.0,0.0,0.0,0.0,0.0,0.0,0.0,0.0,0.0,0.0,0.0,0.0,0.0,0.0,0.0,0.0,0.0,-2.5314,-2.4193,-2.4787,-2.5554,-2.6135,-2.6416,-2.6812,-2.7439,-2.7722,-2.7858,-2.7843,-2.8053,-2.8457,-2.9032,-2.9116,-2.9129,-2.9065,-2.9901,-3.003,-2.9408,-3.0263,-3.069,-3.069,-3.069,-3.069,-3.069,-3.0695,-3.0358,-2.978,-3.0176,-2.9838,-2.8989,-2.8729,-2.8097,-2.7157,-2.5888,-2.5313,-2.5212,-2.519,-2.5206,-2.5191,-2.5203,-2.5203,-2.5191,-2.5149,-2.5125,-2.5101,-2.507,-2.4966,-2.4847,-2.4704,-2.4629,-2.4532,-2.4375,-2.3152,-2.1971,-2.1971,-2.0769,-1.9617,-1.9617,-1.9604,-1.9564,-1.9495,-1.9532,-1.9489,-1.928,-1.9235,-1.9232,-1.9243,-1.918,0.0,-1.9168,-1.9135,-1.9102,-1.9134,-1.9182,-1.9264,-1.9344,-1.9308,-1.9398,-1.9606,-1.9546,-1.9574,-1.9712,-1.9662,-1.9577,-1.9442,-1.9405,-1.9248,0.0,0.0,0.0,0.0,0.0,0.0,0.0,0.0,0.0,0.0,0.0,0.0,0.0,0.0,0.0,0.0,0.0,0.0,0.0,0.0,0.0,0.0,-2.599,-2.6038,-2.5527,-2.5886,-2.6388,-2.6836,-2.7211,-2.7648,-2.8149,-2.8524,-2.8738,-2.8738,-2.9055,-2.9463,-2.9958,-2.9997,-2.9997,-2.9985,-3.0445,-3.0458,-2.994,-3.0458,-3.0691,-3.0704,-3.0691,-3.0711,-3.0704,-3.071,-3.0423,-2.9982,-3.0486,-3.0215,-2.9392,-2.9323,-2.8794,-2.7862,0.0,0.0,0.0,0.0,-2.5195,-2.5191,-2.5203,-2.5203,-2.5191,-2.516,-2.5149,-2.5125,-2.5132,-2.5063,-2.4966,-2.4903,-2.4753,-2.4613,-2.4497,-2.3268,-2.2036,-2.2039,-2.0844,-1.9713,-1.9745,-1.9745,-1.9732,-1.9688,-1.9719,0.0,-1.9508,-1.9405,-1.9357,-1.9335,-1.9289,-1.9243,-1.9277,-1.9232,-1.9182,-1.9214,-1.9264,-1.9295,-1.9357,-1.9353,0.0,0.0,0.0,-1.9649,-1.9782,-1.9713,0.0,0.0,0.0,-1.9383,-1.9178,-1.9196,0.0,0.0,-1.8131,-1.7328,0.0,0.0,0.0,0.0,0.0,0.0,0.0,0.0,0.0,0.0,0.0,0.0,0.0,0.0,0.0,0.0,-2.6424,-2.6933,-2.7029,-2.7121,-2.7185,-2.7186,-2.7851,-2.8371,-2.8474,-2.918,-2.9647,-2.9647,-3.0308,-3.0722,-3.0798,0.0,0.0,0.0,0.0,-3.0697,-3.0698,-3.0691,-3.0691,-3.0698,-3.0697,-3.0691,-3.0698,-3.0691,-3.0697,-3.0707,-3.0707,-3.0261,-2.9535,-2.9478,-2.8943,-2.8048,-2.7161,-2.6256,-2.5425,-2.5362,-2.5271,-2.5191,-2.5195,0.0,0.0,-2.5195,-2.5195,-2.5191,-2.5191,-2.5163,-2.5114,-2.5101,-2.4917,-2.4723,-2.4707,-2.354,-2.238,-2.2387,-2.1218,-2.0126,-2.0189,-2.0132,-2.0083,-2.007,-2.0082,-2.0057,-2.0006,-1.9764,-1.955,-1.9442,-1.9409,-1.9409,-1.9409,-1.935,-1.9338,-1.9387,0.0,0.0,-1.9335,-1.938,-1.9495,-1.9682,-1.972,-1.9757,-1.9823,-1.9701,-1.9599,-1.9481,-1.9582,-1.9569,-1.9419,-1.9365,-1.9368,-1.9405,-1.8373,-1.7346,0.0,0.0,0.0,0.0,0.0,0.0,0.0,0.0,0.0,0.0,0.0,0.0,0.0,0.0,0.0,-2.6532,-2.6809,-2.7157,-2.7857,-2.8507,-2.8929,-2.8916,-2.9078,-2.9447,-3.016,-3.0374,-3.0471,-3.0471,-3.0614,-3.0717,-3.073,-3.071,-3.0716,-3.0724,-3.0716,-3.0703,-3.0697,-3.0703,-3.0697,-3.0697,-3.0703,0.0,-3.0697,-3.0698,-3.0711,-3.0704,-3.0704,-3.0607,-3.0451,-3.0431,-2.9846,-2.8878,-2.7948,-2.7044,-2.627,-2.624,-2.5807,-2.5191,-2.5203,-2.5191,-2.5191,-2.5203,-2.5191,-2.5191,-2.5191,-2.518,0.0,-2.5051,-2.4934,-2.4851,-2.4802,-2.4448,-2.4123,-2.4108,-2.3393,-2.2682,-2.2701,-2.2234,-2.1819,-2.1832,-2.1832,-2.1819,-2.1811,-2.0578,-1.9587,-1.9569,-1.9475,-1.9409,-1.9409,-1.9394,-1.938,-1.9413,-1.9413,-1.9442,-1.9527,-1.9564,-1.9606,-1.9682,-1.98,-1.9922,-2.0038,-1.9979,-1.9918,-1.9892,-1.9858,-1.9781,-1.9638,-1.9567,-1.955,-1.9541,-1.8424,-1.7471,0.0,0.0,0.0,0.0,0.0,0.0,0.0,0.0,0.0,0.0,0.0,-2.5709,0.0,0.0,-2.6464,-2.6833,-2.7624,-2.833,-2.8732,-2.9524,-2.9887,-2.946,-2.9791,-3.0212,-3.0651,-3.069,-3.069,-3.069,-3.0697,-3.0704,-3.0704,-3.0698,-3.071,-3.0742,-3.0748,-3.0967,-3.1396,-3.1407,-3.1601,-3.1999,-3.1601,-3.1407,-3.1396,-3.0962,-3.0736,-3.071,-3.071,-3.071,-3.0704,-3.0704,-3.0366,-2.9864,-2.9811,-2.8733,-2.7144,-2.7101,-2.6809,-2.644,-2.644,-2.644,-2.644,-2.644,-2.644,-2.644,-2.644,-2.644,-2.644,-2.6359,-2.6287,-2.62,-2.6113,-2.5733,-2.5333,-2.5305,-2.44,-2.3531,-2.3516,-2.2886,-2.2348,-2.2311,-2.2324,-2.2343,-2.2308,-2.1585,-2.0838,-2.0322,-2.022,-2.002,-1.9569,-1.9527,-1.9527,-1.9495,-1.9504,-1.9532,-1.9582,-1.966,-1.9725,-1.9794,-1.99,-1.9977,-2.0048,-2.0049,-2.0049,-2.0049,-1.9969,-1.9896,-1.9802,-1.9724,-1.9488,-1.9076,-1.8451,-1.7683,0.0,0.0,0.0,0.0,0.0,0.0,0.0,0.0,-2.4448,-2.4619,-2.5354,-2.5952,-2.5941,-2.6659,-2.7273,-2.7385,-2.8573,-2.9543,-2.9641,-3.0269,-3.0444,-2.9739,-3.027,-3.0768,-3.0943,-3.0943,-3.102,-3.1195,-3.104,-3.1028,-3.1197,-3.1041,-3.106,-3.1279,-3.129,-3.1621,-3.2322,-3.2357,-3.2669,-3.3301,-3.2494,-3.2104,-3.2074,-3.1198,-3.0764,-3.0728,-3.0728,-3.0728,-3.0728,-3.0899,-3.0797,-3.0617,-3.1478,-3.0383,-2.8307,-2.8248,-2.8115,-2.7924,-2.7752,-2.7695,-2.7714,-2.7701,-2.7701,-2.7701,-2.7669,-2.7688,-2.7701,-2.7669,-2.7597,-2.7509,-2.7447,-2.7005,-2.6548,-2.6333,-2.5309,-2.4355,-2.4152,-2.3458,-2.2873,-2.2835,-2.2848,-2.2867,-2.2801,-2.2846,-2.248,-2.1326,-2.1204,-2.0918,-1.9996,-1.9911,-1.9881,-1.9686,-1.9647,-1.9633,-1.9655,-1.9751,-1.9844,-1.9903,-1.9945,-1.9988,-2.0019,-2.0078,-2.0117,-2.0108,-2.0069,-2.002,-1.9953,-1.9871,-1.9517,-1.889,-1.8584,-1.777,-2.2979,-2.2738,-2.2609,-2.2074,-2.2447,-2.3219,0.0,0.0,-2.4617,-2.5391,-2.6253,-2.6844,-2.6775,-2.7476,-2.831,-2.9085,-2.9377,-2.9762,-3.045,-3.0645,-3.0658,-3.0581,-3.0646,-3.1001,-3.1778,-3.1856,-3.2186,-3.2943,-3.2283,-3.2186,-3.2963,-3.2278,-3.2214,-3.2999,-3.3031,-3.3062,-3.3159,-3.3214,-3.3298,-3.3375,-3.2499,-3.209,-3.207,-3.1208,-3.0799,-3.0794,-3.0794,-3.0794,-3.0852,-3.1617,-3.1429,-3.0749,-3.1573,-3.1204,-3.0192,-3.0121,-2.9569,-2.8727,-2.7975,-2.7694,-2.7713,-2.7695,-2.7701,-2.7688,-2.7624,-2.7656,-2.7688,-2.7624,-2.7592,-2.7578,-2.7578,-2.7941,-2.8153,-2.7479,-2.7108,-2.6734,-2.6039,-2.5224,-2.4636,-2.4682,-2.4661,-2.462,-2.462,-2.462,-2.403,-2.2314,-2.2103,-2.1835,-2.0955,-2.0851,-2.059,-1.9936,-1.9806,-1.9775,-1.9775,-1.9849,-1.9884,-1.9896,-1.9919,-1.9947,-2.0079,-2.0145,-2.0192,-2.018,-2.018,-2.0162,-2.0174,-2.005,-1.9963,-1.9917,-1.9004,-1.758,-2.3176,-2.3002,0.0,0.0,-2.3589,-2.4218,-2.5604,-2.591,-2.6156,-2.7022,-2.7479,-2.7698,-2.7667,-2.8368,-2.9085,0.0,-2.9922,-3.037,-3.0706,-3.0759,-3.0753,-3.0767,-3.071,-3.1048,-3.1928,-3.1533,-3.1603,-3.2477,-3.2205,-3.2166,-3.2516,-3.2679,-3.2919,-3.3283,-3.3297,-3.3544,-3.4043,-3.408,-3.4358,-3.4845,-3.3492,-3.2854,-3.2815,-3.1427,-3.0799,-3.0799,-3.0799,-3.0799,-3.0838,-3.1193,-3.109,-3.0788,-3.163,-3.1681,-3.1235,-3.0629,-3.0155,-2.9766,-2.9353,-2.9225,-2.9213,-2.92,-2.9193,-2.9161,-2.9129,-2.9134,-2.9153,-2.9074,-2.9074,-2.9107,-2.9065,-2.9269,-2.9277,-2.8493,-2.7871,-2.7262,-2.6439,-2.5602,-2.5013,-2.5,-2.498,-2.4953,-2.4953,-2.4959,-2.469,-2.3903,-2.3412,-2.2782,-2.1872,-2.1381,-2.0797,-1.9936,-1.9854,-1.9842,-1.9813,-1.9861,-1.9896,-1.9896,-1.9941,-2.0009,-2.0108,-2.0153,-2.0216,-2.0265,-2.023,-2.0219,-2.025,-2.0205,-1.9939,-1.9465,-1.9469,-1.8486,-2.3577,0.0,0.0,-2.4663,-2.5117,-2.5819,-2.7065,-2.7352,-2.754,-2.8168,-2.8431,-2.856,-2.8563,-2.926,-2.9864,-2.9864,-3.0394,-3.0804,-3.0799,-3.0794,-3.0808,-3.0808,-3.0948,-3.1397,-3.2266,-3.178,-3.1863,-3.2982,-3.2827,-3.2788,-3.3041,-3.3429,-3.3748,-3.3976,-3.3996,-3.4282,-3.4918,-3.4944,-3.5281,-3.5885,-3.4422,-3.3726,-3.3668,-3.1953,-3.1037,-3.0799,-3.0799,-3.0799,-3.0799,-3.0799,-3.0764,-3.0794,-3.1424,-3.1637,-3.1507,-3.0772,-3.0604,-3.0744,-3.0424,-3.0323,-3.033,-3.0324,-3.0247,-3.0207,-3.0207,-3.0199,-3.0204,-3.0109,-3.0157,-3.019,-3.0147,-3.0113,-2.9842,-2.884,-2.8095,-2.7345,-2.6269,-2.5562,-2.5099,-2.5056,-2.505,-2.5044,-2.5044,-2.5038,-2.5012,-2.4959,-2.4466,-2.3744,-2.2819,-2.1821,-2.0845,-1.996,-1.99,-1.99,-1.9861,-1.9884,-1.9896,-1.9896,-1.9963,-2.0019,-2.0069,-2.0162,-2.0222,-2.0269,-2.0219,-2.0208,-2.0241,-2.0246,-1.9923,-1.9323,-1.9875,-1.9325,0.0,0.0,-2.6596,-2.5853,-2.6933,-2.8198,-2.8252,-2.8266,-2.8279,-2.8285,-2.8922,-2.9464,-2.9459,-3.0175,-3.076,-3.076,-3.0774,-3.0798,-3.0804,-3.0799,-3.0799,-3.0799,-3.1499,-3.2305,0.0,-3.3245,-3.3918,-3.5566,-3.4905,-3.4789,-3.5643,-3.4905,-3.4847,-3.5702,-3.5718,-3.5745,-3.5764,-3.5827,-3.5866,-3.5885,-3.4987,-3.4564,-3.4506,-3.283,-3.1602,-3.0799,-3.0799,-3.0799,-3.0799,-3.0799,-3.0799,-3.0799,-3.0828,-3.0842,-3.0817,-3.0723,-3.113,-3.1622,-3.0712,-3.04,-3.0394,-3.0318,-3.0247,-3.0207,-3.0199,-3.0204,-3.0204,-3.0109,-3.0157,-3.0204,-3.0204,-3.0157,-2.9718,-2.8198,-2.7764,-2.7266,-2.5667,-2.5262,-2.5212,-2.5182,-2.5149,-2.5103,-2.5103,-2.5103,-2.5099,-2.5082,-2.5082,-2.4721,-2.3782,-2.2224,-2.0903,-2.0077,-1.9996,-1.9998,-1.9988,-1.9934,-1.99,-1.99,-1.9952,-1.9996,-2.0001,-2.0125,-2.0205,-2.0192,-2.0205,-2.0161,-2.0105,-2.0107,-2.0098,-2.006,-2.0164,-1.9722,-2.6651,0.0,-2.7044,-2.7343,-2.787,-2.8451,-2.9029,-2.9164,-2.9316,-2.9854,-2.9715,-2.9494,-2.9499,-2.9745,-2.9936,-2.9936,-3.0423,-3.0808,-3.0793,-3.0793,-3.0793,-3.0793,-3.1549,0.0,0.0,0.0,0.0,-3.4924,-3.4722,-3.4683,-3.4982,-3.522,-3.5504,-3.5795,-3.5807,-3.5795,-3.5803,-3.5878,-3.5892,-3.5892,-3.5009,-3.43,-3.3716,-3.32,-3.2455,-3.1601,-3.1637,-3.1325,-3.0789,-3.0789,-3.0764,-3.0734,-3.0734,-3.0728,-3.0728,-3.071,-3.0859,-3.1018,-3.0673,-3.0501,-3.0458,-3.0436,-3.0348,-3.0267,-3.0273,-3.0234,-3.0213,-3.0171,-3.0171,-3.0185,-3.0157,-3.0157,-2.9884,-2.8785,-2.8134,-2.7462,-2.6335,-2.5646,-2.5264,-2.5264,-2.5203,-2.5171,-2.5171,-2.5138,-2.5103,-2.5099,-2.5063,-2.4701,-2.3808,-2.2741,-2.1737,-2.0884,-2.0318,-1.9977,-1.9934,-1.9911,-1.99,-1.99,-1.993,-1.9958,-2.005,-2.0153,-2.0216,-2.0265,-2.0273,-2.0254,-2.0219,-2.0186,-2.0186,-2.023,-1.9607,-1.9179,-2.7815,-2.8064,-2.8065,-2.8613,-2.9001,-2.9366,-2.9906,-3.0021,-3.0177,-3.0696,-3.013,-2.9523,-2.9491,-2.9273,-2.9172,-2.9457,-2.9979,-3.0442,-3.0763,-3.0802,-3.0919,-3.1231,-3.2026,-3.2898,0.0,0.0,0.0,-3.5022,-3.5055,-3.5055,-3.5061,-3.5553,-3.5838,-3.5838,-3.5815,-3.5815,-3.5838,-3.5872,-3.5892,-3.5891,-3.532,-3.4606,-3.3774,-3.3813,-3.3334,-3.2466,-3.2503,-3.204,-3.1231,-3.1251,-3.1051,-3.0728,-3.0703,-3.0703,-3.0703,-3.0703,-3.0691,-3.0685,-3.0626,-3.0567,-3.053,-3.0479,-3.0406,-3.0336,-3.0279,-3.0228,-3.0207,-3.0213,-3.0213,-3.0213,-3.0152,-3.0166,-2.9989,-2.9148,-2.8345,-2.7551,-2.6688,-2.5868,-2.5303,-2.5303,-2.5264,-2.5243,-2.5243,-2.5182,-2.5138,-2.5138,-2.5106,-2.4746,-2.3841,-2.3012,-2.2178,-2.1331,-2.05,-1.9988,-1.9936,-1.9934,-1.9941,-1.9934,-1.9934,-1.9998,-2.0098,-2.0145,-2.0201,-2.0269,-2.0249,-2.023,-2.023,-1.9898,-1.9756,-1.9745,-1.886,-1.8417,-2.8083,-2.8949,-2.9608,-2.9668,-3.0288,-3.0888,-3.0823,-3.0801,-3.0799,-3.0794,-3.0113,-2.9528,0.0,0.0,-2.8558,-2.9304,-2.9503,-2.9835,-3.0626,-3.0802,-3.1172,0.0,0.0,0.0,0.0,0.0,0.0,-3.5911,0.0,-3.5905,-3.5905,-3.5905,-3.5905,-3.5905,-3.5838,-3.5838,-3.5905,-3.5905,-3.5905,-3.5909,-3.5903,-3.5469,-3.4661,-3.4672,-3.4186,-3.3369,-3.3367,-3.2887,-3.2083,-3.2147,-3.164,-3.0862,-3.0787,-3.0742,-3.0697,-3.0697,-3.071,-3.0691,-3.0637,-3.0607,-3.0585,-3.0451,-3.0406,-3.0379,-3.0241,-3.0221,-3.0221,-3.0221,-3.0247,-3.0292,-3.0234,-3.0221,-2.9997,-2.9245,-2.8427,-2.757,-2.6749,-2.5898,-2.5303,-2.5303,-2.5303,-2.5303,-2.5303,-2.5243,-2.5212,-2.5212,-2.519,-2.4878,-2.3972,-2.3061,-2.2201,-2.1441,-2.053,-1.999,-2.0001,-2.0007,-2.0004,-1.9998,-1.9998,-2.0019,-2.0107,-2.0088,-2.0136,-2.0208,-2.0144,-2.0117,-2.0098,-1.9334,-1.8925,-1.8859,-1.7986,-1.7557,-2.9734,-2.9865,-2.976,-3.0409,-3.0742,-3.0894,-3.0888,-3.0843,-3.0799,-3.0799,-2.963,-2.881,0.0,0.0,0.0,-2.8505,-2.9628,0.0,-2.9885,-3.0946,0.0,-3.2062,0.0,-3.4468,-3.4675,-3.547,0.0,0.0,-3.5928,-3.5903,-3.5894,-3.5891,-3.5898,-3.5898,-3.5885,-3.5885,-3.5898,-3.5898,-3.5891,-3.5894,-3.5897,-3.5774,-3.556,-3.5566,-3.5098,-3.4261,-3.4316,-3.3848,-3.3039,-3.3059,-3.2536,-3.1689,-3.1683,-3.1262,-3.0704,-3.0704,-3.0704,-3.0697,-3.069,-3.0642,-3.0582,-3.0548,-3.0521,-3.046,-3.0422,-3.0419,-3.0425,-3.0428,-3.0402,-3.0374,-3.0343,-3.0273,-3.015,-2.9945,-2.8817,-2.7731,-2.7438,-2.6296,-2.5302,-2.5302,-2.5302,-2.5302,-2.5303,-2.5293,-2.5264,-2.5264,-2.5233,-2.5099,-2.4809,-2.3488,-2.2479,-2.2232,-2.0872,-1.999,-2.0001,-2.0009,-1.9998,-1.9991,-1.9991,-2.003,-2.0098,-2.0145,-2.0183,-2.0201,-2.0171,-2.0162,-2.0164,-1.9972,-1.9849,-1.982,-1.8257,-1.7553,-3.0445,-3.0491,-3.0284,-3.0779,-3.0898,-3.0799,-3.0425,-3.0304,-3.0164,-2.9777,-2.8647,0.0,-2.8816,0.0,0.0,0.0,0.0,0.0,-3.01,-3.1239,-3.2237,0.0,-3.3867,0.0,-3.5233,-3.5708,-3.6004,0.0,-3.5962,-3.5948,-3.5938,-3.5943,-3.5933,-3.5933,-3.5917,-3.5905,-3.5905,-3.5903,-3.5889,-3.5899,-3.5903,-3.5903,-3.5908,-3.5903,-3.5624,-3.5162,-3.5212,-3.4725,-3.3935,-3.3935,-3.3184,-3.2038,-3.2013,-3.1482,-3.0691,-3.0697,-3.069,-3.069,-3.069,-3.0676,-3.0634,-3.0602,-3.0567,-3.053,-3.0482,-3.0481,-3.05,-3.05,-3.046,-3.0439,-3.0447,-3.0371,-3.0279,-3.0247,-2.9013,-2.7923,-2.8204,-2.6721,-2.5351,-2.5312,-2.5302,-2.5302,-2.5303,-2.5303,-2.5303,-2.5303,-2.5293,-2.5252,-2.516,-2.367,-2.262,-2.2577,-2.1089,-2.0098,-2.0089,-2.0069,-2.004,-2.0031,-2.0069,-2.0098,-2.0143,-2.0144,-2.0164,-2.019,-2.0173,-2.0164,-2.0192,-1.9791,-1.96,-1.959,-1.82,-1.7546,-3.0604,-3.0845,-3.0889,-3.0895,-3.0898,-3.0663,-2.9803,-2.9607,-2.9351,-2.8476,0.0,-2.7304,-2.828,-2.7747,-2.7702,-2.9318,0.0,-2.9893,-3.0533,-3.1473,-3.2413,-3.3306,-3.4179,-3.5048,-3.5923,-3.5996,-3.6005,-3.6005,-3.6007,-3.5994,-3.6009,-3.6009,-3.6005,-3.6005,-3.5948,-3.5908,-3.5917,-3.5899,-3.5909,-3.5909,-3.5899,-3.5899,-3.5909,-3.5908,-3.5917,-3.5917,-3.5914,-3.5421,-3.4612,-3.4612,-3.3682,-3.227,-3.2077,-3.1559,-3.0859,-3.0756,-3.0704,-3.0704,-3.0704,-3.0697,-3.069,-3.0629,-3.0613,-3.0595,-3.0481,-3.0481,-3.053,-3.052,-3.0521,-3.0501,-3.0521,-3.0451,-3.0398,-3.034,-2.9173,-2.824,-2.8874,-2.7168,-2.5493,-2.5332,-2.5302,-2.5302,-2.5303,-2.5303,-2.5303,-2.5303,-2.5351,-2.5341,-2.5233,-2.385,-2.2844,-2.27,-2.1301,-2.0344,-2.0201,-2.0144,-2.0126,-2.0117,-2.0164,-2.0199,-2.0186,-2.0134,-2.0135,-2.0171,-2.0127,-2.0117,-2.0183,-1.9373,-1.901,-1.9054,-1.817,-1.7735,-3.0762,-3.0801,-3.0823,-3.0889,-3.0895,-3.0663,-2.9804,-2.9609,0.0,0.0,-2.7617,-2.7478,-2.9013,-2.8621,-2.8383,-2.9364,0.0,0.0,0.0,0.0,-3.242,0.0,0.0,0.0,0.0,0.0,0.0,0.0,-3.6005,-3.6001,-3.6007,-3.6001,-3.5997,-3.5997,-3.5994,-3.5986,-3.5977,-3.5981,-3.5981,-3.5981,-3.5981,-3.5981,-3.5981,-3.5977,-3.5981,-3.597,-3.597,-3.5486,-3.4683,-3.4683,-3.409,-3.3102,-3.2372,-3.1992,-3.1773,-3.1056,-3.0773,-3.0773,-3.0716,-3.0697,-3.071,-3.069,-3.0688,-3.0673,-3.0653,-3.0665,-3.0665,-3.068,-3.0637,-3.0574,-3.0585,-3.054,-3.0481,-3.0471,-2.9688,-2.8993,-2.8998,-2.7543,-2.6047,-2.5426,-2.5292,-2.5302,-2.5303,-2.5303,-2.5303,-2.5303,-2.5313,-2.5313,-2.5293,-2.4457,-2.3554,-2.2786,-2.1836,-2.0971,-2.0252,-2.0241,-2.0244,-2.0192,-2.0188,-2.018,-2.0127,-2.0153,-2.0144,-2.0031,-2.0069,-2.0069,-2.0021,-1.9936,-1.9907,-1.9943,-1.9019,-1.8608,-3.0796,-3.0799,-3.0801,-3.0843,-3.0852,-3.0505,-2.9215,0.0,0.0,0.0,-2.6619,-2.6718,-2.7969,0.0,0.0,0.0,0.0,0.0,0.0,0.0,0.0,0.0,0.0,0.0,0.0,0.0,0.0,-3.6009,-3.5992,-3.5991,-3.5999,-3.5996,-3.5991,-3.6001,-3.6004,-3.6001,-3.6005,-3.5994,-3.5997,-3.5994,-3.5997,-3.6001,-3.6001,-3.5994,-3.5994,-3.6001,-3.6001,-3.5767,-3.5376,-3.5369,-3.4608,-3.336,-3.2935,-3.2225,-3.1367,-3.0959,-3.0808,-3.0803,-3.0759,-3.0728,-3.0697,-3.0704,-3.0691,-3.0704,-3.0704,-3.0704,-3.0704,-3.0704,-3.0678,-3.0651,-3.0651,-3.0607,-3.0557,-3.0557,-3.0202,-2.9506,-2.8191,-2.7528,-2.6833,-2.5646,-2.5378,-2.536,-2.5339,-2.536,-2.5361,-2.5351,-2.5322,-2.5313,-2.5351,-2.5014,-2.4273,-2.2957,-2.2043,-2.1213,-2.0335,-2.0269,-2.0265,-2.0197,-2.0222,-2.0214,-2.0155,-2.0188,-2.0169,-2.0106,-2.0107,-2.0108,-2.0108,-2.0078,-2.0098,-2.0192,-1.9697,-1.9495,-3.0757,-3.0796,-3.0801,-3.0801,-3.081,-3.0385,-2.8682,-2.8295,0.0,0.0,-2.5691,-2.5969,-2.6848,0.0,-2.7344,0.0,0.0,0.0,0.0,0.0,0.0,0.0,0.0,0.0,0.0,0.0,0.0,-3.5992,-3.5994,-3.5993,-3.6007,-3.6005,-3.6001,-3.601,-3.5994,-3.5991,-3.5997,-3.5991,-3.5994,-3.6007,-3.5994,-3.5996,-3.5994,-3.5812,-3.5731,-3.5731,-3.5711,-3.5614,-3.5458,-3.5646,-3.4794,-3.3378,-3.3181,-3.228,-3.1055,-3.086,-3.0808,-3.0804,-3.0794,-3.0764,-3.0714,-3.0714,-3.0709,-3.0697,-3.0704,-3.0691,-3.0697,-3.0704,-3.0691,-3.0703,-3.0703,-3.0652,-3.0618,-3.0618,-3.0574,-2.99,-2.7641,-2.7559,-2.7417,-2.5815,-2.5464,-2.5414,-2.543,-2.5418,-2.5432,-2.5432,-2.5378,-2.537,-2.5398,-2.5398,-2.4752,-2.3075,-2.2284,-2.1456,-2.039,-2.0306,-2.0284,-2.0227,-2.0273,-2.0285,-2.0225,-2.0203,-2.0211,-2.0203,-2.0152,-2.0144,-2.0173,-2.0069,-2.0079,-2.0209,-2.0155,-2.0116,-3.0604,-3.0801,-3.0801,-3.0801,-3.0845,-3.0439,-2.8695,0.0,0.0,-2.606,-2.5694,-2.5973,-2.6833,-2.6991,-2.7539,0.0,0.0,-2.9685,0.0,0.0,0.0,0.0,0.0,0.0,0.0,0.0,0.0,-3.5995,-3.5995,-3.5994,-3.5991,-3.5991,-3.5991,-3.6009,-3.6005,-3.6005,-3.6009,-3.6005,-3.6005,-3.6009,-3.6005,-3.6003,-3.5964,-3.5176,-3.4822,-3.4822,-3.4827,-3.4361,-3.3697,-3.4498,-3.4263,-3.3326,-3.2539,-3.2126,-3.1873,-3.1084,-3.0807,-3.0804,-3.0806,-3.0798,-3.0793,-3.0779,-3.0745,-3.0703,-3.0697,-3.0703,-3.0703,-3.0697,-3.0703,-3.0703,-3.0703,-3.0697,-3.0691,-3.0691,-3.0649,-3.0114,-2.8365,-2.7947,-2.7415,-2.5816,-2.5493,-2.5493,-2.5493,-2.548,-2.5493,-2.5495,-2.5488,-2.5456,-2.5407,-2.5397,-2.4769,-2.3083,-2.284,-2.2107,-2.0429,-2.0295,-2.0301,-2.0284,-2.0296,-2.0308,-2.0285,-2.0238,-2.0203,-2.0197,-2.0195,-2.0159,-2.0115,-2.0098,-2.0125,-2.0203,-2.019,-2.0199,-3.0579,-3.0799,-3.0799,-3.0791,-3.0816,-3.0394,-2.8689,0.0,-2.7799,-2.6058,-2.6121,-2.6592,-2.6944,-2.7432,-2.8019,-2.8704,0.0,0.0,0.0,0.0,0.0,0.0,0.0,0.0,0.0,0.0,-3.5995,-3.5996,-3.5996,-3.5995,-3.5994,-3.5992,-3.5991,-3.5991,-3.6007,-3.6007,-3.5991,-3.6009,-3.5991,-3.5994,-3.5466,-3.5211,-3.5191,-3.4305,-3.391,-3.391,-3.3912,-3.4014,-3.4171,-3.3996,-3.3704,-3.3315,-3.245,-3.1801,-3.1333,-3.0936,-3.0794,-3.0804,-3.0794,-3.0802,-3.0808,-3.0804,-3.0774,-3.0764,-3.0764,-3.0764,-3.0764,-3.0764,-3.0764,-3.0764,-3.0764,-3.0764,-3.0764,-3.0767,-3.0736,-3.0244,-2.854,-2.8124,-2.7595,-2.5941,-2.56,-2.5565,-2.5556,-2.5535,-2.5504,-2.5543,-2.5538,-2.5492,-2.5452,-2.5414,-2.4772,-2.3083,-2.289,-2.2214,-2.0495,-2.0354,-2.034,-2.0306,-2.0292,-2.0269,-2.0238,-2.0238,-2.0257,-2.0269,-2.023,-2.0184,-2.0156,-2.0124,-2.0124,-2.0205,-2.0208,-2.0197,-3.0127,-3.0423,-3.0504,-3.0742,-3.0615,-3.0135,0.0,0.0,-2.7952,-2.6722,-2.6956,-2.7386,-2.7386,-2.7893,-2.8381,-2.8613,0.0,-2.8973,0.0,0.0,0.0,0.0,0.0,0.0,0.0,-3.5859,-3.5996,-3.5996,-3.5996,-3.5996,-3.5996,-3.5996,-3.5995,-3.5993,-3.6009,-3.6009,-3.5994,-3.5993,-3.5994,-3.5995,-3.5389,-3.5077,-3.5057,-3.3919,-3.3408,-3.3389,-3.3137,-3.3353,-3.3902,-3.3551,-3.3259,-3.2947,-3.2334,-3.1608,-3.0866,-3.0821,-3.0794,-3.0804,-3.0804,-3.079,-3.0793,-3.0808,-3.0804,-3.0799,-3.0799,-3.0799,-3.0799,-3.0799,-3.0799,-3.0799,-3.0799,-3.0799,-3.0799,-3.0794,-3.0808,-3.0331,-2.8579,-2.8201,-2.7706,-2.6029,-2.5668,-2.5636,-2.5625,-2.5589,-2.5576,-2.5604,-2.5561,-2.5515,-2.5504,-2.5473,-2.48,-2.3108,-2.2934,-2.2243,-2.054,-2.0399,-2.0379,-2.0328,-2.0327,-2.0306,-2.0231,-2.0277,-2.0308,-2.0312,-2.0242,-2.0231,-2.0231,-2.0184,-2.0186,-2.023,-2.0214,-2.0203,-2.9051,-2.9562,-2.9793,-3.0606,-3.0206,-2.9591,0.0,0.0,-2.8283,-2.8283,-2.8283,-2.8283,-2.8283,-2.8283,-2.8555,-2.9366,-2.9547,0.0,0.0,0.0,0.0,0.0,0.0,0.0,0.0,-3.5489,-3.5999,-3.5991,-3.5991,0.0,-3.6005,-3.6009,-3.5995,-3.5995,-3.5993,-3.5994,-3.5996,-3.5995,-3.5995,-3.5996,-3.5995,-3.5995,-3.5936,-3.4195,-3.3393,-3.3354,-3.2497,-3.2128,-3.2186,-3.3046,-3.2889,-3.2106,-3.21,-3.1567,-3.0801,-3.0801,-3.0801,-3.0799,-3.0794,-3.0807,-3.0798,-3.0806,-3.0793,-3.0799,-3.0799,-3.0799,-3.0799,-3.0799,-3.0799,-3.0799,-3.0799,-3.0799,-3.0799,-3.0799,-3.0799,-3.0321,-2.8587,-2.8197,-2.7709,-2.6027,-2.5698,-2.5698,-2.5698,-2.5703,-2.5681,-2.5619,-2.5593,-2.5574,-2.551,-2.5571,-2.4934,-2.3187,-2.3009,-2.2294,-2.0547,-2.0399,-2.0398,-2.0394,-2.0396,-2.0372,-2.0308,-2.0308,-2.0294,-2.0312,-2.0294,-2.0295,-2.0294,-2.0292,-2.0292,-2.0294,-2.0231,-2.0242,-2.8369,-2.87,-2.8775,-2.9023,-2.9344,-2.9447,-2.882,0.0,-2.9025,-2.842,-2.8771,-2.9181,-2.9181,-2.963,-3.0096,-3.035,-3.0401,0.0,0.0,0.0,0.0,0.0,0.0,0.0,0.0,0.0,-3.6003,-3.6007,-3.5992,-3.5994,-3.5993,-3.5994,-3.5971,-3.5938,-3.5974,-3.5995,-3.5991,-3.5995,-3.5995,-3.5994,-3.5409,-3.4802,-3.4171,-3.3027,-3.2187,-3.1619,-3.1327,-3.1543,-3.209,-3.1797,-3.1875,-3.2109,-3.152,-3.1107,-3.0873,-3.0868,-3.0847,-3.0806,-3.0801,-3.0791,-3.0798,-3.0806,-3.0793,-3.0799,-3.0799,-3.0799,-3.0799,-3.0799,-3.0799,-3.0799,-3.0799,-3.0799,-3.0799,-3.0799,-3.0799,-3.0321,-2.8587,-2.8197,-2.7709,-2.6027,-2.5696,-2.5693,-2.5698,-2.5701,-2.5681,-2.5679,-2.5676,-2.5668,-2.5636,-2.5621,-2.518,-2.4066,-2.3917,-2.2941,-2.0609,-2.0394,-2.0402,-2.0394,-2.0404,-2.0386,-2.0379,-2.0314,-2.0306,-2.0296,-2.0306,-2.0301,-2.0294,-2.0301,-2.0301,-2.0294,-2.0227,-2.0246,0.0,-2.7813,-2.7966,-2.8583,-2.8925,0.0,0.0,0.0,-2.9533,-2.9298,-2.9669,-3.004,-3.004,-3.0467,-3.0799,-3.0799,-3.0804,0.0,0.0,0.0,0.0,0.0,0.0,0.0,0.0,-3.5974,-3.5999,-3.6001,-3.6007,-3.6009,-3.6007,-3.6007,-3.5977,-3.5895,-3.5977,-3.6007,-3.6001,-3.5964,-3.5808,-3.5474,-3.5257,-3.4708,-3.3863,-3.3326,-3.2606,-3.1762,-3.1436,-3.1401,0.0,-3.1071,-3.1171,-3.1621,-3.1074,-3.0859,-3.0859,-3.0857,-3.0835,-3.0793,-3.0827,-3.0816,-3.0804,-3.0798,-3.0806,-3.0798,-3.0798,-3.0793,-3.0808,-3.0808,-3.0793,-3.0793,-3.0808,-3.0808,-3.0808,-3.0804,-3.0799,-3.0321,-2.8587,-2.82,-2.7693,-2.6032,-2.5701,-2.5698,-2.5701,-2.5703,-2.5703,-2.5707,-2.5705,-2.5701,-2.5701,-2.5671,-2.533,-2.4492,-2.4362,-2.3548,-2.159,-2.1128,-2.0789,-2.0468,-2.0446,-2.0429,-2.0392,-2.0366,-2.0328,-2.0306,-2.0327,-2.0334,-2.0334,-2.0334,-2.0334,-2.034,-2.0277,-2.0258,0.0,-2.6903,0.0,0.0,0.0,0.0,0.0,0.0,0.0,-3.0645,-3.0801,-3.0801,-3.0801,-3.0796,-3.0791,-3.0791,0.0,0.0,0.0,0.0,0.0,0.0,0.0,0.0,-3.5812,-3.6004,-3.6001,-3.5988,-3.5991,-3.6007,-3.5997,-3.5997,-3.5966,-3.5889,-3.5892,-3.5893,-3.5913,-3.5861,-3.5385,-3.4511,-3.5346,-3.5291,-3.4521,-3.4518,-3.4069,-3.3256,-3.2397,-3.1587,-3.0892,-3.0825,-3.081,-3.0798,-3.0793,-3.0793,-3.0797,-3.08,-3.0801,-3.0819,-3.0873,-3.0845,-3.0796,-3.0794,-3.0807,-3.0798,-3.0798,-3.079,-3.0802,-3.0802,-3.081,-3.0794,-3.0802,-3.0802,-3.0798,-3.0804,-3.0799,-3.0341,-2.8665,-2.8298,-2.7797,-2.6113,-2.5785,-2.5765,-2.5707,-2.5707,-2.5707,-2.5707,-2.5707,-2.5705,-2.5701,-2.5705,-2.5393,-2.4586,-2.4486,-2.4132,-2.3269,-2.2341,-2.1448,-2.0648,-2.0531,-2.0473,-2.0396,-2.0399,-2.0369,-2.0308,-2.0379,-2.0399,-2.0405,-2.0398,-2.0404,-2.041,-2.0321,-2.0295,-2.5866,0.0,-2.6268,-2.7324,-2.7917,0.0,0.0,0.0,0.0,0.0,0.0,0.0,0.0,0.0,0.0,0.0,0.0,0.0,0.0,0.0,0.0,0.0,-3.4288,-3.4709,-3.5821,-3.5974,-3.5974,-3.5923,-3.5974,-3.5978,-3.5938,-3.5919,-3.5929,-3.5889,-3.5276,-3.4944,-3.5009,-3.4992,-3.4544,-3.3685,-3.39,-3.3542,-3.2713,-3.2706,-3.2602,-3.2357,-3.148,-3.1367,-3.1737,-3.1064,-3.0799,-3.0808,-3.081,-3.0808,-3.0806,-3.0793,-3.0793,-3.0793,-3.082,-3.0818,-3.0793,-3.0791,-3.0804,-3.0807,-3.0801,-3.079,-3.0802,-3.0794,-3.079,-3.0806,-3.0802,-3.0802,-3.0798,-3.0804,-3.0799,-3.0511,-2.9437,-2.9188,-2.8704,-2.7025,-2.6696,-2.6481,-2.5805,-2.5707,-2.5707,-2.5707,-2.5707,-2.5707,-2.5705,-2.5707,-2.5629,-2.5412,-2.5393,-2.5037,-2.4171,-2.2689,-2.171,-2.1519,-2.0861,-2.0473,-2.041,-2.0388,-2.0396,-2.0379,-2.0386,-2.0405,-2.0404,-2.0392,-2.0392,-2.041,-2.0334,-2.0328,-2.5604,-2.592,-2.6455,-2.7336,-2.8182,-2.9012,0.0,0.0,0.0,0.0,0.0,0.0,0.0,0.0,0.0,0.0,-3.071,0.0,0.0,0.0,0.0,0.0,-3.46,-3.4948,0.0,-3.5919,-3.5938,-3.5899,-3.5934,-3.5934,-3.5899,-3.551,-3.5295,-3.5304,-3.4856,-3.4613,-3.4651,-3.4269,-3.3645,-3.2806,-3.3177,-3.29,-3.2116,-3.2518,-3.2475,-3.2084,-3.1991,-3.201,-3.2054,-3.1566,-3.1379,-3.1351,-3.096,-3.0804,-3.0801,-3.0794,-3.0796,-3.0801,-3.0797,-3.0801,-3.08,-3.0795,-3.0792,-3.079,-3.0796,-3.0794,-3.0796,-3.0807,-3.0801,-3.0798,-3.0798,-3.0798,-3.0794,-3.0802,-3.0793,-3.0559,-2.9694,-2.9499,-2.8996,-2.7337,-2.7005,-2.6715,-2.5845,-2.5709,-2.5707,-2.5707,-2.5707,-2.5707,-2.5707,-2.5707,-2.5707,-2.5709,-2.5691,-2.5357,-2.4477,-2.3161,-2.223,-2.1834,-2.099,-2.0488,-2.0443,-2.0449,-2.0429,-2.0402,-2.0421,-2.0432,-2.0404,-2.0408,-2.0427,-2.0448,-2.0377,-2.0363,-2.56,-2.6242,-2.7118,-2.798,-2.8855,-2.9721,0.0,0.0,0.0,0.0,0.0,0.0,0.0,0.0,0.0,0.0,0.0,0.0,0.0,0.0,0.0,-3.4601,-3.4806,0.0,-3.5827,-3.5909,-3.5904,-3.5903,-3.5903,-3.5903,-3.5897,-3.5059,-3.4573,-3.4573,-3.4344,-3.4266,-3.4397,-3.3662,-3.2825,-3.1909,-3.2591,-3.2635,-3.2123,-3.2864,-3.2942,-3.2502,-3.3064,-3.2908,-3.2264,-3.2074,-3.1957,-3.1807,-3.1072,-3.0794,-3.0799,-3.0806,-3.0798,-3.0791,-3.081,-3.0798,-3.08,-3.08,-3.08,-3.0801,-3.0793,-3.0796,-3.0799,-3.0806,-3.0799,-3.0796,-3.0794,-3.0794,-3.0791,-3.0801,-3.079,-3.0591,-2.9858,-2.9698,-2.9191,-2.7518,-2.7203,-2.6871,-2.5868,-2.5693,-2.5709,-2.5709,-2.5709,-2.5709,-2.5709,-2.5709,-2.5691,-2.5693,-2.5694,-2.5344,-2.4468,-2.3608,-2.2722,-2.1876,-2.0996,-2.05,-2.0492,-2.0492,-2.0472,-2.0418,-2.0478,-2.0473,-2.0419,-2.0405,-2.043,-2.0506,-2.0444,-2.042,-2.5605,-2.6237,-2.7101,-2.7985,-2.8856,-2.9702,0.0,0.0,0.0,0.0,0.0,0.0,0.0,0.0,-3.0618,0.0,0.0,-3.2039,0.0,0.0,-3.452,-3.5566,0.0,-3.5741,-3.5889,-3.5904,-3.5894,-3.5892,-3.5911,-3.5872,-3.5815,-3.4987,-3.452,-3.452,-3.3148,-3.2752,-3.3485,-3.3359,-3.2538,-3.0994,-3.1111,-3.15,-3.2109,-3.2245,-3.2989,-3.4173,-3.3563,-3.3232,-3.307,-3.2299,-3.1572,-3.0909,-3.0767,-3.0759,-3.0808,-3.0794,-3.0804,-3.0798,-3.0807,-3.0806,-3.0793,-3.0796,-3.0796,-3.0795,-3.08,-3.08,-3.08,-3.08,-3.0796,-3.0806,-3.0796,-3.0794,-3.0791,-3.0801,-3.0798,-3.0758,-3.0622,-3.0595,-3.0108,-2.8435,-2.8101,-2.7596,-2.597,-2.5699,-2.5697,-2.5693,-2.5697,-2.5697,-2.5693,-2.5697,-2.5697,-2.5694,-2.5697,-2.5347,-2.4464,-2.361,-2.2751,-2.1946,-2.1019,-2.0494,-2.0503,-2.049,-2.0496,-2.0483,-2.0488,-2.0488,-2.0488,-2.0434,-2.0419,-2.0511,-2.0484,-2.0472,-2.5538,-2.6461,-2.7551,-2.7977,-2.8773,-2.9531,0.0,0.0,0.0,0.0,0.0,0.0,0.0,0.0,-3.0618,-3.0634,0.0,-3.1499,-3.2426,-3.3308,-3.4171,0.0,0.0,-3.5885,-3.5852,-3.584,-3.5852,-3.585,-3.585,-3.5834,-3.5799,-3.4964,-3.4497,-3.4497,-3.3762,-3.3342,-3.3296,-3.3725,-3.3128,-3.15,-3.15,-3.1714,-3.2104,-3.2552,-3.2936,-3.3251,-3.3291,-3.3031,-3.2578,-3.2169,-3.1767,-3.1364,-3.0915,-3.0769,-3.0794,-3.0794,-3.0804,-3.0793,-3.0806,-3.0801,-3.0794,-3.081,-3.0791,-3.0796,-3.0801,-3.0804,-3.0806,-3.0796,-3.08,-3.08,-3.0796,-3.0796,-3.0796,-3.0806,-3.0806,-3.0806,-3.0799,-3.0807,-3.03,-2.8623,-2.8303,-2.7752,-2.5993,-2.5701,-2.5699,-2.5698,-2.5699,-2.5699,-2.5698,-2.5699,-2.57,-2.5699,-2.5272,-2.4648,-2.3769,-2.293,-2.209,-2.1248,-2.0753,-2.0508,-2.0497,-2.05,-2.0503,-2.05,-2.0495,-2.0495,-2.0492,-2.0469,-2.046,-2.0506,-2.0506,-2.0509,-2.5461,-2.6348,-2.7354,-2.7625,0.0,0.0,0.0,0.0,0.0,0.0,0.0,0.0,0.0,-3.0606,0.0,-3.0602,-3.0784,-3.1158,-3.1829,-3.2725,-3.3595,-3.4435,-3.5138,-3.5624,-3.5799,-3.5799,-3.5799,-3.5799,-3.5799,-3.5799,-3.5799,-3.4964,-3.4497,-3.4497,-3.4323,-3.4012,-3.3584,-3.4012,-3.3595,-3.238,-3.238,-3.2478,-3.2692,-3.329,-3.3231,-3.2706,-3.3304,-3.2986,-3.1994,-3.1994,-3.1877,-3.1625,-3.1031,-3.0789,-3.0799,-3.0799,-3.0808,-3.0793,-3.0804,-3.0793,-3.0806,-3.0804,-3.0789,-3.0786,-3.081,-3.081,-3.0794,-3.0799,-3.0808,-3.0793,-3.08,-3.08,-3.08,-3.08,-3.08,-3.08,-3.0797,-3.0792,-3.0359,-2.8885,-2.8431,-2.7783,-2.6269,-2.5839,-2.5702,-2.5702,-2.5702,-2.5701,-2.5701,-2.5701,-2.5702,-2.5702,-2.4922,-2.3964,-2.2887,-2.2223,-2.1503,-2.0644,-2.0544,-2.0519,-2.0497,-2.0519,-2.0519,-2.051,-2.0503,-2.0506,-2.05,-2.0497,-2.0492,-2.0492,-2.0527,-2.0511,-2.541,-2.5453,-2.5697,-2.658,-2.8672,0.0,-3.0505,-3.0552,0.0,-3.0616,0.0,0.0,0.0,-3.0595,-3.0602,-3.0604,-3.1332,-3.1921,-3.1987,0.0,-3.3619,-3.449,-3.4605,-3.4933,-3.5721,-3.5799,-3.5799,-3.5799,-3.5799,-3.5799,-3.5799,-3.4964,-3.4497,-3.4497,-3.3779,-3.372,-3.44,-3.372,-3.3332,-3.3204,-3.3204,-3.3592,-3.433,-3.4389,-3.4369,-3.433,-3.4389,-3.3495,-3.1992,-3.1992,-3.1518,-3.0785,-3.0723,-3.0761,-3.0808,-3.0799,-3.0799,-3.0804,-3.0799,-3.0794,-3.0808,-3.0808,-3.0759,-3.0714,-3.0779,-3.0799,-3.0799,-3.0794,-3.0806,-3.0806,-3.0792,-3.0797,-3.0797,-3.0797,-3.0799,-3.08,-3.0798,-3.08,-3.0547,-2.9668,-2.8808,-2.7929,-2.707,-2.6248,-2.5702,-2.5703,-2.5703,-2.5703,-2.5702,-2.5703,-2.5703,-2.5703,-2.4922,-2.3729,-2.2045,-2.1845,-2.1455,-2.0659,-2.0605,-2.0566,-2.0502,-2.056,-2.0552,-2.0506,-2.0492,-2.0489,-2.05,-2.0497,-2.0504,-2.0499,-2.0557,-2.0581,-2.5332,-2.5678,-2.6264,-2.7219,-2.8589,0.0,0.0,-3.021,-3.0597,-3.0598,-3.0559,0.0,0.0,0.0,-3.0593,-3.0593,-3.0933,-3.1183,-3.119,-3.1948,-3.2601,-3.294,-3.3444,-3.3876,-3.4206,-3.4245,-3.4245,-3.4245,-3.4711,-3.4983,-3.4983,-3.5197,-3.5313,-3.5313,-3.5002,-3.5002,-3.5313,-3.5002,-3.4847,-3.4847,-3.4303,-3.4206,-3.4517,-3.5061,-3.5002,-3.4459,-3.3973,-3.3099,-3.1972,-3.1416,-3.0989,-3.0697,-3.0755,-3.0773,-3.0808,-3.0799,-3.0799,-3.0799,-3.0799,-3.0799,-3.0794,-3.0759,-3.0753,-3.0759,-3.0739,-3.0734,-3.0759,-3.0789,-3.0804,-3.0804,-3.0807,-3.0794,-3.0794,-3.0806,-3.0804,-3.0801,-3.0808,-3.0793,-3.0542,-2.9697,-2.8818,-2.7764,-2.6412,-2.5878,-2.5444,-2.4918,-2.5291,-2.5644,-2.5642,-2.567,-2.5694,-2.5696,-2.4445,-2.2902,-2.1205,-2.1021,-2.088,-2.0615,-2.0601,-2.0585,-2.0566,-2.0546,-2.0521,-2.0495,-2.0508,-2.0506,-2.049,-2.0534,-2.056,-2.0566,-2.0586,-2.0605,-2.525,-2.5661,-2.6304,-2.7236,0.0,0.0,-2.9197,-2.996,-3.0598,-3.0598,-3.0559,-3.053,-3.0501,0.0,0.0,0.0,-3.0645,-3.0683,-3.0704,-3.1215,-3.17,-3.1974,-3.2524,-3.3002,-3.3274,-3.3293,-3.3293,-3.3293,-3.3818,-3.4109,-3.4109,-3.4692,-3.5022,-3.5022,-3.5255,-3.5391,-3.5391,-3.5663,-3.5799,-3.5799,-3.4925,-3.4633,-3.4925,-3.5236,-3.4925,-3.407,-3.3254,-3.24,-3.1545,-3.0957,-3.0704,-3.0711,-3.0724,-3.0755,-3.0773,-3.0778,-3.0764,-3.0769,-3.0769,-3.0764,-3.0759,-3.0722,-3.0736,-3.0761,-3.0716,-3.0691,-3.0716,-3.0764,-3.0764,-3.0764,-3.0798,-3.0798,-3.0802,-3.0801,-3.0801,-3.0794,-3.0804,-3.0794,-3.0621,-3.003,-2.921,-2.8154,-2.6721,-2.6224,-2.5625,-2.4468,-2.4803,-2.5196,-2.5192,-2.4996,-2.4851,-2.4874,-2.3801,-2.2635,-2.1489,-2.1108,-2.0928,-2.0976,-2.0728,-2.0576,-2.0601,-2.0566,-2.0527,-2.0526,-2.0522,-2.0521,-2.0523,-2.0584,-2.0605,-2.0604,-2.0604,-2.0602,-2.5172,-2.521,-2.5413,0.0,0.0,0.0,-2.9003,-2.9922,-3.0598,-3.0598,-3.0598,-3.0588,-3.052,-3.054,0.0,-3.0598,-3.0595,-3.0618,-3.0683,-3.0695,-3.1025,-3.1877,-3.198,-3.2341,-3.3196,-3.3274,-3.3274,-3.3274,-3.3274,-3.3293,-3.3293,-3.3293,-3.3293,-3.3293,-3.407,-3.4497,-3.4497,-3.5333,-3.5771,-3.5752,-3.4905,-3.4944,-3.576,-3.4886,-3.4051,-3.3254,-3.238,-3.1506,-3.071,-3.069,-3.069,-3.069,-3.0626,-3.0642,-3.0691,-3.0691,-3.0704,-3.0703,-3.0703,-3.071,-3.0691,-3.0691,-3.0704,-3.0697,-3.0711,-3.0691,-3.0698,-3.0697,-3.0703,-3.0722,-3.0784,-3.0794,-3.0799,-3.0799,-3.0793,-3.0798,-3.0804,-3.0793,-3.0806,-3.0807,-3.0108,-2.923,-2.8349,-2.7461,-2.6314,-2.455,-2.4296,-2.4308,-2.4288,-2.3533,-2.3033,-2.3088,-2.3082,-2.3098,-2.3082,-2.2302,-2.1798,-2.1798,-2.0982,-2.0545,-2.0598,-2.0601,-2.0602,-2.0604,-2.0604,-2.0605,-2.0605,-2.0604,-2.0604,-2.0605,-2.0602,-2.0599,-2.5184,-2.5658,0.0,-2.7262,0.0,0.0,0.0,-3.0297,0.0,0.0,-3.054,-3.0519,-3.0449,-3.0481,0.0,-3.053,-3.053,-3.0548,-3.0621,-3.0585,-3.0662,-3.0986,-3.1017,-3.1114,-3.1385,-3.1394,-3.1402,-3.1402,-3.1964,-3.2313,-3.2316,-3.2859,-3.3149,-3.3149,-3.3382,-3.3546,-3.3583,-3.3835,-3.3943,-3.3905,-3.3634,-3.399,-3.4866,-3.4031,-3.3499,-3.3172,-3.2299,-3.1786,-3.1499,-3.0889,-3.0637,-3.0626,-3.061,-3.0645,-3.0703,-3.0704,-3.0698,-3.0704,-3.0704,-3.0704,-3.071,-3.071,-3.069,-3.0685,-3.0642,-3.0656,-3.0697,-3.0704,-3.0698,-3.0704,-3.0722,-3.0734,-3.0739,-3.0794,-3.0804,-3.0804,-3.0804,-3.0804,-3.0808,-3.0798,-3.0098,-2.9026,-2.7537,-2.7023,-2.623,-2.4484,-2.4219,-2.4019,-2.339,-2.3622,-2.3406,-2.2247,-2.2667,-2.278,-2.217,-2.1889,-2.1749,-2.18,-2.1565,-2.1152,-2.0545,-2.0531,-2.0534,-2.0536,-2.0578,-2.0578,-2.0534,-2.0533,-2.0529,-2.0523,-2.0521,-2.0525,-2.5645,-2.6305,0.0,-2.7677,-2.8472,-2.9325,-3.0194,0.0,0.0,0.0,0.0,-3.0499,-3.0458,-3.046,0.0,-3.0509,-3.0491,-3.0501,-3.0558,-3.054,-3.052,-3.0595,-3.0586,-3.0567,-3.0567,-3.0557,-3.0565,-3.0593,-3.1086,-3.1388,-3.137,-3.1835,-3.2086,-3.2077,-3.2406,-3.259,-3.2647,-3.2996,-3.3141,-3.3103,-3.2755,-3.2879,-3.3408,-3.2943,-3.2729,-3.2643,-3.1751,-3.1374,-3.1338,-3.0817,-3.0595,-3.0595,-3.0595,-3.0613,-3.0657,-3.0649,-3.0664,-3.0664,-3.069,-3.0704,-3.0704,-3.0661,-3.0688,-3.0683,-3.0618,-3.0626,-3.0668,-3.0668,-3.0683,-3.0697,-3.0698,-3.0704,-3.0716,-3.0739,-3.0769,-3.0794,-3.0794,-3.0799,-3.0799,-3.0799,-3.038,-2.9561,-2.8163,-2.788,-2.7115,-2.5031,-2.4096,-2.3211,-2.2023,-2.2629,-2.2772,-2.1779,-2.2136,-2.2375,-2.2226,-2.1905,-2.1867,-2.2251,-2.1632,-2.1184,-2.1029,-2.0714,-2.0525,-2.0504,-2.0547,-2.0543,-2.0494,-2.0497,-2.0492,-2.05,-2.0503,-2.0509,-2.6359,0.0,0.0,0.0,0.0,0.0,-3.0117,0.0,-3.0417,-3.0469,0.0,-3.0499,-3.0499,-3.0499,-3.0499,-3.0499,-3.0499,-3.049,-3.0501,-3.0482,-3.0501,-3.0577,-3.052,-3.0492,-3.0492,-3.0492,-3.053,-3.0586,-3.0595,-3.0595,-3.0595,-3.0586,-3.0558,-3.0492,-3.1255,-3.1681,-3.1681,-3.2474,-3.2861,-3.2841,-3.2048,-3.1681,-3.1661,-3.1748,-3.1786,-3.1734,-3.0931,-3.0593,-3.0595,-3.0595,-3.0597,-3.0598,-3.0598,-3.0588,-3.0595,-3.0593,-3.0602,-3.061,-3.0673,-3.07,-3.0692,-3.061,-3.0645,-3.07,-3.061,-3.061,-3.061,-3.0602,-3.0637,-3.068,-3.0683,-3.0697,-3.0691,-3.0691,-3.0748,-3.0784,-3.0784,-3.0789,-3.0794,-3.0794,-3.0789,-3.0506,-2.9638,-2.9434,-2.8501,-2.589,-2.3964,-2.2211,-2.0631,-2.1109,-2.1562,-2.1501,-2.1552,-2.1959,-2.2797,-2.2144,-2.2034,-2.2815,-2.1454,-2.0934,-2.164,-2.0976,-2.056,-2.0497,-2.0494,-2.0492,-2.0503,-2.0497,-2.0494,-2.0494,-2.0494,-2.0497,0.0,-2.7498,0.0,0.0,0.0,0.0,0.0,-2.9867,-3.034,-3.0417,-3.0425,-3.0421,-3.0421,-3.0421,-3.0421,-3.0421,-3.0421,-3.0414,-3.0425,-3.0414,-3.0433,-3.0436,-3.0428,-3.0419,-3.0419,-3.0462,-3.0511,-3.0511,-3.0578,-3.0578,-3.0511,-3.052,-3.051,-3.05,-3.0634,-3.073,-3.077,-3.0963,-3.103,-3.0989,-3.0797,-3.07,-3.07,-3.083,-3.0875,-3.0875,-3.0683,-3.0588,-3.0607,-3.054,-3.054,-3.0598,-3.053,-3.054,-3.0588,-3.0595,-3.0604,-3.0604,-3.0629,-3.0665,-3.0692,-3.061,-3.0653,-3.0695,-3.0618,-3.0637,-3.0665,-3.061,-3.061,-3.061,-3.0618,-3.0653,-3.0688,-3.0634,-3.0665,-3.0728,-3.0728,-3.0716,-3.073,-3.073,-3.073,-3.0445,-2.9564,-2.9421,-2.8492,-2.5824,-2.394,-2.2414,-2.1378,-2.1416,-2.127,-2.0643,-2.1178,-2.1675,-2.1883,-2.1724,-2.1687,-2.1894,-2.2191,-2.1859,-2.074,-2.0585,-2.0513,-2.0509,-2.049,-2.0499,-2.0496,-2.0495,-2.0506,-2.0506,-2.0506,-2.0504,0.0,0.0,0.0,0.0,0.0,0.0,0.0,0.0,-3.0316,-3.0383,-3.039,-3.0398,-3.0398,-3.0398,-3.0398,-3.0398,-3.0398,-3.0398,-3.0398,-3.0398,-3.0398,-3.0398,-3.0402,-3.0394,-3.0394,-3.0436,-3.0439,-3.046,-3.0471,-3.049,-3.046,-3.0449,-3.0458,-3.0455,-3.0425,-3.0414,-3.0455,-3.0455,-3.0425,-3.0394,-3.0394,-3.0394,-3.0398,-3.0501,-3.0568,-3.0597,-3.0607,-3.0569,-3.0559,-3.0559,-3.0559,-3.0559,-3.0559,-3.0569,-3.0598,-3.0606,-3.0595,-3.0606,-3.0604,-3.0629,-3.0637,-3.0621,-3.0645,-3.0688,-3.0618,-3.061,-3.0637,-3.061,-3.061,-3.0645,-3.0645,-3.068,-3.0695,-3.0661,-3.0671,-3.0698,-3.0704,-3.0704,-3.0704,-3.0704,-3.0697,-3.0547,-3.0067,-2.9602,-2.8545,-2.6313,-2.4831,-2.3352,-2.1662,-2.1451,-2.1171,-2.0381,-2.1051,-2.1405,-2.1001,-2.171,-2.2003,-2.1615,-2.2028,-2.1907,-2.1055,-2.0667,-2.0463,-2.0506,-2.0496,-2.0508,-2.0508,-2.0502,-2.0507,-2.0507,-2.0507,-2.0502,0.0,0.0,0.0,0.0,0.0,0.0,0.0,0.0,-3.0292,-3.0367,-3.0398,-3.0398,-3.0398,-3.0398,-3.0398,-3.0398,-3.0398,-3.0398,-3.0398,-3.0398,-3.0398,-3.0398,-3.0398,-3.0398,-3.0398,-3.041,-3.0402,-3.0398,-3.0398,-3.0428,-3.0428,-3.0417,-3.0406,-3.039,-3.041,-3.0398,-3.0398,-3.0398,-3.0398,-3.0398,-3.0398,-3.0402,-3.0398,-3.046,-3.052,-3.0569,-3.0569,-3.0559,-3.052,-3.0588,-3.0569,-3.052,-3.0588,-3.0598,-3.0598,-3.0606,-3.0597,-3.0598,-3.0606,-3.0604,-3.0602,-3.0604,-3.0649,-3.0692,-3.0637,-3.061,-3.061,-3.061,-3.0645,-3.0673,-3.0673,-3.0688,-3.0683,-3.0676,-3.0676,-3.0695,-3.07,-3.0688,-3.0676,-3.0676,-3.068,-3.0665,-3.0587,-2.9812,-2.8657,-2.7055,-2.5887,-2.433,-2.1914,-2.1484,-2.11,-2.0356,-2.0864,-2.0979,-2.0334,-2.168,-2.2274,-2.1629,-2.171,-2.1767,-2.1687,-2.1004,-2.0576,-2.0472,-2.0476,-2.0476,-2.0472,-2.0473,-2.0483,-2.0478,-2.0483,-2.0488,0.0,0.0,0.0,0.0,0.0,0.0,0.0,0.0,-3.0234,0.0,-3.0362,-3.0398,-3.0398,-3.0398,-3.0398,-3.0398,-3.0398,-3.0398,-3.0398,-3.0398,-3.0398,-3.0398,-3.0398,-3.0398,-3.0398,-3.0394,-3.0386,-3.0398,-3.0439,-3.0499,-3.0499,-3.0428,-3.0398,-3.0406,-3.0402,-3.0398,-3.0398,-3.0398,-3.0398,-3.0398,-3.0398,-3.0402,-3.0398,-3.0409,-3.0449,-3.0501,-3.0501,-3.053,-3.0588,-3.0598,-3.0598,-3.0588,-3.0598,-3.0598,-3.0598,-3.0598,-3.0598,-3.0598,-3.0606,-3.0604,-3.0604,-3.0593,-3.0657,-3.07,-3.0692,-3.0692,-3.0692,-3.0692,-3.0645,-3.061,-3.0613,-3.0602,-3.0602,-3.0606,-3.0615,-3.0621,-3.0692,-3.0657,-3.0613,-3.0613,-3.0615,-3.0597,-3.051,-2.9776,-2.884,-2.7806,-2.6252,-2.452,-2.2679,-2.1778,-2.1004,-2.0203,-2.0231,-2.0278,-2.022,-2.1063,-2.1579,-2.1517,-2.2226,-2.2329,-2.1632,-2.1559,-2.1184,-2.0421,-2.0418,-2.0418,-2.0402,-2.0413,-2.0413,-2.0416,-2.0413,-2.0399,-2.7115,0.0,0.0,0.0,0.0,0.0,0.0,0.0,-3.0221,-3.0234,-3.0292,-3.0343,-3.0336,-3.0348,-3.0367,-3.0379,-3.0398,-3.0398,-3.0398,-3.0398,-3.0398,-3.0398,-3.0398,-3.0398,-3.0398,-3.0402,-3.0402,-3.0402,-3.0425,-3.0444,-3.0444,-3.0414,-3.0402,-3.0402,-3.039,-3.0398,-3.0398,-3.0398,-3.0398,-3.0398,-3.0398,-3.039,-3.0402,-3.0402,-3.0436,-3.05,-3.051,-3.052,-3.0559,-3.0569,-3.0598,-3.0598,-3.0598,-3.0598,-3.0598,-3.0598,-3.0598,-3.0598,-3.0588,-3.0606,-3.0604,-3.0604,-3.0621,-3.0637,-3.0637,-3.0673,-3.07,-3.0645,-3.0645,-3.0637,-3.0621,-3.0593,-3.0604,-3.0606,-3.0597,-3.0606,-3.0643,-3.0597,-3.053,-3.054,-3.051,-3.0471,-3.0451,-3.0122,-2.9404,-2.7958,-2.7086,-2.5623,-2.2882,-2.2212,-2.1499,-2.0222,-2.0088,-2.0117,-2.0145,-2.0919,-2.1215,-2.08,-2.1596,-2.1718,-2.0905,-2.085,-2.0692,-2.0352,-2.0379,-2.0379,-2.0347,-2.0334,-2.0334,-2.0347,-2.0379,-2.0396,0.0,0.0,0.0,0.0,0.0,0.0,0.0,0.0,-3.0147,0.0,-3.0207,-3.0247,-3.0267,-3.0292,-3.0323,-3.0374,-3.0355,-3.0355,-3.0355,-3.0355,-3.0355,-3.0355,-3.0367,-3.0379,-3.0379,-3.0398,-3.0398,-3.0398,-3.0386,-3.0386,-3.0398,-3.0374,-3.0355,-3.0398,-3.0386,-3.0355,-3.0355,-3.0362,-3.0362,-3.0355,-3.0362,-3.0362,-3.0362,-3.0362,-3.0386,-3.0444,-3.0449,-3.0481,-3.0501,-3.0559,-3.0569,-3.0598,-3.0598,-3.0598,-3.0598,-3.0598,-3.0598,-3.0598,-3.0598,-3.0588,-3.0606,-3.0577,-3.0595,-3.0604,-3.0585,-3.0613,-3.0629,-3.0593,-3.0629,-3.0657,-3.0585,-3.0595,-3.0606,-3.0577,-3.0578,-3.0579,-3.0598,-3.0559,-3.052,-3.05,-3.0469,-3.0428,-3.0398,-3.0394,-2.9867,-2.8281,-2.7842,-2.6593,-2.3553,-2.2756,-2.1939,-2.0527,-2.0193,-2.006,-2.006,-2.0862,-2.112,-2.0526,-2.1119,-2.1222,-2.0595,-2.0345,-2.0211,-2.0277,-2.033,-2.0313,-2.0275,-2.0262,-2.0262,-2.0282,-2.0334,-2.0366,0.0,0.0,0.0,0.0,0.0,0.0,0.0,0.0,0.0,-3.0094,-3.0109,-3.0138,-3.0188,-3.0266,-3.0292,-3.0292,-3.0312,-3.0312,-3.0312,-3.0312,-3.0312,-3.0312,-3.0311,-3.0304,-3.0304,-3.0367,-3.0398,-3.0398,-3.0349,-3.0318,-3.0398,-3.0286,-3.0272,-3.0398,-3.0349,-3.0312,-3.0312,-3.0226,-3.0226,-3.0292,-3.0226,-3.0218,-3.0218,-3.0218,-3.0199,-3.0213,-3.0359,-3.0449,-3.0491,-3.0501,-3.053,-3.0598,-3.0598,-3.0598,-3.0598,-3.0598,-3.0598,-3.0598,-3.0598,-3.0598,-3.0598,-3.053,-3.0559,-3.0598,-3.053,-3.0501,-3.0501,-3.0501,-3.0539,-3.0586,-3.0521,-3.054,-3.0588,-3.0519,-3.0509,-3.0519,-3.0588,-3.0598,-3.0588,-3.052,-3.05,-3.0469,-3.0398,-3.0398,-3.0075,-2.9078,-2.8224,-2.7045,-2.5203,-2.3468,-2.2079,-2.1225,-2.0462,-2.0009,-2.0009,-2.079,-2.1297,-2.1252,-2.133,-2.1388,-2.133,-2.0617,-2.0203,-2.0216,-2.0218,-2.0218,-2.0205,-2.0219,-2.0215,-2.0215,-2.0277,-2.0313,0.0,0.0,0.0,0.0,0.0,0.0,0.0,-2.8962,-2.9387,-2.992,-3.0068,-3.0113,-3.0138,-3.0194,-3.0247,-3.0292,-3.0292,-3.0292,-3.0292,-3.0292,-3.0292,-3.0292,-3.0305,-3.0286,-3.0286,-3.0279,-3.0266,-3.0266,-3.018,-3.0133,-3.0142,-3.0152,-3.0138,-3.0142,-3.0166,-3.0152,-3.0118,-3.0138,-3.0138,-3.0166,-3.0185,-3.0204,-3.0204,-3.0204,-3.0204,-3.0199,-3.0253,-3.0286,-3.0297,-3.0398,-3.0449,-3.049,-3.0579,-3.0598,-3.0598,-3.0598,-3.0569,-3.053,-3.053,-3.054,-3.0519,-3.0447,-3.0458,-3.0449,-3.0386,-3.0409,-3.0441,-3.0441,-3.0481,-3.052,-3.05,-3.049,-3.0479,-3.0439,-3.0428,-3.0449,-3.0519,-3.05,-3.0479,-3.049,-3.0469,-3.0428,-3.0398,-3.0398,-2.989,-2.8389,-2.7892,-2.6848,-2.4493,-2.3638,-2.2704,-2.1346,-2.0948,-2.0551,-2.0042,-2.0285,-2.0477,-2.0467,-2.0527,-2.0556,-2.0499,-2.0269,-2.0144,-2.0136,-2.0145,-2.0117,-2.006,-2.0106,-2.0143,-2.0134,-2.0208,-2.0241,0.0,0.0,0.0,0.0,0.0,0.0,0.0,0.0,-2.8962,-2.9817,-3.0053,-3.0102,-3.0098,-3.0152,-3.0207,-3.0253,-3.0272,-3.0272,-3.0272,-3.0272,-3.0272,-3.0272,-3.0266,-3.0266,-3.024,-3.0213,-3.0185,-3.0138,-3.003,-2.9981,-2.9992,-3.0,-2.9984,-2.9965,-3.0015,-3.003,-2.9992,-3.0,-3.0019,-3.0064,-3.0083,-3.0098,-3.0113,-3.0098,-3.0098,-3.0113,-3.0098,-3.0138,-3.0215,-3.0304,-3.0352,-3.0406,-3.049,-3.055,-3.0569,-3.0598,-3.0559,-3.0491,-3.0491,-3.05,-3.0488,-3.0421,-3.039,-3.0359,-3.0299,-3.0267,-3.0273,-3.0273,-3.0316,-3.0359,-3.0348,-3.0316,-3.0348,-3.0359,-3.0383,-3.0375,-3.0447,-3.0447,-3.0458,-3.0499,-3.0458,-3.0398,-3.0398,-3.0398,-2.9998,-2.8797,-2.8077,-2.7052,-2.5273,-2.4265,-2.3171,-2.1751,-2.1372,-2.0868,-2.0047,-1.9998,-2.0114,-2.0416,-2.0211,-2.0193,-2.042,-2.0193,-2.0069,-2.0068,-2.0078,-2.003,-2.001,-2.004,-2.0079,-2.0089,-2.0155,-2.0173,0.0,0.0,0.0,0.0,0.0,0.0,-2.7141,0.0,-2.8815,-2.9747,-3.0,-3.0049,-3.0087,-3.0128,-3.0166,-3.0185,-3.0204,-3.0204,-3.0204,-3.0204,-3.0204,-3.0204,-3.0213,-3.018,-3.0109,-3.0157,-3.0123,-2.9992,-2.9918,-2.9921,-2.9977,-2.9855,-2.9823,-2.9888,-2.9888,-2.9937,-2.9992,-2.9855,-2.9857,-3.0007,-2.9945,-2.9893,-2.9907,-2.9893,-2.9893,-2.9907,-2.9893,-3.0003,-3.0182,-3.0202,-3.0267,-3.0379,-3.0394,-3.0449,-3.0491,-3.0559,-3.055,-3.0491,-3.0491,-3.05,-3.0488,-3.0421,-3.0362,-3.0279,-3.0232,-3.009,-2.9992,-2.9992,-3.006,-3.0075,-3.0026,-3.009,-3.0232,-3.0279,-3.0299,-3.0316,-3.0379,-3.0455,-3.0499,-3.0499,-3.0458,-3.0398,-3.0398,-3.0398,-3.0386,-3.0371,-2.884,-2.7687,-2.7669,-2.5368,-2.3411,-2.2521,-2.1713,-2.088,-2.0013,-1.9974,-2.0359,-2.1214,-2.0467,-2.0382,-2.1219,-2.0446,-1.9998,-1.9998,-2.0004,-2.0004,-1.9998,-1.9998,-2.0029,-2.0108,-2.0108,-2.0126,-2.4426,0.0,0.0,0.0,0.0,0.0,0.0,0.0,-2.7834,-2.8678,-2.8933,-2.9209,-2.9848,-2.9469,-2.9257,-2.9939,-3.0128,-3.0204,-3.0204,-3.0204,-3.0204,-3.0204,-3.0094,-3.0049,-3.0019,-2.9872,-2.9769,0.0,-2.9718,-2.9719,-2.979,-2.9756,-2.9737,-2.9734,-2.9773,-2.9755,-2.979,-2.9756,-2.9755,-2.9787,-2.9753,-2.9789,-2.9823,-2.9825,-2.9825,-2.9823,-2.9876,-2.9926,-2.9988,-3.0094,-3.0152,-3.0194,-3.0305,-3.0336,-3.0352,-3.0379,-3.039,-3.0414,-3.0364,-3.0383,-3.0421,-3.0286,-3.0253,-3.0218,-3.0098,-3.0003,-2.9937,-3.0003,-3.0019,-3.0053,-3.0123,-3.0171,-3.0232,-3.0279,-3.0292,-3.0305,-3.0318,-3.033,-3.0379,-3.0488,-3.0458,-3.0398,-3.0398,-3.0398,-3.0194,-2.9552,-2.8464,-2.7452,-2.6772,-2.5389,-2.4195,-2.3409,-2.2499,-2.1644,-2.0902,-2.0289,-2.0025,-2.0263,-2.0107,-2.008,-2.0285,-2.0107,-1.9974,-1.9922,-1.9982,-1.9993,-2.0004,-2.0007,-2.0009,-2.0029,-2.0017,-2.0058,0.0,0.0,0.0,0.0,0.0,0.0,-2.5448,-2.6394,-2.7341,-2.8236,-2.8457,-2.868,-2.9168,-2.8617,-2.8253,-2.8774,-2.8962,-2.9298,-3.0061,-3.0157,-3.0157,-3.0157,-3.0049,-2.9991,-2.9959,-2.977,-2.9663,-2.9664,-2.9626,-2.9626,-2.9701,-2.9701,-2.9701,-2.97,-2.9701,-2.9701,-2.9701,-2.9664,-2.9683,-2.97,-2.97,-2.9718,-2.9754,-2.9754,-2.9771,-2.9808,-2.9806,-2.9842,-2.9859,-2.994,-3.0003,-3.0064,-3.0138,-3.0194,-3.0215,-3.0215,-3.0228,-3.0286,-3.0299,-3.033,-3.0349,-3.0279,-3.0226,-3.0171,-3.0003,-2.9907,-2.9857,-2.9876,-2.9876,-2.9893,-3.0007,-3.0038,-3.0053,-3.0109,-3.0185,-3.0199,-3.0185,-3.0213,-3.0292,-3.0402,-3.0394,-3.0364,-3.0394,-3.0406,-3.0232,-2.9729,-2.8875,-2.8088,-2.7548,-2.6612,-2.5549,-2.4325,-2.3676,-2.2849,-2.1687,-2.1142,-2.086,-2.0854,-2.0922,-2.0946,-2.0903,-2.0613,-2.0448,-2.0429,-2.0119,-1.9971,-1.9996,-1.9996,-1.9996,-1.9996,-1.9993,-2.0015,0.0,0.0,0.0,0.0,0.0,0.0,-2.53,-2.6117,-2.6991,-2.7884,-2.807,-2.8108,-2.8201,-2.7595,-2.7135,-2.7234,-2.7393,-2.8055,-2.9688,-2.9946,-2.998,-3.006,-3.0003,-2.9943,-2.9859,-2.9754,-2.9645,-2.9588,-2.9513,-2.9458,-2.942,-2.942,-2.9457,-2.9551,-2.9551,-2.9589,-2.9701,-2.9626,-2.9626,-2.9701,-2.9664,-2.9664,-2.9699,-2.9699,-2.9736,-2.9773,-2.9717,-2.9736,-2.9773,-2.9773,-2.9859,-2.9991,-2.9991,-3.0003,-3.0079,-3.0052,-3.0047,-3.008,-3.0207,-3.0253,-3.0266,-3.0253,-3.0213,-3.0128,-2.9956,-2.9841,-2.9773,-2.9719,-2.9701,-2.972,-2.9773,-2.9808,-2.9825,-2.9872,-2.9988,-3.0053,-3.0007,-3.0083,-3.0185,-3.0254,-3.026,-3.0323,-3.0367,-3.0371,-3.0375,-3.0386,-2.9663,-2.9102,-2.9087,-2.826,-2.7001,-2.5224,-2.4936,-2.4153,-2.2376,-2.2111,-2.2069,-2.2177,-2.214,-2.2182,-2.2262,-2.1505,-2.1098,-2.1161,-2.033,-1.9941,-1.9988,-2.0004,-1.9993,-1.9993,-1.9982,-1.9982,0.0,0.0,0.0,0.0,0.0,0.0,-2.4121,-2.4959,-2.576,-2.5928,-2.6042,-2.6284,-2.697,-2.6413,-2.608,-2.6786,-2.7531,-2.8239,-2.882,-2.9004,-2.9247,-2.9799,-2.9787,-2.9717,-2.9664,-2.9549,-2.9451,-2.9433,-2.8932,-2.8352,-2.773,-2.7693,-2.7974,-2.8632,-2.8651,-2.8988,-2.9683,-2.9569,-2.955,-2.9607,-2.9511,-2.9531,-2.9608,-2.9608,-2.9645,-2.9645,-2.9683,-2.9683,-2.9645,-2.9645,-2.9719,-2.9842,-2.9842,-2.9859,-2.9841,-2.9786,-2.9801,-2.9867,-2.9891,-2.9956,-3.0034,-3.0003,-2.9956,-2.9926,-2.9859,-2.9773,-2.9719,-2.9683,-2.9701,-2.972,-2.9773,-2.9808,-2.9825,-2.9872,-2.9924,-2.994,-2.9905,-2.9943,-2.9959,-2.9969,-3.0109,-3.0226,-3.0234,-3.0247,-3.0254,-3.0316,-2.9589,-2.9015,-2.9015,-2.8211,-2.7162,-2.6,-2.5194,-2.4279,-2.3145,-2.1801,-2.1321,-2.2077,-2.1465,-2.1365,-2.1943,-2.1316,-2.0928,-2.0872,-2.0294,-1.9971,-1.9922,-1.9966,-2.0007,-2.0007,-1.9934,-1.993,0.0,0.0,0.0,-2.3795,0.0,0.0,0.0,-2.4598,-2.5283,-2.5384,-2.5386,-2.5554,-2.6016,-2.5387,-2.4964,-2.5429,-2.5912,-2.6414,-2.6971,-2.8253,-2.9112,-2.9061,-2.9007,-2.882,-2.8353,-2.824,-2.8368,-2.8779,-2.8559,-2.8221,-2.7826,-2.7806,-2.7805,-2.7805,-2.7805,-2.8199,-2.9044,-2.8971,-2.9157,-2.955,-2.9472,-2.9491,-2.955,-2.955,-2.9588,-2.9607,-2.9607,-2.9569,-2.955,-2.955,-2.9589,-2.9645,-2.9645,-2.9645,-2.9645,-2.9608,-2.9645,-2.9699,-2.9754,-2.9823,-2.9891,-2.9872,-2.9872,-2.9874,-2.9789,-2.9719,-2.9701,-2.9701,-2.9701,-2.972,-2.9738,-2.9756,-2.9774,-2.979,-2.9842,-2.9841,-2.9808,-2.9825,-2.9842,-2.9808,-2.9876,-2.9972,-3.0071,-3.0099,-3.0161,-3.0286,-2.9928,-2.9634,-2.9602,-2.9225,-2.854,-2.7459,-2.6528,-2.5587,-2.4534,-2.3209,-2.2456,-2.2506,-2.2523,-2.249,-2.2406,-2.2099,-2.1535,-2.0662,-2.0087,-1.98,-1.98,-1.99,-1.9945,-1.9945,-1.9911,-1.9889,0.0,0.0,0.0,0.0,0.0,-2.3834,0.0,0.0,0.0,-2.5043,-2.5024,-2.5024,-2.5063,-2.4513,-2.4018,-2.3892,0.0,0.0,0.0,-2.7303,0.0,-2.8073,-2.8017,-2.7755,-2.7028,-2.7121,-2.74,-2.7884,-2.8054,-2.8072,-2.7904,-2.7902,-2.7676,-2.7189,-2.7187,-2.7563,-2.8388,-2.839,-2.8765,-2.9531,-2.9472,-2.9472,-2.9472,-2.9471,-2.9491,-2.9549,-2.9472,-2.9453,-2.9453,-2.9491,-2.9491,-2.9491,-2.9492,-2.9492,-2.9472,-2.9472,-2.9511,-2.9569,-2.9626,-2.9682,-2.9718,-2.9734,-2.9769,-2.9805,-2.9699,-2.9682,-2.9664,-2.9701,-2.9701,-2.9701,-2.9701,-2.9701,-2.9701,-2.9701,-2.9738,-2.9737,-2.9683,-2.9701,-2.9719,-2.9664,-2.9626,-2.9701,-2.9918,-2.9946,-3.0011,-3.0166,-3.0213,-3.018,-3.0161,-3.0182,-2.9789,-2.8707,-2.7805,-2.6808,-2.5671,-2.4598,-2.3732,-2.318,-2.3713,-2.3732,-2.3087,-2.2997,-2.2169,-2.0551,-2.0051,-1.9753,-1.9656,-1.9794,-1.9854,-1.9889,-1.9896,-1.9866,0.0,0.0,0.0,0.0,-2.3786,0.0,0.0,0.0,-2.393,-2.3891,0.0,-2.3961,-2.3912,0.0,0.0,0.0,0.0,0.0,-2.4151,-2.5582,-2.6735,-2.6965,-2.7026,-2.7008,-2.6837,-2.7524,-2.7692,-2.7025,-2.7084,-2.6823,-2.604,-2.611,-2.6463,-2.7101,-2.7099,-2.7528,-2.839,-2.8334,-2.8746,-2.9588,-2.9394,-2.9353,-2.9412,-2.9347,-2.9344,-2.9326,-2.933,-2.933,-2.9344,-2.9386,-2.9427,-2.9427,-2.9491,-2.9472,-2.9412,-2.9412,-2.9411,-2.9427,-2.9429,-2.9431,-2.9453,-2.9453,-2.9474,-2.9551,-2.9589,-2.9607,-2.9626,-2.9664,-2.9701,-2.9701,-2.9701,-2.9701,-2.9701,-2.9701,-2.9664,-2.9626,-2.9607,-2.9531,-2.9453,-2.9433,-2.9431,-2.951,-2.9699,-2.9734,-2.977,-2.9841,-2.9859,-2.9874,-2.9921,-2.9937,-2.9566,-2.8621,-2.7671,-2.6689,-2.5597,-2.4045,-2.3364,-2.393,-2.3399,-2.3249,-2.3674,-2.3077,-2.2045,-2.0623,-2.0523,-2.0178,-1.9513,-1.9604,-1.9738,-1.9896,-1.9844,-1.9788,0.0,0.0,0.0,0.0,0.0,0.0,-2.3765,0.0,-2.3721,0.0,0.0,0.0,0.0,0.0,0.0,0.0,-2.3793,0.0,0.0,0.0,-2.5142,-2.574,0.0,0.0,-2.5333,-2.6036,-2.6593,-2.674,-2.682,-2.6711,-2.6358,-2.6469,-2.6262,-2.5663,-2.6092,-2.6556,-2.7,-2.7397,-2.8016,-2.8858,-2.9189,-2.9353,-2.9353,-2.9265,-2.9262,-2.9302,-2.9265,-2.9243,-2.924,-2.9283,-2.9283,-2.9283,-2.9368,-2.9388,-2.9409,-2.9409,-2.9388,-2.9407,-2.9407,-2.9388,-2.939,-2.9392,-2.9412,-2.9453,-2.9531,-2.955,-2.955,-2.9626,-2.9645,-2.9645,-2.9701,-2.9664,-2.9645,-2.9645,-2.9607,-2.955,-2.955,-2.9453,-2.9412,-2.9412,-2.939,-2.9448,-2.9511,-2.9551,-2.9608,-2.9736,-2.9735,-2.9735,-2.9716,-2.9841,-2.9691,-2.9194,-2.8368,-2.7418,-2.6357,-2.5095,-2.4279,-2.3996,-2.3628,-2.3531,-2.3777,-2.305,-2.2347,-2.1697,-2.1351,-2.0796,-2.0018,-2.0126,-1.9987,-1.9623,-1.9738,-1.9763,-2.4628,0.0,0.0,0.0,0.0,0.0,0.0,0.0,0.0,0.0,0.0,0.0,0.0,0.0,-2.345,0.0,0.0,-2.354,0.0,-2.3443,0.0,0.0,0.0,0.0,0.0,-2.4977,-2.5697,-2.6581,-2.672,-2.678,-2.678,-2.6897,-2.6432,-2.5239,-2.5555,-2.5925,-2.6236,-2.6782,-2.7456,-2.8278,-2.9021,-2.9353,-2.9293,-2.9225,-2.9218,-2.924,-2.92,-2.9178,-2.9156,-2.9178,-2.92,-2.92,-2.9262,-2.9304,-2.9347,-2.9386,-2.9407,-2.9407,-2.9407,-2.9407,-2.9407,-2.939,-2.9411,-2.9411,-2.9453,-2.9472,-2.9492,-2.955,-2.9588,-2.9607,-2.9645,-2.9626,-2.9588,-2.9588,-2.9531,-2.9472,-2.9472,-2.9433,-2.9411,-2.9411,-2.9409,-2.9407,-2.9407,-2.945,-2.9511,-2.9589,-2.9626,-2.9589,-2.9551,-2.9682,-2.9719,-2.9588,-2.8839,-2.7923,-2.6857,-2.5944,-2.4996,-2.3971,-2.3837,-2.3816,-2.3795,-2.3229,-2.279,-2.2533,-2.2075,-2.148,-2.0696,-2.0816,-2.0475,-1.97,-1.9713,-1.9686,0.0,0.0,0.0,-2.4897,0.0,0.0,0.0,0.0,-2.3494,0.0,0.0,0.0,-2.343,-2.3471,-2.3226,0.0,0.0,0.0,0.0,0.0,0.0,0.0,0.0,0.0,0.0,-2.5142,-2.557,-2.6435,-2.6636,-2.6698,-2.6698,-2.682,-2.6841,-2.6727,-2.6061,-2.608,-2.686,-2.6897,-2.7345,-2.8202,-2.8944,-2.9293,-2.9293,-2.9225,-2.9156,-2.9112,-2.9156,-2.9156,-2.9108,-2.9156,-2.92,-2.92,-2.92,-2.92,-2.9222,-2.9347,-2.9407,-2.9407,-2.9407,-2.9407,-2.9407,-2.9407,-2.9407,-2.9388,-2.9392,-2.9412,-2.9412,-2.9472,-2.955,-2.9588,-2.9512,-2.955,-2.9588,-2.9531,-2.9453,-2.9412,-2.9412,-2.939,-2.9407,-2.9407,-2.9407,-2.9407,-2.9407,-2.9407,-2.9407,-2.9407,-2.9407,-2.9409,-2.9412,-2.9412,-2.9433,-2.9492,-2.8726,-2.7809,-2.6776,-2.5962,-2.5035,-2.3971,-2.3896,-2.3876,-2.3795,-2.3771,-2.3389,-2.2612,-2.2517,-2.2139,-2.1459,-2.1534,-2.1187,-2.0453,-1.98,-1.9471,-2.6377,-2.5647,-2.5023,-2.5027,0.0,0.0,0.0,0.0,0.0,0.0,0.0,0.0,0.0,0.0,0.0,0.0,0.0,0.0,0.0,0.0,0.0,0.0,0.0,0.0,0.0,0.0,-2.4678,-2.5517,-2.5168,-2.5395,-2.6518,-2.6182,-2.5985,-2.6004,-2.5764,-2.5523,-2.5316,-2.6358,-2.7046,-2.7363,-2.8663,-2.9291,-2.9286,-2.9178,-2.9112,-2.9089,-2.9085,-2.9044,-2.904,-2.9062,-2.9085,-2.9067,-2.913,-2.9134,-2.9134,-2.9222,-2.9283,-2.9344,-2.9386,-2.9407,-2.9407,-2.9407,-2.9407,-2.9407,-2.9409,-2.9409,-2.939,-2.9433,-2.9433,-2.9412,-2.9433,-2.9433,-2.9394,-2.9373,-2.9372,-2.9409,-2.9409,-2.9388,-2.9407,-2.9407,-2.9407,-2.9386,-2.9344,-2.9344,-2.9344,-2.9386,-2.9407,-2.9368,-2.9347,-2.933,-2.9332,-2.9368,-2.9091,-2.8305,-2.6769,-2.5246,-2.421,-2.3855,-2.3876,-2.3876,-2.3795,-2.3834,-2.3726,-2.3394,-2.3355,-2.2994,-2.2292,-2.2312,-2.1933,-2.1152,-2.042,-1.9822,-2.7247,-2.654,-2.5919,-2.5905,-2.524,0.0,-2.459,0.0,-2.4498,0.0,0.0,0.0,0.0,0.0,0.0,0.0,0.0,0.0,0.0,-2.2473,0.0,0.0,0.0,0.0,0.0,-2.3022,-2.3843,-2.4994,-2.466,-2.4868,-2.5972,-2.5676,-2.5462,-2.554,-2.5245,-2.5171,-2.5263,-2.6339,-2.7007,-2.7322,-2.868,-2.9328,-2.9302,-2.9218,-2.9152,-2.9108,-2.9044,-2.9017,-2.8994,-2.8994,-2.8994,-2.9017,-2.9062,-2.9044,-2.9085,-2.9156,-2.924,-2.9262,-2.9344,-2.9365,-2.9365,-2.9386,-2.9407,-2.9407,-2.9407,-2.9407,-2.9407,-2.937,-2.9332,-2.9293,-2.933,-2.931,-2.931,-2.931,-2.9328,-2.9365,-2.9386,-2.9407,-2.9407,-2.9407,-2.9407,-2.9386,-2.9323,-2.9302,-2.9302,-2.9344,-2.9326,-2.9304,-2.9262,-2.9246,-2.9267,-2.9262,-2.9286,-2.8558,-2.6746,-2.4868,-2.3795,-2.3795,-2.3858,-2.3876,-2.3795,-2.3837,-2.3837,-2.3795,-2.3795,-2.356,-2.3089,-2.3089,-2.2691,-2.193,-2.1443,-2.0806]},{"header":{"parameterUnit":"m.s-1","parameterCategory":1,"la1":30.6,"la2":29.2853,"lo1":-89.7004,"lo2":-87.6739,"dy":0.0162,"dx":0.0183,"nx":112,"ny":82,"refTime":"2023-05-03T18:00:00:Z","depth":0,"parameterNumber":3,"parameterNumberName":"V-component_of_WINDS"},"data":[0.0,0.0,0.0,0.0,0.0,0.0,0.0,0.0,0.0,0.0,0.0,0.0,0.0,0.0,0.0,0.0,0.0,0.0,0.0,0.0,0.0,0.0,0.0,0.0,0.0,0.0,0.0,0.0,0.0,0.0,0.0,0.0,0.0,0.0,0.0,0.0,0.0,0.0,0.0,0.0,0.0,0.0,0.0,0.0,0.0,0.0,0.0,0.0,0.0,0.0,0.0,0.0,0.0,0.0,0.0,0.0,0.0,0.0,0.0,0.0,0.0,0.0,0.0,0.0,0.0,0.0,0.0,0.0,0.0,0.0,0.0,0.0,0.0,0.0,0.0,0.0,0.0,0.0,0.0,0.0,0.0,0.0,0.0,0.0,0.0,0.0,0.0,0.0,0.0,0.0,-1.561,-1.5639,-1.5767,-1.595,-1.6231,-1.6006,-1.5724,-1.5344,0.0,0.0,0.0,0.0,0.0,0.0,0.0,0.0,0.0,0.0,0.0,0.0,0.0,0.0,0.0,0.0,0.0,0.0,0.0,0.0,0.0,0.0,0.0,0.0,0.0,0.0,0.0,0.0,0.0,0.0,0.0,0.0,0.0,0.0,0.0,0.0,0.0,0.0,0.0,0.0,0.0,0.0,0.0,0.0,0.0,0.0,0.0,0.0,0.0,0.0,0.0,0.0,0.0,0.0,0.0,0.0,0.0,0.0,0.0,0.0,0.0,0.0,0.0,0.0,0.0,0.0,0.0,0.0,0.0,0.0,0.0,0.0,0.0,0.0,0.0,0.0,0.0,0.0,0.0,0.0,0.0,0.0,0.0,0.0,0.0,0.0,0.0,0.0,0.0,0.0,0.0,0.0,0.0,0.0,0.0,0.0,0.0,0.0,0.0,0.0,0.0,0.0,0.0,0.0,-1.5566,-1.5754,-1.5996,-1.608,-1.5978,-1.5809,-1.5536,-1.5104,0.0,0.0,0.0,0.0,0.0,0.0,0.0,0.0,0.0,0.0,0.0,0.0,0.0,0.0,0.0,0.0,0.0,0.0,0.0,0.0,0.0,0.0,0.0,0.0,0.0,0.0,0.0,0.0,0.0,0.0,0.0,0.0,0.0,0.0,0.0,0.0,0.0,0.0,0.0,0.0,0.0,0.0,0.0,0.0,0.0,0.0,0.0,0.0,0.0,0.0,0.0,0.0,0.0,0.0,0.0,0.0,0.0,0.0,0.0,0.0,0.0,0.0,0.0,0.0,0.0,0.0,0.0,0.0,0.0,0.0,0.0,0.0,0.0,0.0,0.0,0.0,0.0,0.0,0.0,0.0,0.0,0.0,0.0,0.0,0.0,0.0,0.0,0.0,0.0,0.0,0.0,0.0,0.0,0.0,0.0,0.0,0.0,0.0,0.0,0.0,0.0,0.0,0.0,-1.5133,-1.5403,-1.5624,-1.5536,-1.5522,-1.5566,-1.5389,-1.5013,-1.4438,-1.4219,0.0,0.0,0.0,0.0,0.0,0.0,0.0,0.0,0.0,0.0,0.0,0.0,0.0,0.0,0.0,0.0,0.0,0.0,0.0,0.0,0.0,0.0,0.0,0.0,0.0,0.0,0.0,0.0,0.0,0.0,0.0,0.0,0.0,0.0,0.0,0.0,0.0,0.0,0.0,0.0,0.0,0.0,0.0,0.0,0.0,0.0,0.0,0.0,0.0,0.0,0.0,0.0,0.0,0.0,0.0,0.0,0.0,0.0,0.0,0.0,0.0,0.0,0.0,0.0,0.0,0.0,0.0,0.0,0.0,0.0,0.0,0.0,0.0,0.0,0.0,0.0,0.0,0.0,0.0,0.0,0.0,0.0,0.0,0.0,0.0,0.0,0.0,0.0,0.0,0.0,0.0,0.0,0.0,0.0,0.0,0.0,0.0,0.0,0.0,0.0,0.0,0.0,-1.4966,-1.5133,-1.5299,-1.5102,-1.4949,-1.4949,-1.4856,-1.4497,-1.3789,-1.3542,0.0,0.0,0.0,0.0,0.0,0.0,0.0,0.0,0.0,0.0,0.0,0.0,0.0,0.0,0.0,0.0,0.0,0.0,0.0,0.0,0.0,0.0,0.0,0.0,0.0,0.0,0.0,0.0,0.0,0.0,0.0,0.0,0.0,0.0,0.0,0.0,0.0,0.0,0.0,0.0,0.0,0.0,0.0,0.0,0.0,0.0,0.0,0.0,0.0,0.0,0.0,0.0,0.0,0.0,0.0,0.0,0.0,0.0,0.0,0.0,0.0,0.0,0.0,0.0,0.0,0.0,0.0,0.0,0.0,0.0,0.0,0.0,0.0,0.0,0.0,0.0,0.0,0.0,0.0,0.0,0.0,0.0,0.0,0.0,0.0,0.0,0.0,0.0,0.0,0.0,0.0,0.0,0.0,0.0,0.0,0.0,0.0,0.0,0.0,0.0,0.0,0.0,-1.4627,-1.4672,-1.4732,-1.4966,-1.4783,-1.396,-1.4232,-1.4117,-1.3374,-1.3101,0.0,0.0,0.0,0.0,0.0,0.0,0.0,0.0,0.0,0.0,0.0,0.0,0.0,0.0,0.0,0.0,0.0,0.0,0.0,0.0,0.0,0.0,0.0,0.0,0.0,0.0,0.0,0.0,0.0,0.0,0.0,0.0,0.0,0.0,0.0,0.0,0.0,0.0,0.0,0.0,0.0,0.0,0.0,0.0,0.0,0.0,0.0,0.0,0.0,0.0,0.0,0.0,0.0,0.0,0.0,0.0,0.0,0.0,0.0,0.0,0.0,0.0,0.0,0.0,0.0,0.0,0.0,0.0,0.0,0.0,0.0,0.0,0.0,0.0,0.0,0.0,0.0,0.0,0.0,0.0,0.0,0.0,0.0,0.0,0.0,0.0,0.0,0.0,0.0,0.0,0.0,0.0,0.0,0.0,0.0,0.0,0.0,0.0,0.0,0.0,0.0,0.0,-1.4246,-1.431,0.0,-1.4232,-1.3992,-1.3609,-1.357,-1.3369,-1.2836,0.0,0.0,0.0,0.0,0.0,0.0,0.0,0.0,0.0,0.0,0.0,0.0,0.0,0.0,0.0,0.0,0.0,0.0,0.0,0.0,0.0,0.0,0.0,0.0,0.0,0.0,0.0,0.0,0.0,0.0,0.0,0.0,0.0,0.0,0.0,0.0,0.0,0.0,0.0,0.0,0.0,0.0,0.0,0.0,0.0,0.0,0.0,0.0,0.0,0.0,0.0,0.0,0.0,0.0,0.0,0.0,0.0,0.0,0.0,0.0,0.0,0.0,0.0,0.0,0.0,0.0,0.0,0.0,0.0,0.0,0.0,0.0,0.0,0.0,0.0,0.0,0.0,0.0,0.0,0.0,0.0,0.0,0.0,0.0,0.0,0.0,0.0,0.0,0.0,0.0,0.0,0.0,0.0,0.0,0.0,0.0,0.0,0.0,0.0,0.0,0.0,0.0,-1.3689,-1.3789,-1.3822,0.0,-1.3576,-1.334,-1.2998,-1.2938,-1.2695,-1.221,0.0,0.0,0.0,0.0,0.0,0.0,0.0,0.0,0.0,0.0,0.0,0.0,0.0,0.0,0.0,0.0,0.0,0.0,0.0,0.0,0.0,0.0,0.0,0.0,0.0,0.0,0.0,0.0,0.0,0.0,0.0,0.0,0.0,0.0,0.0,0.0,0.0,0.0,0.0,0.0,0.0,0.0,0.0,0.0,0.0,0.0,0.0,0.0,0.0,0.0,0.0,0.0,0.0,0.0,0.0,0.0,0.0,0.0,0.0,0.0,0.0,0.0,0.0,0.0,0.0,0.0,0.0,0.0,0.0,0.0,0.0,0.0,0.0,0.0,0.0,0.0,0.0,0.0,0.0,0.0,0.0,0.0,0.0,0.0,0.0,0.0,0.0,0.0,0.0,0.0,0.0,0.0,0.0,0.0,0.0,0.0,0.0,0.0,0.0,0.0,0.0,0.0,-1.3113,-1.3182,-1.3182,-1.3182,-1.3113,-1.2814,-1.215,-1.2318,-1.221,0.0,0.0,0.0,0.0,0.0,0.0,0.0,0.0,0.0,0.0,0.0,0.0,0.0,0.0,0.0,0.0,0.0,0.0,0.0,0.0,0.0,0.0,0.0,0.0,0.0,0.0,0.0,0.0,0.0,0.0,0.0,0.0,0.0,0.0,0.0,0.0,0.0,0.0,0.0,0.0,0.0,0.0,0.0,0.0,0.0,0.0,0.0,0.0,0.0,0.0,0.0,0.0,0.0,0.0,0.0,0.0,0.0,0.0,0.0,0.0,0.0,0.0,0.0,0.0,0.0,0.0,0.0,0.0,0.0,0.0,0.0,0.0,0.0,0.0,0.0,0.0,0.0,0.0,0.0,0.0,0.0,0.0,0.0,0.0,0.0,0.0,0.0,0.0,0.0,0.0,0.0,0.0,0.0,0.0,0.0,0.0,0.0,0.0,0.0,0.0,0.0,0.0,0.0,-1.2449,-1.2401,-1.233,-1.2294,-1.2151,-1.1898,-1.1579,-1.1564,-1.1463,-1.1105,0.0,0.0,0.0,0.0,0.0,0.0,0.0,0.0,0.0,0.0,0.0,0.0,0.0,0.0,0.0,0.0,0.0,0.0,0.0,0.0,0.0,0.0,0.0,0.0,0.0,0.0,0.0,0.0,0.0,0.0,0.0,0.0,0.0,0.0,0.0,0.0,0.0,0.0,0.0,0.0,0.0,0.0,0.0,0.0,0.0,0.0,0.0,0.0,0.0,0.0,0.0,0.0,0.0,0.0,0.0,0.0,0.0,0.0,0.0,0.0,0.0,0.0,0.0,0.0,0.0,0.0,0.0,0.0,0.0,0.0,0.0,0.0,0.0,0.0,0.0,0.0,0.0,0.0,0.0,0.0,0.0,0.0,0.0,0.0,0.0,0.0,0.0,0.0,0.0,0.0,0.0,0.0,0.0,0.0,0.0,0.0,0.0,0.0,0.0,0.0,0.0,0.0,-1.1836,-1.1909,-1.1836,-1.1568,-1.1468,-1.1356,-1.1169,-1.0964,-1.0822,-1.0659,0.0,0.0,0.0,0.0,0.0,0.0,0.0,0.0,0.0,0.0,0.0,0.0,0.0,0.0,0.0,0.0,0.0,0.0,0.0,0.0,0.0,0.0,0.0,0.0,0.0,0.0,0.0,0.0,0.0,0.0,0.0,0.0,0.0,0.0,0.0,0.0,0.0,0.0,0.0,0.0,0.0,0.0,0.0,0.0,0.0,0.0,0.0,0.0,0.0,0.0,0.0,0.0,0.0,0.0,0.0,0.0,0.0,0.0,0.0,0.0,0.0,0.0,0.0,0.0,0.0,0.0,0.0,0.0,0.0,0.0,0.0,0.0,0.0,0.0,0.0,0.0,0.0,0.0,0.0,0.0,0.0,0.0,0.0,0.0,0.0,0.0,0.0,0.0,0.0,0.0,0.0,0.0,0.0,0.0,0.0,0.0,0.0,0.0,0.0,0.0,0.0,0.0,-1.1196,-1.1431,-1.1431,-1.0943,-1.1019,-1.1029,-1.0802,-1.0534,-1.0351,-1.0244,0.0,0.0,0.0,0.0,0.0,0.0,0.0,0.0,0.0,0.0,0.0,0.0,0.0,0.0,0.0,0.0,0.0,0.0,0.0,0.0,0.0,0.0,0.0,0.0,0.0,0.0,0.0,0.0,0.0,0.0,0.0,0.0,0.0,0.0,0.0,0.0,0.0,0.0,0.0,0.0,0.0,0.0,0.0,0.0,0.0,0.0,0.0,0.0,0.0,0.0,0.0,0.0,0.0,0.0,0.0,0.0,0.0,0.0,0.0,0.0,-0.2405,-0.2455,0.0,0.0,0.0,0.0,0.0,0.0,0.0,0.0,0.0,0.0,0.0,0.0,0.0,0.0,0.0,0.0,0.0,0.0,0.0,0.0,0.0,0.0,0.0,0.0,0.0,0.0,0.0,0.0,0.0,0.0,0.0,0.0,0.0,0.0,0.0,0.0,0.0,0.0,0.0,0.0,-1.0505,-1.0351,-1.0235,-1.0205,-1.039,-1.0361,-1.0049,-1.0273,-1.0235,-0.9832,-0.9655,0.0,0.0,0.0,0.0,0.0,0.0,0.0,0.0,0.0,0.0,0.0,0.0,0.0,0.0,0.0,0.0,0.0,0.0,0.0,0.0,0.0,0.0,0.0,0.0,0.0,0.0,0.0,0.0,0.0,0.0,0.0,0.0,0.0,0.0,0.0,0.0,0.0,0.0,0.0,0.0,0.0,0.0,0.0,0.0,0.0,0.0,0.0,0.0,0.0,0.0,0.0,0.0,0.0,0.0,0.0,0.0,0.0,0.0,0.0,-0.2245,-0.2317,0.0,0.0,0.0,0.0,0.0,0.0,0.0,0.0,0.0,0.0,0.0,0.0,0.0,0.0,0.0,0.0,0.0,0.0,0.0,0.0,0.0,0.0,0.0,0.0,0.0,0.0,0.0,0.0,0.0,0.0,0.0,0.0,0.0,0.0,0.0,0.0,0.0,0.0,0.0,0.0,-1.0019,-0.9892,-0.9765,-0.9616,-0.9804,-0.9804,-0.9567,-0.9655,-0.9616,-0.9475,-0.9168,0.0,0.0,0.0,0.0,0.0,0.0,0.0,0.0,0.0,0.0,0.0,0.0,0.0,0.0,0.0,0.0,0.0,0.0,0.0,0.0,0.0,0.0,0.0,0.0,0.0,0.0,0.0,0.0,0.0,0.0,0.0,0.0,0.0,0.0,0.0,0.0,0.0,0.0,0.0,0.0,0.0,0.0,0.0,0.0,0.0,0.0,0.0,0.0,0.0,0.0,0.0,0.0,0.0,-0.2053,-0.206,-0.1957,-0.2225,-0.2163,-0.18,-0.1966,-0.2119,-0.2221,-0.2505,0.0,0.0,0.0,0.0,0.0,0.0,0.0,0.0,0.0,0.0,0.0,0.0,0.0,0.0,0.0,0.0,0.0,0.0,0.0,0.0,0.0,0.0,-0.693,-0.6623,-0.6738,-0.7076,-0.7753,0.0,0.0,0.0,0.0,0.0,0.0,0.0,0.0,0.0,0.0,0.0,-0.9594,-0.9607,-0.9509,-0.9177,-0.9328,-0.9368,-0.9248,-0.9016,-0.8943,-0.9096,-0.8683,-0.8602,0.0,0.0,0.0,0.0,0.0,0.0,0.0,0.0,0.0,0.0,0.0,0.0,0.0,0.0,0.0,0.0,0.0,0.0,0.0,0.0,0.0,0.0,0.0,0.0,0.0,0.0,0.0,0.0,0.0,0.0,0.0,0.0,0.0158,0.0051,0.0,0.0,0.0,0.0,0.0,0.0,0.0,0.0,0.0,0.0,0.0,0.0,0.0,-0.1118,-0.127,-0.1518,-0.1749,-0.1795,-0.207,-0.2156,-0.2156,-0.222,-0.222,-0.2154,-0.2174,0.0,-0.265,-0.3172,0.0,0.0,0.0,0.0,0.0,0.0,0.0,0.0,0.0,0.0,0.0,0.0,0.0,0.0,0.0,0.0,0.0,0.0,0.0,0.0,0.0,0.0,-0.7304,-0.693,-0.6907,-0.7154,-0.7746,-0.7795,-0.7878,-0.8332,-0.8373,-0.8455,0.0,0.0,0.0,0.0,0.0,0.0,-0.9096,-0.8926,-0.8878,-0.9016,-0.9056,-0.9024,-0.8952,-0.8886,-0.8788,-0.8756,-0.8447,-0.8324,-0.8561,-0.8365,0.0,0.0,0.0,0.0,0.0,0.0,0.0,0.0,0.0,0.0,0.0,0.0,0.0,0.0,0.0,0.0,0.0,0.0,0.0,0.0,0.0,0.0,0.0,0.0,0.0,0.0,0.0,0.0,0.0,0.0321,-0.0267,0.0049,-0.0157,-0.0322,0.0,0.0,0.0,0.0,0.0,0.0,0.0,0.0,0.0,-0.1755,-0.1728,-0.1785,-0.2036,-0.2174,-0.2245,-0.23,-0.2439,-0.2535,-0.2535,-0.2477,-0.2533,-0.2644,-0.254,-0.2642,-0.2936,-0.3035,-0.3229,-0.3421,0.0,0.0,0.0,0.0,-0.3921,-0.4219,-0.4755,-0.4886,-0.4948,-0.5489,0.0,0.0,0.0,0.0,0.0,0.0,0.0,-0.7135,-0.6969,-0.716,-0.7268,-0.6729,-0.6653,-0.6816,-0.7245,-0.7454,-0.778,-0.8472,-0.8553,-0.8602,-0.8805,0.0,0.0,0.0,0.0,-0.8594,-0.8659,-0.8365,-0.8193,-0.8398,-0.8431,-0.8447,-0.8504,-0.8529,-0.8521,-0.8406,-0.8167,-0.8126,-0.8332,-0.7995,-0.7904,0.0,0.0,0.0,0.0,0.0,0.0,0.0,0.0,0.0,0.0,0.0,0.0,0.0,0.0,0.0,0.0,0.0,0.0,0.0,0.0,0.0,0.0,0.0,0.0,0.0,0.0,0.0,0.0,-0.0105,-0.0529,0.0,-0.0313,-0.054,0.0,0.0,0.0,0.0,0.0,0.0,-0.169,-0.1756,-0.1942,-0.2316,-0.2338,-0.2491,-0.2725,-0.2748,-0.2758,-0.2758,-0.2828,-0.286,-0.286,-0.274,-0.2797,-0.2966,-0.282,-0.2947,-0.3217,-0.3115,-0.3182,-0.3414,-0.3462,-0.377,-0.4124,-0.404,-0.4174,-0.4494,-0.5083,-0.5336,-0.5388,-0.5816,-0.6214,-0.6493,-0.6276,0.0,0.0,0.0,0.0,-0.7451,-0.7334,-0.7354,-0.7238,-0.6706,-0.6539,-0.6647,-0.6992,-0.7363,-0.7807,-0.8464,-0.8626,-0.8667,-0.8707,0.0,0.0,0.0,0.0,-0.8152,-0.8283,-0.7995,-0.7829,-0.8028,-0.7987,-0.7987,-0.8126,-0.8167,-0.8126,-0.8126,-0.7919,-0.7829,-0.7995,-0.7697,-0.7648,-0.7855,0.0,0.0,0.0,0.0,0.0,0.0,0.0,0.0,0.0,0.0,0.0,0.0,0.0,0.0,0.0,0.0,0.0,0.0,0.0,0.0,0.0,0.0,0.0,0.0,0.0,0.0,0.0,0.0,0.0,-0.0382,-0.0664,0.0,0.0,0.0,0.0,-0.1616,-0.1877,-0.2018,-0.2174,-0.2464,-0.2623,-0.2683,-0.2711,-0.2757,-0.2819,-0.2901,-0.3001,-0.3001,-0.3007,-0.3009,-0.3009,-0.3009,-0.3009,-0.3003,-0.2856,-0.3107,-0.3674,-0.3727,-0.3785,-0.3834,-0.4275,-0.4604,-0.4801,-0.4446,-0.4393,-0.4491,-0.4662,-0.4554,-0.4523,-0.55,-0.6023,-0.6422,-0.6877,-0.6806,0.0,0.0,-0.756,-0.7853,-0.7477,-0.7503,-0.7474,-0.7069,-0.6837,-0.6852,-0.7356,-0.7731,-0.7979,-0.7953,-0.8085,-0.825,-0.8414,0.0,-0.8324,-0.8062,-0.8242,-0.8283,-0.8062,-0.8021,-0.8028,-0.8167,-0.7919,-0.7787,-0.7979,-0.7655,-0.7587,-0.7912,-0.7628,-0.7454,-0.7523,-0.7621,-0.7621,-0.7523,-0.7855,0.0,0.0,0.0,0.0,0.0,0.0,0.0,0.0,0.0,0.0,0.0,0.0,0.0,0.0,0.0,0.0,0.0,0.0,0.0,0.0,0.0,0.0,0.0,0.0,0.0,0.0,0.0,0.0,-0.0448,-0.0845,0.0,-0.1065,-0.1158,-0.1339,-0.1625,-0.1943,-0.222,-0.2441,-0.2586,-0.2663,-0.2779,-0.2862,-0.2883,-0.2828,-0.2911,-0.3015,-0.3015,-0.3013,-0.3042,-0.3042,-0.3042,-0.3072,-0.3013,-0.2921,-0.2996,-0.3114,-0.3364,-0.3758,-0.4239,-0.4463,-0.4629,-0.4791,-0.4729,-0.4707,-0.4815,-0.4985,-0.5089,-0.5259,-0.5977,-0.6279,-0.6352,-0.6421,-0.6579,-0.6762,-0.7101,-0.7516,-0.7873,-0.8032,-0.7821,-0.7512,-0.714,-0.6774,-0.6575,-0.6816,-0.707,-0.7328,-0.7419,-0.7953,-0.8324,-0.8126,-0.8085,-0.7995,-0.7829,-0.7795,-0.7746,-0.769,-0.7572,-0.7538,-0.767,-0.7587,-0.7545,-0.7621,-0.7663,-0.7621,-0.7321,-0.7496,-0.7454,-0.7189,-0.7238,-0.7321,-0.7482,-0.7697,-0.7863,0.0,0.0,0.0,0.0,0.0,0.0,0.0,0.0,0.0,0.0,0.0,0.0,0.0,0.0,0.0,0.0,0.0,0.0,0.0,0.0,0.0,0.0,0.0,0.0,0.0,0.0,-0.103,-0.0723,-0.1138,-0.1378,-0.1261,-0.1435,-0.164,-0.1824,-0.2047,-0.2281,-0.2509,-0.2572,-0.2692,-0.2753,-0.2956,-0.2973,-0.2917,-0.3001,-0.3046,-0.3046,-0.3107,-0.3136,-0.3136,-0.3136,-0.3168,-0.3172,-0.3141,-0.3136,-0.3104,-0.3306,-0.38,-0.4408,-0.4353,-0.4519,-0.4794,-0.4846,-0.4956,-0.5069,-0.5128,-0.5293,-0.5567,-0.5837,-0.6055,-0.614,-0.611,-0.6383,-0.6796,-0.7154,-0.7516,-0.7883,-0.8261,-0.7927,-0.7497,-0.726,-0.6843,-0.6532,-0.6562,-0.6774,-0.6992,-0.716,-0.7697,-0.807,-0.7821,-0.7704,-0.767,-0.7621,-0.7496,-0.7412,-0.7482,-0.7363,-0.7328,-0.737,-0.7328,-0.7286,-0.737,-0.7538,-0.7405,-0.6985,-0.716,-0.7154,-0.6852,-0.6816,-0.6979,-0.7314,-0.7454,-0.7704,-0.8021,0.0,0.0,0.0,0.0,0.0,0.0,0.0,0.0,0.0,0.0,0.0,0.0,0.0,0.0,0.0,0.0,0.0,0.0,0.0,0.0,0.0,0.0,0.0,-0.0919,-0.1304,-0.1549,-0.1336,-0.1488,-0.1742,-0.1965,-0.1678,-0.1653,-0.224,-0.2243,-0.2282,-0.2408,-0.2595,-0.2718,-0.272,-0.2987,-0.3093,-0.3091,-0.3181,-0.3226,-0.3226,-0.3226,-0.3226,-0.3226,-0.3226,-0.3293,-0.3487,-0.3461,-0.3486,-0.3684,-0.3579,-0.376,-0.415,-0.4027,-0.4353,-0.4897,-0.4897,-0.5069,-0.5242,-0.5011,-0.5069,-0.5297,-0.5183,-0.5344,-0.5677,-0.605,-0.6431,-0.6756,-0.7182,-0.7568,-0.7955,-0.8168,-0.7803,-0.7379,-0.7379,-0.7006,-0.6683,-0.6683,-0.681,-0.7021,-0.714,-0.728,-0.737,-0.7482,-0.7328,-0.7293,-0.744,-0.7447,0.0,-0.7482,-0.7523,-0.7482,-0.7412,-0.7154,-0.7112,-0.737,-0.7154,-0.6943,-0.6872,-0.6653,-0.6477,-0.6483,-0.6483,-0.6647,-0.6979,-0.7118,-0.7454,-0.7979,0.0,0.0,0.0,0.0,0.0,0.0,0.0,0.0,0.0,0.0,0.0,0.0,0.0,0.0,0.0,0.0,0.0,0.0,0.0,0.0,0.0,0.0,-0.1382,-0.1109,-0.1353,-0.1619,-0.1713,-0.1905,-0.211,-0.234,-0.2243,-0.2254,-0.2436,-0.2269,-0.2365,-0.2732,-0.2675,-0.2741,-0.2991,-0.3077,-0.3156,-0.3091,-0.3181,-0.3226,-0.3226,-0.3226,-0.3226,-0.3226,-0.3362,-0.3392,-0.3459,-0.3438,-0.3466,-0.3495,-0.3528,-0.3699,-0.3938,-0.41,-0.4463,-0.4901,-0.5011,-0.5128,-0.5297,-0.5242,-0.5242,-0.5297,-0.5403,-0.5513,-0.5622,-0.5845,-0.6109,-0.6426,-0.7025,-0.7354,-0.7735,-0.8215,-0.7747,-0.7086,-0.7086,-0.6549,-0.6044,-0.6044,-0.6087,-0.6215,-0.6428,-0.6441,-0.6568,-0.716,-0.7335,-0.7286,-0.7147,-0.7314,0.0,-0.7454,-0.7538,-0.7621,-0.7489,-0.7363,-0.7202,-0.7041,-0.7027,-0.6774,-0.6276,-0.6398,-0.6313,-0.5933,-0.5964,-0.6173,-0.6647,-0.6872,-0.7245,0.0,0.0,0.0,0.0,0.0,0.0,0.0,0.0,0.0,0.0,0.0,0.0,0.0,0.0,0.0,0.0,0.0,0.0,0.0,0.0,0.0,0.0,-0.1533,-0.1707,-0.1729,-0.1924,-0.2019,-0.2053,-0.2261,-0.2419,-0.2525,-0.2496,-0.2514,-0.2514,-0.2478,-0.2513,-0.2687,-0.269,-0.269,-0.2821,-0.2932,-0.3,-0.3081,-0.3,-0.3023,-0.3092,-0.3023,-0.3025,-0.3092,-0.3228,-0.3332,-0.3416,-0.3473,-0.3443,-0.3414,-0.3665,-0.3791,-0.3978,0.0,0.0,0.0,0.0,-0.5183,-0.5297,-0.5242,-0.5242,-0.5297,-0.5348,-0.5403,-0.5513,-0.5572,-0.5786,-0.6109,-0.644,-0.6923,-0.7408,-0.7783,-0.7392,-0.6948,-0.7002,-0.6373,-0.5793,-0.5755,-0.5755,-0.5798,-0.5879,-0.5841,0.0,-0.6575,-0.6872,-0.695,-0.6894,-0.7021,-0.7147,-0.7112,-0.7286,-0.7363,-0.728,-0.7202,-0.7118,-0.695,-0.6901,0.0,0.0,0.0,-0.6007,-0.5626,-0.5793,0.0,0.0,0.0,-0.6816,-0.7266,-0.7273,0.0,0.0,-0.9288,-1.0258,0.0,0.0,0.0,0.0,0.0,0.0,0.0,0.0,0.0,0.0,0.0,0.0,0.0,0.0,0.0,0.0,-0.179,-0.2061,-0.2543,-0.2611,-0.2558,-0.2319,-0.2559,-0.2669,-0.2616,-0.2617,-0.2659,-0.2659,-0.2718,-0.2688,-0.2491,0.0,0.0,0.0,0.0,-0.2753,-0.2956,-0.282,-0.282,-0.2956,-0.2753,-0.282,-0.2956,-0.3023,-0.3159,-0.3431,-0.3431,-0.3381,-0.3365,-0.3685,-0.4003,-0.4192,-0.4302,-0.4512,-0.4827,-0.5045,-0.5199,-0.5297,-0.5183,0.0,0.0,-0.5183,-0.5183,-0.5297,-0.5297,-0.5521,-0.574,-0.5795,-0.6386,-0.7031,-0.7085,-0.6973,-0.6896,-0.7005,-0.6487,-0.5914,-0.5837,-0.582,-0.5711,-0.5613,-0.5569,-0.5657,-0.5974,-0.6231,-0.6447,-0.6647,-0.6683,-0.6683,-0.6683,-0.6852,-0.6943,-0.6865,0.0,0.0,-0.6894,-0.6768,-0.6428,-0.583,-0.5701,-0.5572,-0.5404,-0.5696,-0.6039,-0.6471,-0.6221,-0.6264,-0.6592,-0.681,-0.6859,-0.6872,-0.8616,-0.9516,0.0,0.0,0.0,0.0,0.0,0.0,0.0,0.0,0.0,0.0,0.0,0.0,0.0,0.0,0.0,-0.1623,-0.1875,-0.2197,-0.2498,-0.2682,-0.2786,-0.2912,-0.2864,-0.29,-0.3037,-0.3058,-0.3068,-0.3068,-0.3015,-0.2958,-0.3027,-0.2822,-0.2755,-0.2891,-0.2755,-0.2686,-0.2753,-0.2686,-0.2753,-0.2753,-0.2686,0.0,-0.2753,-0.2956,-0.3025,-0.3092,-0.3092,-0.3082,-0.3066,-0.3266,-0.3731,-0.4316,-0.4928,-0.5196,-0.5285,-0.5339,-0.5309,-0.5297,-0.5242,-0.5297,-0.5297,-0.5242,-0.5297,-0.5297,-0.5297,-0.5352,0.0,-0.5841,-0.6159,-0.6485,-0.682,-0.7068,-0.7203,-0.7256,-0.6985,-0.6773,-0.6778,-0.6428,-0.6102,-0.6055,-0.6055,-0.6102,-0.6203,-0.6242,-0.627,-0.6453,-0.6611,-0.6683,-0.6683,-0.6725,-0.6768,-0.6732,-0.6732,-0.6647,-0.6392,-0.6404,-0.6276,-0.583,-0.5491,-0.5106,-0.4718,-0.4797,-0.4966,-0.5145,-0.5275,-0.5486,-0.591,-0.6076,-0.6258,-0.6349,-0.7211,-0.8193,0.0,0.0,0.0,0.0,0.0,0.0,0.0,0.0,0.0,0.0,0.0,-0.0842,0.0,0.0,-0.1445,-0.1818,-0.1992,-0.223,-0.2577,-0.2713,-0.2812,-0.2966,-0.3,-0.3109,-0.3222,-0.3226,-0.3226,-0.3226,-0.3159,-0.3092,-0.3092,-0.2956,-0.2822,-0.269,-0.2622,-0.2573,-0.2609,-0.2472,-0.2487,-0.2659,-0.2487,-0.2472,-0.2609,-0.2641,-0.2757,-0.2822,-0.2822,-0.2822,-0.2889,-0.3092,-0.3661,-0.4463,-0.4922,-0.5196,-0.5399,-0.5514,-0.5576,-0.562,-0.562,-0.562,-0.562,-0.562,-0.562,-0.562,-0.562,-0.562,-0.562,-0.5904,-0.6129,-0.6411,-0.6753,-0.6895,-0.7025,-0.7196,-0.6881,-0.6581,-0.6632,-0.6347,-0.6093,-0.6083,-0.6034,-0.6039,-0.6239,-0.6139,-0.6123,-0.6408,-0.6472,-0.6457,-0.6453,-0.6392,-0.6392,-0.6428,-0.6526,-0.6441,-0.6221,-0.6105,-0.589,-0.5583,-0.5193,-0.4888,-0.4675,-0.4583,-0.4583,-0.4583,-0.484,-0.5053,-0.526,-0.547,-0.5588,-0.5605,-0.604,-0.6744,0.0,0.0,0.0,0.0,0.0,0.0,0.0,0.0,-0.048,-0.0698,-0.0941,-0.1133,-0.136,-0.1455,-0.1668,-0.2035,-0.2123,-0.226,-0.2724,-0.2715,-0.273,-0.2929,-0.3115,-0.3234,-0.3252,-0.3252,-0.326,-0.3279,-0.3262,-0.3193,-0.3073,-0.3057,-0.2854,-0.2599,-0.2463,-0.2489,-0.2544,-0.2334,-0.2356,-0.2548,-0.2343,-0.2315,-0.2454,-0.2387,-0.2421,-0.2621,-0.2621,-0.2621,-0.2621,-0.2907,-0.3509,-0.4303,-0.4494,-0.4812,-0.5246,-0.5555,-0.572,-0.5872,-0.5836,-0.5824,-0.5828,-0.5888,-0.5888,-0.5888,-0.5944,-0.5949,-0.5888,-0.5944,-0.6181,-0.6478,-0.6653,-0.6733,-0.6866,-0.6994,-0.6663,-0.6299,-0.6302,-0.6176,-0.6022,-0.6012,-0.5962,-0.5967,-0.6216,-0.6122,-0.6129,-0.6469,-0.6331,-0.6196,-0.6209,-0.6087,-0.5983,-0.6019,-0.6147,-0.619,-0.6056,-0.5804,-0.555,-0.5333,-0.5019,-0.4845,-0.4714,-0.4543,-0.4368,-0.432,-0.4495,-0.4622,-0.4652,-0.4908,-0.4957,-0.4885,-0.5197,-0.5603,0.3076,0.2641,0.1978,0.1253,0.0784,0.0405,0.0,0.0,-0.0752,-0.0998,-0.1376,-0.1642,-0.1814,-0.1861,-0.198,-0.2098,-0.2119,-0.2212,-0.2664,-0.2681,-0.275,-0.2945,-0.3086,-0.3258,-0.334,-0.3348,-0.3383,-0.3462,-0.3393,-0.3383,-0.3465,-0.325,-0.3102,-0.3105,-0.2745,-0.2602,-0.261,-0.2395,-0.2328,-0.2334,-0.2273,-0.2244,-0.2243,-0.2251,-0.2221,-0.2288,-0.2288,-0.2288,-0.2293,-0.228,-0.2681,-0.3232,-0.3597,-0.4039,-0.4512,-0.5311,-0.5614,-0.5649,-0.5628,-0.5634,-0.5638,-0.5824,-0.5888,-0.5949,-0.6061,-0.6005,-0.5949,-0.6061,-0.6117,-0.6177,-0.6177,-0.6773,-0.7215,-0.6851,-0.6885,-0.6852,-0.6492,-0.6289,-0.6143,-0.604,-0.6206,-0.6367,-0.6367,-0.6367,-0.6383,-0.6504,-0.639,-0.6261,-0.6207,-0.6078,-0.5855,-0.5435,-0.5539,-0.5577,-0.5577,-0.5458,-0.5328,-0.5285,-0.5198,-0.4927,-0.436,-0.4236,-0.4108,-0.3968,-0.3968,-0.4056,-0.4196,-0.4491,-0.4609,-0.4461,-0.4915,-0.5291,0.2589,0.1962,0.0,0.0,0.0463,0.0106,-0.0279,-0.0622,-0.0913,-0.1239,-0.15,-0.1755,-0.1935,-0.1984,-0.2098,0.0,-0.2158,-0.219,-0.2417,-0.2488,-0.2555,-0.2624,-0.2822,-0.299,-0.3215,-0.3245,-0.3322,-0.3413,-0.3385,-0.3381,-0.3418,-0.3363,-0.3315,-0.3205,-0.306,-0.2935,-0.2829,-0.2607,-0.2553,-0.2589,-0.2342,-0.2225,-0.2223,-0.2198,-0.2221,-0.2221,-0.2221,-0.2221,-0.2224,-0.2181,-0.2515,-0.3032,-0.3255,-0.368,-0.4251,-0.5125,-0.5453,-0.5517,-0.5706,-0.5747,-0.5811,-0.5875,-0.6006,-0.6065,-0.6125,-0.6193,-0.6197,-0.6379,-0.6379,-0.632,-0.651,-0.6757,-0.6894,-0.6644,-0.6563,-0.6419,-0.6165,-0.597,-0.5832,-0.5887,-0.6055,-0.6164,-0.6164,-0.6223,-0.6328,-0.6405,-0.6273,-0.6211,-0.6272,-0.5929,-0.5621,-0.5435,-0.5366,-0.541,-0.5588,-0.5415,-0.5285,-0.5285,-0.5111,-0.4757,-0.432,-0.41,-0.3884,-0.3619,-0.3704,-0.3656,-0.348,-0.3836,-0.3876,-0.3652,-0.4316,-0.4652,0.2322,0.0,0.0,0.0484,0.011,-0.0225,-0.0531,-0.0776,-0.1022,-0.1415,-0.1614,-0.1747,-0.1997,-0.211,-0.2154,-0.2154,-0.2125,-0.2154,-0.2221,-0.2288,-0.2357,-0.2357,-0.2572,-0.2816,-0.2965,-0.313,-0.3279,-0.3467,-0.345,-0.3446,-0.3473,-0.3514,-0.3473,-0.3346,-0.3348,-0.3226,-0.3132,-0.2827,-0.2777,-0.2824,-0.2483,-0.2358,-0.2354,-0.2234,-0.217,-0.2221,-0.2221,-0.2221,-0.2221,-0.2221,-0.2421,-0.2762,-0.2957,-0.3186,-0.3659,-0.4462,-0.4916,-0.5145,-0.5502,-0.562,-0.569,-0.5826,-0.6017,-0.6214,-0.6214,-0.635,-0.642,-0.6675,-0.6548,-0.6486,-0.6683,-0.6745,-0.6616,-0.6262,-0.61,-0.5875,-0.5584,-0.5433,-0.5449,-0.5555,-0.5668,-0.5782,-0.5782,-0.5896,-0.6005,-0.6223,-0.61,-0.6085,-0.6221,-0.5796,-0.5439,-0.5348,-0.5193,-0.5193,-0.5415,-0.5328,-0.5285,-0.5285,-0.5024,-0.4714,-0.4403,-0.4056,-0.3748,-0.3483,-0.3656,-0.3609,-0.3296,-0.3615,-0.3648,-0.3451,-0.3999,-0.4152,0.0,0.0,0.1161,0.0564,-0.0059,-0.0554,-0.074,-0.0925,-0.1111,-0.142,-0.1579,-0.1673,-0.206,-0.2176,-0.2218,-0.2218,-0.2017,-0.1951,-0.2154,-0.2221,-0.2221,-0.2221,-0.2548,-0.2755,0.0,-0.2982,-0.3341,-0.3738,-0.3669,-0.3656,-0.3746,-0.3669,-0.3663,-0.3752,-0.3597,-0.3521,-0.3522,-0.3056,-0.2823,-0.2824,-0.2523,-0.2417,-0.2413,-0.2296,-0.221,-0.2221,-0.2221,-0.2221,-0.2221,-0.2221,-0.2221,-0.2221,-0.2359,-0.2427,-0.2493,-0.3094,-0.3685,-0.4304,-0.4727,-0.4951,-0.5223,-0.5756,-0.6017,-0.6214,-0.635,-0.642,-0.642,-0.6675,-0.6548,-0.642,-0.642,-0.6548,-0.6452,-0.5609,-0.5586,-0.5485,-0.4699,-0.4739,-0.4901,-0.4952,-0.5117,-0.5336,-0.5336,-0.5336,-0.5449,-0.5791,-0.5791,-0.5878,-0.6095,-0.5644,-0.5212,-0.5052,-0.4893,-0.4801,-0.4845,-0.5062,-0.5193,-0.5193,-0.5067,-0.4893,-0.4618,-0.414,-0.3836,-0.3697,-0.3836,-0.3965,-0.4045,-0.4228,-0.4272,-0.4264,-0.4148,-0.3968,0.2156,0.0,0.059,0.0239,-0.0182,-0.0559,-0.0887,-0.0955,-0.1088,-0.1303,-0.1362,-0.1481,-0.174,-0.1884,-0.1962,-0.1962,-0.1994,-0.2087,-0.2018,-0.2018,-0.2018,-0.2018,-0.2137,0.0,0.0,0.0,0.0,-0.3286,-0.3343,-0.334,-0.3291,-0.3469,-0.3575,-0.3604,-0.3684,-0.3604,-0.3526,-0.3139,-0.2982,-0.2982,-0.2755,-0.2549,-0.2505,-0.2322,-0.2341,-0.2487,-0.2282,-0.2259,-0.2356,-0.2356,-0.2421,-0.2554,-0.2554,-0.2621,-0.2621,-0.2822,-0.3107,-0.3466,-0.4038,-0.4558,-0.496,-0.5093,-0.5488,-0.5815,-0.5885,-0.6083,-0.6284,-0.6482,-0.6482,-0.6416,-0.6548,-0.6548,-0.642,-0.6053,-0.5724,-0.54,-0.5059,-0.4811,-0.4625,-0.4625,-0.4842,-0.5007,-0.5007,-0.5171,-0.5336,-0.5449,-0.5786,-0.6044,-0.5991,-0.567,-0.542,-0.5207,-0.4972,-0.4888,-0.5062,-0.5149,-0.5193,-0.5193,-0.5154,-0.4884,-0.4308,-0.41,-0.3884,-0.3619,-0.3575,-0.3571,-0.3656,-0.3832,-0.3832,-0.3704,-0.3945,-0.3989,0.1762,0.1103,0.0306,0.0,-0.038,-0.0705,-0.0979,-0.1048,-0.1054,-0.1273,-0.125,-0.1289,-0.1546,-0.1598,-0.1656,-0.1802,-0.1899,-0.1995,-0.1882,-0.1884,-0.1891,-0.191,-0.2029,-0.2156,0.0,0.0,0.0,-0.3064,-0.3144,-0.3144,-0.3067,-0.3267,-0.3372,-0.3372,-0.3606,-0.3606,-0.3372,-0.3217,-0.2982,-0.2746,-0.278,-0.2648,-0.251,-0.2513,-0.2623,-0.2698,-0.2487,-0.2381,-0.2458,-0.246,-0.2512,-0.2621,-0.2686,-0.2686,-0.2686,-0.2686,-0.282,-0.309,-0.3625,-0.4092,-0.4495,-0.4827,-0.5156,-0.5554,-0.5749,-0.6013,-0.6214,-0.6284,-0.6284,-0.6284,-0.6478,-0.6412,-0.6306,-0.6129,-0.5767,-0.5355,-0.5188,-0.4794,-0.4519,-0.4519,-0.4625,-0.4736,-0.4736,-0.4952,-0.5171,-0.5171,-0.5508,-0.577,-0.5779,-0.5631,-0.5427,-0.5269,-0.4969,-0.4845,-0.4971,-0.5062,-0.5111,-0.5062,-0.5062,-0.4801,-0.4272,-0.4236,-0.4064,-0.3711,-0.3707,-0.3704,-0.3704,-0.3778,-0.3795,-0.3749,-0.3794,-0.3915,0.1533,0.0948,0.0323,-0.0129,-0.0529,-0.0809,-0.1009,-0.1076,-0.1143,-0.1277,-0.1183,-0.116,0.0,0.0,-0.1434,-0.1728,-0.1675,-0.1694,-0.1873,-0.1884,-0.1907,0.0,0.0,0.0,0.0,0.0,0.0,-0.2984,0.0,-0.3062,-0.3062,-0.3062,-0.3062,-0.3062,-0.3372,-0.3372,-0.3062,-0.3062,-0.2826,-0.2196,-0.2589,-0.2636,-0.2424,-0.2805,-0.2991,-0.2919,-0.2699,-0.2588,-0.2595,-0.253,-0.249,-0.2429,-0.2626,-0.269,-0.2753,-0.2753,-0.2822,-0.3023,-0.3355,-0.3623,-0.3959,-0.4755,-0.5156,-0.5425,-0.5947,-0.6148,-0.6148,-0.6148,-0.6017,-0.5888,-0.6083,-0.6148,-0.6171,-0.595,-0.5655,-0.5359,-0.5078,-0.4741,-0.4519,-0.4519,-0.4519,-0.4519,-0.4519,-0.4736,-0.4901,-0.4901,-0.5011,-0.5175,-0.5479,-0.543,-0.533,-0.5148,-0.4929,-0.4753,-0.4618,-0.4849,-0.4941,-0.4801,-0.4801,-0.4714,-0.4504,-0.4499,-0.428,-0.3928,-0.4144,-0.4276,-0.4272,-0.4109,-0.4152,-0.4354,-0.3782,-0.3732,0.1363,0.1043,0.0584,0.0265,-0.0134,-0.0539,-0.0809,-0.101,-0.1143,-0.1143,-0.1035,-0.1006,0.0,0.0,0.0,-0.1681,-0.1877,0.0,-0.1828,-0.1757,0.0,-0.175,0.0,-0.1731,-0.1893,-0.2014,0.0,0.0,-0.2512,-0.2589,-0.2431,-0.2746,-0.2904,-0.2904,-0.3061,-0.3061,-0.2904,-0.2904,-0.2746,-0.2431,-0.2668,-0.2737,-0.2721,-0.2643,-0.2608,-0.2546,-0.2324,-0.2293,-0.2383,-0.2384,-0.2561,-0.2842,-0.2911,-0.301,-0.3092,-0.3092,-0.3092,-0.3159,-0.3226,-0.3491,-0.3823,-0.409,-0.4425,-0.4824,-0.4818,-0.4954,-0.516,-0.5024,-0.5292,-0.5561,-0.5624,-0.5885,-0.6203,-0.6229,-0.5797,-0.5453,-0.552,-0.5052,-0.4632,-0.4632,-0.4632,-0.4632,-0.4519,-0.4574,-0.4625,-0.4625,-0.4791,-0.5164,-0.5671,-0.5315,-0.5086,-0.5286,-0.5011,-0.4753,-0.4618,-0.4757,-0.4801,-0.4661,-0.4661,-0.4578,-0.4364,-0.4236,-0.4152,-0.4064,-0.4012,-0.4056,-0.4148,-0.4109,-0.4129,-0.4168,-0.4006,-0.3932,0.1196,0.0998,0.0727,0.0403,0.0,-0.0336,-0.0531,-0.0727,-0.0856,-0.0715,-0.0563,0.0,-0.0818,0.0,0.0,0.0,0.0,0.0,-0.1841,-0.1774,-0.176,0.0,-0.1627,0.0,-0.1692,-0.1559,-0.1493,0.0,-0.1963,-0.2199,-0.2041,-0.2277,-0.2434,-0.2434,-0.2669,-0.2826,-0.2826,-0.2589,-0.251,-0.2353,-0.2589,-0.2589,-0.2511,-0.2589,-0.2647,-0.2536,-0.2385,-0.2352,-0.2447,-0.2447,-0.2539,-0.2662,-0.2942,-0.2962,-0.3023,-0.3159,-0.3226,-0.3226,-0.3226,-0.336,-0.3558,-0.3825,-0.4092,-0.4359,-0.4556,-0.4691,-0.4694,-0.4694,-0.4824,-0.4957,-0.5027,-0.5355,-0.5749,-0.6017,-0.5508,-0.5175,-0.5674,-0.5013,-0.4356,-0.4577,-0.4632,-0.4632,-0.4519,-0.4519,-0.4519,-0.4519,-0.4574,-0.4794,-0.5348,-0.5031,-0.4808,-0.5005,-0.4675,-0.4456,-0.4408,-0.4495,-0.4535,-0.4487,-0.4403,-0.4272,-0.4052,-0.4144,-0.4148,-0.4016,-0.4104,-0.4148,-0.4108,-0.4117,-0.4077,-0.403,-0.3993,-0.4051,0.1136,0.0942,0.0741,0.0472,0.0067,-0.0201,-0.026,-0.0388,-0.0512,-0.0186,0.0,-0.0119,-0.0308,-0.0605,-0.0846,-0.1024,0.0,-0.1697,-0.1801,-0.1787,-0.177,-0.1891,-0.1642,-0.1454,-0.1568,-0.1178,-0.0864,-0.0864,-0.1415,-0.1729,-0.1808,-0.1808,-0.1887,-0.1887,-0.2199,-0.2511,-0.2669,-0.2353,-0.2196,-0.2196,-0.2353,-0.2353,-0.2196,-0.2511,-0.2669,-0.2669,-0.2433,-0.2477,-0.2572,-0.2572,-0.2429,-0.2186,-0.2665,-0.2761,-0.27,-0.2961,-0.3092,-0.3092,-0.3092,-0.3159,-0.3226,-0.3761,-0.3894,-0.4028,-0.4691,-0.4691,-0.4495,-0.4561,-0.4425,-0.4287,-0.4425,-0.4755,-0.5087,-0.5418,-0.4947,-0.4726,-0.5612,-0.4852,-0.4095,-0.4467,-0.4632,-0.4632,-0.4519,-0.4519,-0.4519,-0.4519,-0.4356,-0.4411,-0.4791,-0.4636,-0.4492,-0.4515,-0.4237,-0.4047,-0.4064,-0.4144,-0.4232,-0.4276,-0.4148,-0.3972,-0.3832,-0.4096,-0.4188,-0.4012,-0.4324,-0.4368,-0.4152,-0.4206,-0.4128,-0.392,-0.3945,-0.4013,0.1074,0.1076,0.1009,0.0741,0.0472,0.0201,0.013,-0.0194,0.0,0.0,-0.0181,-0.036,-0.076,-0.0812,-0.0929,-0.1346,0.0,0.0,0.0,0.0,-0.1628,0.0,0.0,0.0,0.0,0.0,0.0,0.0,-0.0864,-0.1021,-0.1415,-0.1572,-0.165,-0.165,-0.1729,-0.1886,-0.2043,-0.1964,-0.1964,-0.1964,-0.1964,-0.1964,-0.1964,-0.2043,-0.1964,-0.1806,-0.1806,-0.1705,-0.1742,-0.1742,-0.1861,-0.2025,-0.2122,-0.2237,-0.2291,-0.2444,-0.2557,-0.2557,-0.2755,-0.2753,-0.2822,-0.3226,-0.3429,-0.3563,-0.356,-0.3629,-0.3629,-0.3496,-0.3694,-0.3889,-0.3959,-0.4292,-0.4691,-0.4758,-0.4702,-0.4722,-0.5375,-0.5292,-0.5004,-0.4712,-0.4688,-0.4632,-0.4519,-0.4519,-0.4519,-0.4519,-0.4463,-0.4463,-0.4574,-0.4367,-0.4312,-0.4481,-0.4146,-0.3887,-0.3799,-0.3751,-0.3843,-0.4108,-0.3924,-0.3968,-0.4324,-0.41,-0.4144,-0.4487,-0.4403,-0.4403,-0.453,-0.4465,-0.4322,-0.4057,-0.4086,-0.3955,0.121,0.1143,0.1076,0.101,0.0673,0.0399,0.0446,0.0,0.0,0.0,0.029,0.0175,-0.0061,0.0,0.0,0.0,0.0,0.0,0.0,0.0,0.0,0.0,0.0,0.0,0.0,0.0,0.0,-0.0707,-0.055,-0.0628,-0.11,-0.1178,-0.1335,-0.1572,-0.1493,-0.1572,-0.1887,-0.1729,-0.165,-0.1729,-0.165,-0.1572,-0.1572,-0.1729,-0.1729,-0.1572,-0.1572,-0.1562,-0.1545,-0.1699,-0.1662,-0.1602,-0.187,-0.1971,-0.1918,-0.2165,-0.2357,-0.2424,-0.2488,-0.2621,-0.2753,-0.2889,-0.3023,-0.3092,-0.3092,-0.3092,-0.3092,-0.3092,-0.3157,-0.3222,-0.3222,-0.3623,-0.4023,-0.4023,-0.4312,-0.4476,-0.4025,-0.436,-0.4611,-0.4005,-0.4076,-0.4187,-0.407,-0.4187,-0.4301,-0.4242,-0.4408,-0.4463,-0.4356,-0.4242,-0.4171,-0.41,-0.3887,-0.3645,-0.3448,-0.3483,-0.3619,-0.388,-0.3748,-0.3792,-0.4192,-0.3924,-0.3921,-0.4136,-0.4228,-0.432,-0.432,-0.4543,-0.4456,-0.4108,-0.4187,-0.4099,0.1208,0.121,0.1076,0.1076,0.0807,0.0597,0.0751,0.0556,0.0,0.0,0.0785,0.0623,0.0644,0.0,0.0,0.0,0.0,0.0,0.0,0.0,0.0,0.0,0.0,0.0,0.0,0.0,0.0,-0.055,-0.0393,-0.0471,-0.0786,-0.0864,-0.1021,-0.1336,-0.1257,-0.1335,-0.165,-0.1335,-0.1257,-0.1415,-0.1257,-0.1178,-0.1257,-0.1407,-0.1482,-0.1482,-0.1481,-0.1477,-0.1471,-0.1634,-0.1443,-0.1166,-0.1666,-0.1692,-0.156,-0.1887,-0.2087,-0.2154,-0.2288,-0.2421,-0.2552,-0.2552,-0.2619,-0.2753,-0.2889,-0.282,-0.2753,-0.2889,-0.282,-0.2686,-0.2686,-0.3019,-0.3353,-0.3353,-0.3889,-0.4069,-0.2905,-0.3445,-0.3914,-0.3227,-0.3352,-0.3572,-0.3461,-0.3685,-0.3858,-0.3858,-0.4076,-0.4245,-0.4193,-0.4193,-0.4031,-0.3758,-0.3629,-0.3494,-0.323,-0.3262,-0.3394,-0.3612,-0.3575,-0.3622,-0.384,-0.3744,-0.37,-0.3744,-0.4008,-0.4144,-0.4104,-0.4495,-0.4451,-0.402,-0.4192,-0.4184,0.1136,0.1076,0.1076,0.1076,0.0942,0.0797,0.0939,0.0,0.0,0.0853,0.0673,0.0453,0.041,0.0294,0.012,0.0,0.0,-0.0389,0.0,0.0,0.0,0.0,0.0,0.0,0.0,0.0,0.0,-0.0314,-0.0314,-0.0393,-0.0628,-0.0628,-0.0628,-0.0707,-0.0864,-0.0864,-0.0707,-0.0864,-0.0864,-0.0707,-0.0864,-0.0943,-0.0942,-0.1152,-0.1216,-0.1216,-0.1064,-0.0975,-0.0956,-0.0979,-0.0972,-0.0945,-0.1136,-0.1192,-0.1183,-0.1357,-0.1412,-0.148,-0.1817,-0.1951,-0.2018,-0.222,-0.242,-0.2686,-0.2753,-0.2686,-0.2686,-0.2753,-0.2686,-0.2686,-0.2686,-0.2753,-0.282,-0.3023,-0.3424,-0.3631,-0.3107,-0.3493,-0.3792,-0.3056,-0.2961,-0.2961,-0.2961,-0.2903,-0.2961,-0.3413,-0.3469,-0.3691,-0.4138,-0.4079,-0.3923,-0.3708,-0.3618,-0.3501,-0.3236,-0.3078,-0.317,-0.3394,-0.3442,-0.349,-0.3622,-0.366,-0.3744,-0.388,-0.3788,-0.3873,-0.4092,-0.4272,-0.414,-0.3744,-0.4016,-0.3972,0.1268,0.1143,0.1143,0.1344,0.1211,0.0995,0.1127,0.0,0.0849,0.091,0.0798,0.0696,0.0706,0.0718,0.0673,0.0626,0.0,0.0,0.0,0.0,0.0,0.0,0.0,0.0,0.0,0.0,-0.0314,-0.0157,-0.0157,-0.0236,-0.0393,-0.055,-0.0628,-0.0628,-0.0786,-0.0786,-0.0628,-0.0707,-0.0628,-0.0393,-0.0464,-0.0538,-0.0537,-0.0898,-0.1036,-0.1036,-0.0962,-0.0816,-0.0746,-0.0742,-0.0662,-0.0582,-0.085,-0.0972,-0.0957,-0.1148,-0.1277,-0.148,-0.1681,-0.1884,-0.2087,-0.2154,-0.2287,-0.2421,-0.2421,-0.2421,-0.2421,-0.2421,-0.2421,-0.2421,-0.2421,-0.2421,-0.2421,-0.2624,-0.2757,-0.2779,-0.2309,-0.2584,-0.2779,-0.2213,-0.2296,-0.2462,-0.2348,-0.2571,-0.2681,-0.2685,-0.291,-0.313,-0.3294,-0.3572,-0.3647,-0.345,-0.3421,-0.332,-0.3063,-0.2951,-0.304,-0.3262,-0.335,-0.3483,-0.366,-0.366,-0.3663,-0.3711,-0.3704,-0.3741,-0.3781,-0.4049,-0.4049,-0.3836,-0.3928,-0.388,0.1315,0.1262,0.1198,0.1544,0.1337,0.1118,0.0,0.0,0.0976,0.0933,0.0941,0.0956,0.0956,0.0974,0.0991,0.1062,0.0,0.0822,0.0,0.0,0.0,0.0,0.0,0.0,0.0,-0.0078,0.0157,0.0157,0.0157,0.0157,0.0079,-0.0157,-0.0314,-0.0471,-0.0707,-0.0707,-0.0393,-0.0471,-0.0393,-0.0236,-0.0309,-0.0306,-0.0306,-0.0666,-0.0802,-0.0801,-0.0723,-0.0655,-0.0518,-0.0512,-0.0435,-0.0359,-0.0776,-0.0897,-0.0876,-0.1076,-0.1277,-0.148,-0.148,-0.1748,-0.2018,-0.2087,-0.2154,-0.2221,-0.2221,-0.2221,-0.2221,-0.2221,-0.2221,-0.2221,-0.2221,-0.2221,-0.2221,-0.2288,-0.2357,-0.2187,-0.1748,-0.1848,-0.1937,-0.1535,-0.1682,-0.1849,-0.1736,-0.1958,-0.2125,-0.2015,-0.2293,-0.2569,-0.2681,-0.2959,-0.3155,-0.2991,-0.2968,-0.2978,-0.2887,-0.2912,-0.2909,-0.2993,-0.3129,-0.3262,-0.3476,-0.3439,-0.349,-0.3581,-0.3524,-0.3476,-0.3476,-0.3741,-0.3832,-0.3704,-0.3792,-0.3744,0.1332,0.1291,0.1366,0.1537,0.1319,0.1033,0.0,0.0,0.0988,0.0988,0.0988,0.0988,0.0988,0.0988,0.106,0.1282,0.1161,0.0,0.0,0.0,0.0,0.0,0.0,0.0,0.0,0.1162,0.11,0.0628,0.0628,0.0,0.0864,0.0707,0.0314,-0.0314,-0.0471,-0.0393,0.0,-0.0236,-0.0236,0.0,-0.0236,-0.0314,-0.0314,-0.0522,-0.0583,-0.0582,-0.0425,-0.028,-0.0281,-0.0288,-0.0359,-0.049,-0.077,-0.0964,-0.1076,-0.1076,-0.1076,-0.1143,-0.1277,-0.1412,-0.1614,-0.1817,-0.2018,-0.2221,-0.2221,-0.2221,-0.2221,-0.2221,-0.2221,-0.2221,-0.2221,-0.2221,-0.2221,-0.2221,-0.2221,-0.2054,-0.1623,-0.1601,-0.1573,-0.1193,-0.1122,-0.1122,-0.1122,-0.101,-0.1065,-0.1511,-0.1621,-0.19,-0.2625,-0.2406,-0.2291,-0.2488,-0.2317,-0.2392,-0.2842,-0.2912,-0.2776,-0.2504,-0.264,-0.2818,-0.299,-0.299,-0.3214,-0.3581,-0.3214,-0.3078,-0.3214,-0.335,-0.335,-0.3214,-0.3476,-0.3524,0.1301,0.1316,0.1382,0.1521,0.1345,0.1221,0.1258,0.0,0.1014,0.0992,0.1005,0.1019,0.1019,0.1035,0.1117,0.1126,0.1327,0.0,0.0,0.0,0.0,0.0,0.0,0.0,0.0,0.0,0.0943,0.0786,0.055,0.0393,0.0471,0.0393,0.0628,0.1176,0.0392,0.0236,0.0628,0.0314,0.0236,0.0393,0.0309,0.0456,0.0746,0.0216,0.014,0.0345,0.0205,0.0138,0.007,-0.0069,-0.0139,-0.021,-0.0481,-0.0611,-0.0606,-0.0808,-0.0875,-0.0941,-0.1076,-0.1344,-0.1614,-0.1817,-0.2018,-0.2221,-0.2221,-0.2221,-0.2221,-0.2221,-0.2221,-0.2221,-0.2221,-0.2221,-0.2221,-0.2221,-0.2221,-0.2054,-0.1623,-0.1601,-0.1573,-0.1193,-0.1178,-0.1234,-0.1122,-0.1066,-0.1065,-0.1121,-0.1177,-0.1345,-0.1568,-0.1792,-0.1926,-0.1894,-0.204,-0.2209,-0.2348,-0.2504,-0.2595,-0.2504,-0.2732,-0.2865,-0.2909,-0.3081,-0.3262,-0.3442,-0.3262,-0.317,-0.3214,-0.317,-0.317,-0.3214,-0.3612,-0.3615,0.0,0.1458,0.1527,0.1686,0.1516,0.0,0.0,0.0,0.1031,0.1023,0.1036,0.1049,0.1049,0.113,0.1143,0.1143,0.148,0.0,0.0,0.0,0.0,0.0,0.0,0.0,0.0,0.1256,0.11,0.1021,0.0786,0.0707,0.0786,0.0786,0.1178,0.2117,0.1178,0.0786,0.1021,0.0942,0.0938,0.1006,0.1077,0.1136,0.1257,0.0945,0.0854,0.097,0.0755,0.0548,0.0,0.0407,0.0272,0.0138,0.0,0.0,-0.0067,-0.0404,-0.0538,-0.0672,-0.0875,-0.1211,-0.148,-0.1614,-0.1817,-0.1951,-0.1951,-0.2018,-0.2087,-0.2087,-0.2018,-0.2018,-0.2087,-0.2087,-0.2087,-0.2154,-0.2221,-0.2054,-0.1623,-0.154,-0.1512,-0.108,-0.1066,-0.1122,-0.1066,-0.101,-0.101,-0.0898,-0.0954,-0.1066,-0.1066,-0.1289,-0.1438,-0.1391,-0.1597,-0.175,-0.1747,-0.2081,-0.2323,-0.2377,-0.2556,-0.269,-0.2821,-0.2862,-0.2993,-0.3262,-0.3129,-0.3084,-0.3084,-0.2948,-0.2948,-0.304,-0.3439,-0.3435,0.0,0.1645,0.0,0.0,0.0,0.0,0.0,0.0,0.0,0.107,0.1076,0.1076,0.1076,0.121,0.1344,0.1344,0.0,0.0,0.0,0.0,0.0,0.0,0.0,0.0,0.1407,0.1493,0.1572,0.1414,0.1335,0.1415,0.165,0.165,0.1885,0.251,0.1803,0.1332,0.1333,0.1644,0.1777,0.1658,0.1775,0.1695,0.1432,0.1507,0.1487,0.1307,0.1273,0.0965,0.0607,0.0942,0.0807,0.0403,0.0672,0.0672,0.047,0.0202,-0.0067,-0.0269,-0.0606,-0.0942,-0.121,-0.1277,-0.1412,-0.1614,-0.1614,-0.1748,-0.1884,-0.1884,-0.1749,-0.1681,-0.1884,-0.1884,-0.1951,-0.2154,-0.2221,-0.2055,-0.1628,-0.1545,-0.1396,-0.1026,-0.09,-0.09,-0.0898,-0.0898,-0.0898,-0.0898,-0.0898,-0.0954,-0.1066,-0.0954,-0.0942,-0.1073,-0.1123,-0.1159,-0.1219,-0.166,-0.2018,-0.217,-0.2158,-0.2333,-0.264,-0.246,-0.2546,-0.299,-0.2909,-0.2912,-0.2868,-0.2776,-0.2732,-0.2687,-0.3037,-0.3078,0.1922,0.0,0.1779,0.1791,0.1707,0.0,0.0,0.0,0.0,0.0,0.0,0.0,0.0,0.0,0.0,0.0,0.0,0.0,0.0,0.0,0.0,0.0,0.2699,0.2579,0.2034,0.1728,0.1728,0.1961,0.1728,0.1649,0.2041,0.204,0.2198,0.251,0.2312,0.1984,0.1452,0.1375,0.1357,0.1323,0.1332,0.1464,0.1643,0.1356,0.1495,0.205,0.165,0.1575,0.1594,0.1356,0.1143,0.0874,0.0807,0.0874,0.0941,0.0672,0.0672,0.0672,0.0067,-0.0336,-0.0672,-0.1344,-0.148,-0.1412,-0.1547,-0.1748,-0.1884,-0.1681,-0.1748,-0.1817,-0.1884,-0.1884,-0.1951,-0.2154,-0.2221,-0.2134,-0.18,-0.1721,-0.163,-0.118,-0.1107,-0.1098,-0.0901,-0.0898,-0.0898,-0.0898,-0.0898,-0.0898,-0.0954,-0.0898,-0.0895,-0.0943,-0.0942,-0.1038,-0.1161,-0.1437,-0.1709,-0.1883,-0.2009,-0.2152,-0.237,-0.2549,-0.264,-0.2773,-0.2865,-0.2868,-0.2732,-0.2821,-0.2821,-0.2687,-0.2948,-0.2857,0.2015,0.1983,0.1908,0.1911,0.1847,0.1711,0.0,0.0,0.0,0.0,0.0,0.0,0.0,0.0,0.0,0.0,0.2822,0.0,0.0,0.0,0.0,0.0,0.2723,0.252,0.0,0.204,0.2041,0.2353,0.2119,0.2119,0.2353,0.2327,0.2313,0.2469,0.2437,0.2269,0.1968,0.1796,0.1763,0.1719,0.1739,0.1796,0.1824,0.1633,0.1702,0.2033,0.1957,0.1958,0.189,0.1862,0.1713,0.1506,0.1487,0.148,0.1547,0.1277,0.121,0.1076,0.047,0.0067,-0.0202,-0.0605,-0.0739,-0.0806,-0.121,-0.1277,-0.121,-0.1412,-0.1547,-0.1614,-0.1614,-0.1614,-0.1681,-0.1884,-0.2018,-0.2003,-0.1751,-0.174,-0.1647,-0.1194,-0.1179,-0.1108,-0.0846,-0.0842,-0.0898,-0.0898,-0.0898,-0.0898,-0.0898,-0.0898,-0.0898,-0.0842,-0.0785,-0.083,-0.0855,-0.1011,-0.1262,-0.1623,-0.1652,-0.1792,-0.2059,-0.2194,-0.2373,-0.2595,-0.2598,-0.2509,-0.2415,-0.2551,-0.2553,-0.2375,-0.2637,-0.2591,0.2071,0.2123,0.2194,0.2202,0.2018,0.1948,0.0,0.0,0.0,0.0,0.0,0.0,0.0,0.0,0.0,0.0,0.0,0.0,0.0,0.0,0.0,0.2951,0.2587,0.0,0.227,0.2196,0.2275,0.2589,0.2589,0.2589,0.2668,0.2605,0.2569,0.2569,0.2477,0.2471,0.2556,0.2428,0.2367,0.2301,0.235,0.2282,0.2035,0.2082,0.2087,0.1917,0.2312,0.2301,0.1973,0.2454,0.2445,0.2085,0.2241,0.2288,0.2221,0.1817,0.1614,0.1344,0.0807,0.0403,0.0134,0.0269,0.0269,0.0,-0.0672,-0.0538,-0.0336,-0.0941,-0.1143,-0.121,-0.1277,-0.1277,-0.1344,-0.1547,-0.1748,-0.1804,-0.163,-0.1686,-0.1658,-0.1081,-0.1128,-0.1114,-0.0734,-0.0729,-0.0842,-0.0842,-0.0842,-0.0842,-0.0842,-0.0842,-0.0785,-0.0729,-0.0673,-0.0608,-0.048,-0.0515,-0.0744,-0.129,-0.1284,-0.1389,-0.1748,-0.1748,-0.1971,-0.2462,-0.2288,-0.2152,-0.2101,-0.2235,-0.2192,-0.202,-0.2239,-0.2281,0.224,0.2411,0.261,0.2141,0.2271,0.2468,0.0,0.0,0.0,0.0,0.0,0.0,0.0,0.0,0.3353,0.0,0.0,0.365,0.0,0.0,0.34,0.2643,0.0,0.2656,0.251,0.2275,0.2431,0.2982,0.2984,0.3217,0.3606,0.3446,0.34,0.34,0.2973,0.2793,0.293,0.2552,0.2275,0.2235,0.2244,0.2272,0.2245,0.2255,0.2524,0.2915,0.2936,0.2907,0.2966,0.3039,0.2832,0.2568,0.2624,0.2488,0.2357,0.2288,0.2154,0.1951,0.1412,0.0941,0.0672,0.0538,0.0538,0.0605,0.0202,0.0134,0.0134,-0.0134,-0.0538,-0.0941,-0.121,-0.1277,-0.1344,-0.1547,-0.1614,-0.1612,-0.1605,-0.1737,-0.171,-0.1117,-0.1165,-0.1084,-0.0567,-0.0449,-0.0561,-0.0729,-0.0561,-0.0561,-0.0729,-0.0561,-0.0561,-0.0673,-0.0561,-0.0498,-0.0641,-0.0412,-0.0347,-0.0575,-0.0826,-0.1164,-0.1614,-0.1523,-0.1703,-0.2243,-0.2199,-0.2199,-0.2199,-0.2148,-0.2101,-0.1975,-0.1837,-0.1746,0.291,0.3249,0.3505,0.2879,0.2771,0.2844,0.0,0.0,0.0,0.0,0.0,0.0,0.0,0.0,0.3692,0.3558,0.0,0.3728,0.3337,0.3354,0.3366,0.0,0.0,0.3061,0.3215,0.3136,0.3215,0.3452,0.3452,0.3608,0.3763,0.3675,0.3626,0.3626,0.3325,0.321,0.3279,0.3099,0.2753,0.2272,0.2272,0.2287,0.2315,0.2348,0.2448,0.269,0.2913,0.2963,0.2993,0.2956,0.2849,0.2744,0.2501,0.2354,0.2288,0.2288,0.2154,0.2018,0.1817,0.1547,0.1277,0.1345,0.1344,0.121,0.1076,0.1008,0.0941,0.0538,0.0134,-0.0269,-0.0538,-0.0538,-0.0538,-0.0941,-0.0941,-0.0941,-0.1143,-0.1412,-0.1389,-0.075,-0.0988,-0.109,-0.0397,-0.0336,-0.0449,-0.0505,-0.0449,-0.0449,-0.0505,-0.0449,-0.0393,-0.0449,-0.0276,-0.0161,-0.0104,-0.005,-0.0048,-0.0278,-0.0589,-0.0895,-0.1119,-0.1389,-0.1614,-0.1884,-0.1928,-0.1928,-0.1748,-0.1791,-0.1655,-0.1299,-0.1299,-0.1254,0.3522,0.3938,0.421,0.3698,0.0,0.0,0.0,0.0,0.0,0.0,0.0,0.0,0.0,0.4097,0.0,0.3825,0.378,0.3619,0.3416,0.3295,0.3235,0.3467,0.3306,0.3352,0.3763,0.3763,0.3763,0.3763,0.3763,0.3763,0.3763,0.3675,0.3626,0.3626,0.3607,0.3575,0.353,0.3575,0.3235,0.2548,0.2548,0.2556,0.2573,0.2693,0.2688,0.2646,0.2987,0.3031,0.294,0.294,0.2929,0.2906,0.251,0.2356,0.2221,0.2221,0.2087,0.2018,0.2154,0.2018,0.1817,0.2154,0.2085,0.1816,0.1749,0.1749,0.1681,0.1143,0.0874,0.0672,0.0202,0.0202,0.0269,-0.0202,-0.0202,-0.0202,-0.047,-0.0739,-0.0861,-0.0315,-0.062,-0.0728,-0.0172,-0.0169,-0.0224,-0.028,-0.028,-0.0336,-0.0336,-0.0336,-0.028,-0.0224,-0.0054,0.0157,0.0399,0.0388,0.0235,0.0,-0.0359,-0.0582,-0.0671,-0.1075,-0.139,-0.1524,-0.1614,-0.1569,-0.1389,-0.1433,-0.1208,-0.0805,-0.0896,-0.0806,0.3741,0.3974,0.4185,0.3972,0.3966,0.0,0.3813,0.3751,0.0,0.4167,0.0,0.0,0.0,0.4028,0.3825,0.3961,0.3639,0.3285,0.2799,0.0,0.3385,0.3093,0.3332,0.3595,0.3754,0.3763,0.3763,0.3763,0.3763,0.3763,0.3763,0.3675,0.3626,0.3626,0.355,0.3544,0.3616,0.3544,0.3503,0.3417,0.3417,0.3457,0.3533,0.3539,0.3537,0.3533,0.3539,0.3447,0.3362,0.3362,0.3382,0.3439,0.3094,0.2691,0.2357,0.2221,0.2221,0.2154,0.2221,0.2288,0.2357,0.2357,0.2488,0.2552,0.222,0.2221,0.2221,0.1681,0.1817,0.1817,0.0739,0.047,0.047,0.047,0.0336,0.0269,0.0403,0.0134,-0.0067,0.0,0.0126,0.0244,0.0177,0.0286,0.028,0.0168,0.0056,-0.0056,-0.0224,-0.0112,-0.0056,-0.0168,0.0054,0.0259,0.0481,0.0667,0.0656,0.0451,0.0135,-0.0179,-0.0492,-0.0494,-0.0763,-0.1299,-0.1208,-0.1253,-0.1389,-0.1119,-0.0985,-0.1074,-0.0628,-0.0449,0.4353,0.4528,0.469,0.4433,0.44,0.0,0.0,0.4111,0.4164,0.43,0.4431,0.0,0.0,0.0,0.3892,0.3892,0.3524,0.3209,0.2935,0.3217,0.3355,0.3099,0.3368,0.356,0.3595,0.3599,0.3599,0.3599,0.3648,0.3677,0.3677,0.3699,0.3712,0.3712,0.3679,0.3679,0.3712,0.3679,0.3663,0.3663,0.3605,0.3595,0.3628,0.3685,0.3679,0.3622,0.3571,0.3479,0.336,0.3233,0.3189,0.3159,0.2758,0.2557,0.2357,0.2221,0.2221,0.2221,0.2221,0.2221,0.2288,0.2488,0.2555,0.2488,0.2487,0.2554,0.2488,0.2085,0.2154,0.2154,0.1412,0.1277,0.1277,0.0941,0.1008,0.1076,0.0874,0.0672,0.0533,0.0778,0.0755,0.0727,0.0865,0.1017,0.1111,0.1088,0.1049,0.1008,0.1064,0.084,0.0673,0.0617,0.064,0.06,0.0509,0.078,0.0866,0.063,0.045,0.0225,0.0045,-0.0224,-0.0493,-0.0716,-0.0895,-0.094,-0.085,-0.0717,-0.0494,-0.0179,-0.009,0.0045,0.4908,0.5046,0.5113,0.4802,0.0,0.0,0.4429,0.4344,0.43,0.43,0.4431,0.4495,0.4558,0.0,0.0,0.0,0.3627,0.3293,0.3092,0.3281,0.3332,0.3149,0.3347,0.3469,0.3497,0.3499,0.3499,0.3499,0.3554,0.3585,0.3585,0.3646,0.3681,0.3681,0.3705,0.372,0.372,0.3748,0.3763,0.3763,0.3671,0.364,0.3671,0.3703,0.3671,0.3581,0.3495,0.3405,0.3316,0.3117,0.3092,0.3025,0.2891,0.2758,0.2557,0.249,0.2421,0.2354,0.2354,0.2421,0.2488,0.2688,0.2757,0.2691,0.2755,0.282,0.2755,0.2421,0.2421,0.2421,0.1951,0.1951,0.1884,0.1547,0.1547,0.1681,0.148,0.1277,0.1203,0.1311,0.1275,0.1291,0.14,0.1547,0.1736,0.1765,0.1734,0.1707,0.1762,0.1474,0.1248,0.1195,0.1143,0.0988,0.0797,0.1014,0.1097,0.0916,0.0769,0.0629,0.045,0.0045,-0.0179,-0.0224,-0.0448,-0.0493,-0.0403,-0.0269,-0.0045,0.027,0.027,0.036,0.5293,0.5301,0.5286,0.0,0.0,0.0,0.4659,0.4472,0.43,0.43,0.43,0.4367,0.4561,0.4292,0.0,0.43,0.4028,0.3692,0.3293,0.3362,0.3398,0.314,0.3291,0.3399,0.3489,0.3497,0.3497,0.3497,0.3497,0.3499,0.3499,0.3499,0.3499,0.3499,0.3581,0.3626,0.3626,0.3714,0.3839,0.3837,0.3669,0.3673,0.3759,0.3667,0.3579,0.3495,0.3403,0.3311,0.3228,0.3226,0.3226,0.3226,0.3625,0.3491,0.3023,0.3023,0.2889,0.2686,0.2686,0.2822,0.3023,0.3023,0.3092,0.3159,0.3025,0.3023,0.2956,0.2753,0.2686,0.2688,0.2423,0.2288,0.2221,0.2221,0.2018,0.1951,0.2154,0.2018,0.1817,0.1412,0.171,0.198,0.1672,0.18,0.1955,0.2202,0.1965,0.1806,0.1805,0.1697,0.156,0.1311,0.1412,0.1463,0.1412,0.1364,0.1285,0.1285,0.1191,0.0942,0.0539,0.045,0.036,0.0225,0.0225,0.009,-0.018,0.0225,0.027,0.0,0.036,0.0494,0.5238,0.5162,0.0,0.4991,0.0,0.0,0.0,0.4731,0.0,0.0,0.4564,0.4697,0.4891,0.4691,0.0,0.4631,0.4359,0.409,0.3828,0.3959,0.3969,0.3736,0.3808,0.382,0.3854,0.3785,0.3717,0.3717,0.3783,0.3825,0.3968,0.4035,0.407,0.407,0.4099,0.4045,0.3901,0.393,0.4017,0.4163,0.413,0.3948,0.3665,0.3577,0.3595,0.3706,0.3609,0.3622,0.3728,0.3724,0.3694,0.3625,0.3758,0.3627,0.3295,0.3092,0.2956,0.2889,0.2889,0.2889,0.2822,0.3228,0.3226,0.309,0.3491,0.3357,0.3159,0.3092,0.2956,0.2889,0.2688,0.2554,0.2487,0.2288,0.2154,0.2154,0.2154,0.2154,0.2087,0.1951,0.2171,0.2348,0.2349,0.2602,0.2873,0.3006,0.3081,0.2949,0.2613,0.2639,0.246,0.1849,0.1983,0.2043,0.1842,0.1915,0.1951,0.1811,0.1555,0.1294,0.0942,0.0807,0.0717,0.0672,0.0584,0.0584,0.0717,0.0762,0.0851,0.0986,0.1031,0.0941,0.551,0.5412,0.0,0.5317,0.5213,0.5105,0.512,0.0,0.0,0.0,0.0,0.4831,0.496,0.4824,0.0,0.4764,0.4625,0.4422,0.4159,0.4292,0.4289,0.4028,0.4095,0.4092,0.4092,0.4023,0.3956,0.3892,0.3886,0.3993,0.413,0.4191,0.4224,0.4294,0.4338,0.4291,0.4153,0.4198,0.429,0.4432,0.4385,0.4183,0.388,0.3826,0.3801,0.3864,0.3758,0.3783,0.3917,0.3989,0.4028,0.4028,0.4028,0.3894,0.3696,0.3424,0.3291,0.3291,0.3226,0.3092,0.3092,0.3493,0.3429,0.3293,0.3692,0.3625,0.3426,0.3426,0.3293,0.3159,0.2956,0.2889,0.2755,0.2487,0.2354,0.2288,0.2288,0.2221,0.2221,0.2221,0.2324,0.2521,0.2588,0.2869,0.3209,0.3351,0.3547,0.3521,0.3144,0.318,0.2998,0.2433,0.2571,0.2549,0.2287,0.2351,0.2347,0.2241,0.194,0.1667,0.1378,0.1086,0.0941,0.0985,0.0897,0.0987,0.1164,0.1119,0.1208,0.1389,0.1344,0.1254,0.5904,0.0,0.0,0.0,0.0,0.0,0.5107,0.0,0.509,0.4894,0.0,0.4831,0.4831,0.4831,0.4831,0.4831,0.4831,0.4761,0.4422,0.4556,0.4558,0.4161,0.4289,0.4353,0.4353,0.4353,0.4223,0.4095,0.4028,0.4028,0.4028,0.4095,0.4159,0.4353,0.4393,0.4452,0.4452,0.4564,0.4618,0.4616,0.4504,0.4452,0.445,0.425,0.4114,0.3896,0.3866,0.3892,0.4028,0.4028,0.4164,0.43,0.43,0.4231,0.4028,0.3892,0.3825,0.3758,0.3563,0.3498,0.3565,0.3758,0.3627,0.3498,0.3758,0.3758,0.3758,0.3825,0.3694,0.3496,0.3293,0.3159,0.3023,0.282,0.2622,0.2423,0.2423,0.2356,0.2288,0.2288,0.2356,0.2468,0.2528,0.2834,0.3121,0.3408,0.3635,0.3717,0.3452,0.3438,0.3319,0.307,0.3125,0.3037,0.2799,0.267,0.2608,0.265,0.235,0.2062,0.1846,0.1283,0.1033,0.1119,0.1164,0.1208,0.1344,0.1433,0.1478,0.1478,0.1478,0.1433,0.0,0.5908,0.0,0.0,0.0,0.0,0.0,0.5401,0.5418,0.509,0.516,0.5296,0.5296,0.5296,0.5296,0.5296,0.5296,0.5226,0.516,0.5226,0.5229,0.5093,0.5024,0.4954,0.4954,0.4688,0.4492,0.4492,0.4298,0.4298,0.4492,0.4561,0.4628,0.4694,0.4852,0.4867,0.4736,0.4766,0.4845,0.4978,0.4947,0.4931,0.4931,0.4333,0.3996,0.3996,0.4108,0.4231,0.4233,0.4428,0.4428,0.43,0.4495,0.4428,0.4231,0.4028,0.3961,0.3961,0.3761,0.3629,0.3565,0.3758,0.356,0.3362,0.3692,0.3694,0.3629,0.3758,0.3758,0.3758,0.3692,0.356,0.3429,0.3558,0.3088,0.2621,0.2621,0.2755,0.2824,0.2824,0.2824,0.2932,0.3107,0.3157,0.3372,0.3744,0.3792,0.3801,0.3721,0.3728,0.3655,0.3501,0.3497,0.3482,0.3417,0.3295,0.3144,0.2931,0.2774,0.2587,0.2226,0.1801,0.1479,0.1254,0.1523,0.1658,0.1703,0.1928,0.202,0.202,0.202,0.1839,0.0,0.0,0.0,0.0,0.0,0.0,0.0,0.0,0.555,0.5289,0.5359,0.5428,0.5428,0.5428,0.5428,0.5428,0.5428,0.5428,0.5428,0.5428,0.5428,0.5428,0.5292,0.5223,0.5223,0.5093,0.4957,0.4824,0.4758,0.4761,0.4824,0.4891,0.496,0.5096,0.516,0.5226,0.5096,0.5096,0.516,0.5223,0.5223,0.5223,0.5087,0.4558,0.4228,0.4164,0.4233,0.4364,0.4431,0.4431,0.4431,0.4431,0.4431,0.4364,0.43,0.4097,0.4028,0.4097,0.3961,0.3761,0.3694,0.3828,0.3627,0.3429,0.3692,0.3758,0.3694,0.3758,0.3758,0.3627,0.3627,0.3496,0.3362,0.3493,0.3224,0.2956,0.3092,0.3092,0.3092,0.3092,0.3159,0.3278,0.3359,0.3635,0.3885,0.4168,0.4267,0.4223,0.4015,0.3976,0.3876,0.364,0.3664,0.3678,0.3609,0.3633,0.3534,0.323,0.3243,0.2981,0.2399,0.2355,0.2061,0.1569,0.1703,0.1794,0.1794,0.2064,0.2201,0.2201,0.2201,0.2064,0.0,0.0,0.0,0.0,0.0,0.0,0.0,0.0,0.5683,0.5491,0.5428,0.5428,0.5428,0.5428,0.5428,0.5428,0.5428,0.5428,0.5428,0.5428,0.5428,0.5428,0.5428,0.5428,0.5428,0.5362,0.5292,0.5087,0.5087,0.5024,0.5024,0.509,0.5156,0.5359,0.5362,0.5428,0.5428,0.5428,0.5428,0.5428,0.5428,0.5292,0.5087,0.4824,0.4561,0.4364,0.4364,0.4431,0.4561,0.4367,0.4364,0.4561,0.4367,0.43,0.43,0.4097,0.4164,0.43,0.4097,0.3961,0.3825,0.3961,0.3763,0.3565,0.3694,0.3758,0.3758,0.3758,0.3627,0.3563,0.3563,0.3429,0.3293,0.336,0.336,0.3362,0.3498,0.3429,0.336,0.336,0.3496,0.3629,0.362,0.3991,0.4347,0.4588,0.4798,0.4729,0.4359,0.4322,0.4149,0.3773,0.382,0.3841,0.3677,0.392,0.3927,0.3523,0.3633,0.3399,0.2711,0.2812,0.2618,0.1971,0.1927,0.1927,0.1971,0.2152,0.2243,0.2288,0.2243,0.2199,0.0,0.0,0.0,0.0,0.0,0.0,0.0,0.0,0.6083,0.0,0.5627,0.5428,0.5428,0.5428,0.5428,0.5428,0.5428,0.5428,0.5428,0.5428,0.5428,0.5428,0.5428,0.5428,0.5428,0.5223,0.5153,0.5087,0.4957,0.4831,0.4831,0.5024,0.5087,0.5156,0.5292,0.5428,0.5428,0.5428,0.5428,0.5428,0.5428,0.5292,0.5087,0.502,0.4891,0.4558,0.4558,0.4495,0.4367,0.43,0.43,0.4367,0.43,0.43,0.43,0.43,0.43,0.43,0.4097,0.3961,0.3961,0.3892,0.3696,0.3498,0.3565,0.3565,0.3565,0.3565,0.3627,0.3758,0.3894,0.3825,0.3825,0.4097,0.403,0.3828,0.3565,0.3696,0.3894,0.3894,0.403,0.4164,0.422,0.4251,0.4439,0.4716,0.4866,0.4877,0.4717,0.4728,0.4608,0.4248,0.4208,0.4172,0.4068,0.4333,0.4341,0.3939,0.3969,0.3837,0.3378,0.3078,0.2789,0.2598,0.2462,0.2462,0.2595,0.2506,0.2506,0.2642,0.2506,0.246,0.6698,0.0,0.0,0.0,0.0,0.0,0.0,0.0,0.6148,0.6083,0.5888,0.5624,0.5554,0.5488,0.5491,0.5425,0.5428,0.5428,0.5428,0.5428,0.5428,0.5428,0.5428,0.5428,0.5428,0.5292,0.5292,0.5292,0.516,0.5163,0.5163,0.5226,0.5292,0.5292,0.5359,0.5428,0.5428,0.5428,0.5428,0.5428,0.5428,0.5359,0.5292,0.5292,0.5093,0.4694,0.4628,0.4561,0.4431,0.4364,0.43,0.43,0.43,0.43,0.43,0.43,0.43,0.43,0.4231,0.4097,0.3961,0.3961,0.3828,0.3694,0.3694,0.3563,0.3498,0.3627,0.3627,0.3694,0.3828,0.3892,0.3961,0.4097,0.4164,0.4097,0.3966,0.4164,0.4359,0.4428,0.4628,0.4758,0.4755,0.4838,0.4987,0.5308,0.5388,0.533,0.5073,0.5026,0.4815,0.4344,0.4316,0.4276,0.4236,0.4351,0.4268,0.3949,0.4051,0.3927,0.3592,0.3442,0.3324,0.3223,0.2909,0.2773,0.286,0.2812,0.2812,0.286,0.2773,0.264,0.0,0.0,0.0,0.0,0.0,0.0,0.0,0.0,0.6408,0.0,0.6214,0.6017,0.5815,0.5683,0.562,0.5561,0.5557,0.5557,0.5557,0.5557,0.5557,0.5557,0.5491,0.5425,0.5425,0.5428,0.5428,0.5428,0.5495,0.5495,0.5428,0.5561,0.5557,0.5428,0.5495,0.5557,0.5557,0.5627,0.5627,0.5557,0.5627,0.5627,0.5627,0.5627,0.5495,0.5163,0.4891,0.4691,0.4558,0.4431,0.4364,0.43,0.43,0.43,0.43,0.43,0.43,0.43,0.43,0.4231,0.4097,0.4161,0.4028,0.3961,0.3959,0.3894,0.3761,0.3892,0.3761,0.3696,0.3959,0.4028,0.4097,0.4161,0.4298,0.4434,0.43,0.4431,0.4561,0.4694,0.4894,0.5024,0.5087,0.5223,0.5401,0.569,0.5791,0.5653,0.5383,0.5358,0.5166,0.4598,0.4477,0.4447,0.4447,0.4434,0.4345,0.4129,0.4153,0.4029,0.3771,0.3725,0.37,0.3667,0.3357,0.3217,0.3211,0.3164,0.3164,0.3167,0.3084,0.2862,0.0,0.0,0.0,0.0,0.0,0.0,0.0,0.0,0.0,0.6741,0.6675,0.6544,0.621,0.602,0.5888,0.5888,0.5892,0.5892,0.5892,0.5892,0.5892,0.5892,0.5686,0.5617,0.5617,0.5491,0.5428,0.5428,0.5693,0.5756,0.5428,0.6024,0.609,0.5428,0.5693,0.5892,0.5892,0.6218,0.6218,0.5888,0.6218,0.6354,0.6354,0.6354,0.635,0.6284,0.5422,0.4891,0.4625,0.4558,0.4495,0.43,0.43,0.43,0.43,0.43,0.43,0.43,0.43,0.43,0.43,0.4495,0.4431,0.43,0.4495,0.4422,0.4287,0.4287,0.4156,0.4095,0.4425,0.4428,0.4367,0.4697,0.4764,0.4697,0.4367,0.43,0.4367,0.4561,0.4694,0.4894,0.5087,0.5087,0.5235,0.5586,0.5678,0.5687,0.5703,0.5743,0.5659,0.5292,0.496,0.4757,0.4757,0.4848,0.4819,0.4663,0.4485,0.4303,0.4194,0.3868,0.3744,0.3884,0.3976,0.3976,0.3836,0.3656,0.3565,0.3565,0.3439,0.3217,0.0,0.0,0.0,0.0,0.0,0.0,0.0,0.6953,0.6852,0.6976,0.6942,0.6745,0.6544,0.628,0.6017,0.5888,0.5888,0.5888,0.5888,0.5888,0.5888,0.5888,0.5822,0.5818,0.5818,0.5954,0.602,0.602,0.6346,0.6474,0.6338,0.6478,0.6544,0.6338,0.6412,0.6478,0.6539,0.6544,0.6544,0.6412,0.6416,0.642,0.642,0.642,0.642,0.635,0.6086,0.5818,0.5547,0.5087,0.4891,0.4761,0.4434,0.43,0.43,0.43,0.4364,0.4495,0.4495,0.4564,0.4697,0.5027,0.496,0.4891,0.5153,0.502,0.4821,0.4821,0.4691,0.4561,0.4694,0.4761,0.4827,0.4957,0.5024,0.4891,0.4697,0.4694,0.4827,0.4761,0.4894,0.5024,0.5087,0.5087,0.527,0.5647,0.5738,0.5768,0.5824,0.5948,0.5819,0.5372,0.5272,0.5172,0.4951,0.4776,0.4727,0.4772,0.4598,0.4463,0.4451,0.4216,0.4144,0.428,0.4236,0.4276,0.4355,0.4136,0.4052,0.4096,0.3928,0.3751,0.0,0.0,0.0,0.0,0.0,0.0,0.0,0.0,0.6953,0.7158,0.7007,0.6881,0.6811,0.6478,0.6214,0.6086,0.609,0.609,0.609,0.609,0.609,0.609,0.602,0.602,0.6152,0.6284,0.6416,0.6544,0.6933,0.706,0.6924,0.7064,0.7129,0.7125,0.6999,0.6933,0.6924,0.7064,0.7068,0.6872,0.6876,0.6811,0.6745,0.6811,0.6811,0.6745,0.6811,0.6544,0.6079,0.5617,0.5352,0.5156,0.4761,0.4498,0.4364,0.43,0.4431,0.4625,0.4625,0.4694,0.4897,0.5296,0.5359,0.5422,0.5752,0.5815,0.5679,0.5679,0.555,0.5422,0.5488,0.555,0.5488,0.5422,0.5289,0.5219,0.5027,0.5027,0.496,0.4831,0.496,0.5087,0.5087,0.5087,0.5222,0.5598,0.5712,0.575,0.5835,0.5937,0.5885,0.5524,0.5428,0.5348,0.5091,0.4801,0.4736,0.4901,0.4666,0.4569,0.4714,0.4569,0.4495,0.4587,0.4543,0.4578,0.4666,0.4535,0.4451,0.4408,0.4284,0.4104,0.0,0.0,0.0,0.0,0.0,0.0,0.7146,0.0,0.7385,0.7279,0.7064,0.6937,0.6946,0.6679,0.6412,0.6416,0.642,0.642,0.642,0.642,0.642,0.642,0.6284,0.6346,0.6675,0.6548,0.6609,0.6924,0.7321,0.7391,0.699,0.7652,0.7852,0.7521,0.7521,0.7326,0.6924,0.7652,0.7722,0.7204,0.7536,0.7661,0.7526,0.7661,0.7661,0.7526,0.7661,0.7134,0.6141,0.6145,0.5815,0.5425,0.5223,0.4891,0.4625,0.4431,0.4498,0.4625,0.4625,0.4694,0.4897,0.5296,0.5627,0.5954,0.6288,0.6671,0.6924,0.6924,0.6802,0.6736,0.6863,0.6671,0.6288,0.5954,0.5752,0.555,0.5425,0.5096,0.4831,0.4831,0.496,0.5087,0.5087,0.5087,0.5153,0.5355,0.5475,0.557,0.5755,0.5857,0.5891,0.5824,0.5514,0.5303,0.5222,0.498,0.4888,0.5093,0.4772,0.4706,0.4899,0.4861,0.4801,0.4801,0.4941,0.4941,0.4801,0.4801,0.467,0.4412,0.4412,0.4232,0.7937,0.0,0.0,0.0,0.0,0.0,0.0,0.0,0.7654,0.7751,0.755,0.7418,0.7442,0.7347,0.7227,0.6981,0.6679,0.642,0.642,0.642,0.642,0.642,0.6741,0.6937,0.7068,0.7587,0.7907,0.0,0.8242,0.8312,0.8052,0.8252,0.8247,0.8037,0.8117,0.8182,0.8052,0.8252,0.8182,0.7912,0.8042,0.7982,0.7852,0.7922,0.7922,0.7852,0.7727,0.7531,0.7199,0.6741,0.6478,0.628,0.5822,0.5554,0.5352,0.5425,0.5359,0.5226,0.5286,0.5289,0.5296,0.5818,0.6086,0.6354,0.6811,0.7134,0.7326,0.7134,0.7068,0.7007,0.6609,0.6482,0.6288,0.5954,0.5888,0.5822,0.5756,0.569,0.5425,0.4897,0.496,0.5087,0.5087,0.5087,0.512,0.5277,0.5468,0.5648,0.5935,0.6271,0.637,0.6054,0.6134,0.6002,0.5454,0.5247,0.5179,0.5193,0.5013,0.496,0.5105,0.5013,0.498,0.5106,0.5029,0.4985,0.4941,0.4849,0.4757,0.467,0.4806,0.4631,0.0,0.0,0.0,0.0,0.0,0.0,0.8269,0.8195,0.8099,0.803,0.7892,0.7819,0.7884,0.7601,0.7373,0.7308,0.6953,0.663,0.6527,0.6548,0.6548,0.6548,0.6937,0.7269,0.74,0.7977,0.8366,0.8436,0.8635,0.8705,0.8517,0.8517,0.8447,0.8306,0.8447,0.8517,0.8517,0.8576,0.8511,0.8306,0.8306,0.8242,0.8112,0.8112,0.8047,0.7987,0.7917,0.7857,0.7792,0.7396,0.7134,0.6872,0.6544,0.628,0.6079,0.6079,0.6013,0.5818,0.5752,0.569,0.5693,0.5954,0.6218,0.6482,0.7134,0.7526,0.7722,0.7727,0.7727,0.7661,0.7204,0.7073,0.7007,0.6675,0.6416,0.635,0.6416,0.6284,0.5888,0.5292,0.5223,0.5286,0.5223,0.5156,0.5127,0.5175,0.5287,0.546,0.5667,0.6022,0.6193,0.6178,0.6344,0.6336,0.6065,0.5913,0.5834,0.5783,0.5606,0.5515,0.5601,0.5475,0.5336,0.5331,0.5203,0.5072,0.4893,0.4893,0.4893,0.4893,0.4985,0.4898,0.0,0.0,0.0,0.0,0.0,0.0,0.822,0.8486,0.864,0.826,0.8182,0.8193,0.822,0.7783,0.7398,0.7553,0.734,0.7125,0.6854,0.6776,0.6715,0.6802,0.7134,0.7466,0.7792,0.8112,0.8501,0.8835,0.8812,0.8656,0.8436,0.8436,0.8447,0.8474,0.8474,0.8484,0.8517,0.8705,0.8705,0.8517,0.8576,0.8506,0.8236,0.8236,0.8177,0.8117,0.8172,0.8177,0.8117,0.8117,0.7792,0.7269,0.7269,0.7134,0.6806,0.6662,0.6593,0.6531,0.6214,0.6086,0.602,0.6086,0.6284,0.6679,0.733,0.7787,0.8117,0.8382,0.8517,0.8452,0.8117,0.7987,0.7922,0.7587,0.7199,0.7007,0.7204,0.6876,0.6416,0.5881,0.5745,0.562,0.5491,0.5355,0.5219,0.5153,0.5097,0.5131,0.5325,0.5493,0.5801,0.6289,0.6391,0.6528,0.6841,0.6707,0.6642,0.6622,0.6401,0.6256,0.6331,0.6065,0.5851,0.5621,0.54,0.5111,0.4845,0.4941,0.4985,0.4985,0.5029,0.5029,0.0,0.0,0.0,0.0,0.0,0.0,0.932,0.9146,0.8996,0.8928,0.8713,0.8667,0.8893,0.871,0.8537,0.851,0.8483,0.8231,0.752,0.703,0.7022,0.7637,0.7912,0.8172,0.8576,0.8964,0.9215,0.921,0.8777,0.8331,0.7951,0.7941,0.8021,0.8278,0.8283,0.8312,0.8511,0.8829,0.8894,0.877,0.9022,0.8958,0.87,0.87,0.8641,0.8641,0.8511,0.8511,0.8641,0.8641,0.8312,0.7857,0.7857,0.7792,0.7787,0.7842,0.7707,0.7447,0.7591,0.733,0.7003,0.7134,0.733,0.7531,0.7792,0.8117,0.8382,0.8511,0.8517,0.8452,0.8117,0.7987,0.7922,0.7587,0.7461,0.7396,0.7456,0.7466,0.74,0.7195,0.6675,0.6218,0.6083,0.6017,0.5881,0.555,0.5618,0.5706,0.5706,0.5932,0.6333,0.6724,0.6869,0.7019,0.7131,0.6979,0.6876,0.675,0.6614,0.6736,0.7236,0.6568,0.6299,0.6481,0.5533,0.5072,0.5106,0.4932,0.4849,0.4849,0.5062,0.5154,0.0,0.0,0.0,0.9614,0.0,0.0,0.0,0.9442,0.9453,0.9176,0.9114,0.9049,0.9149,0.9053,0.8902,0.8818,0.8733,0.8582,0.831,0.7968,0.7869,0.8128,0.8318,0.84,0.8466,0.8836,0.9013,0.9074,0.8663,0.8292,0.8111,0.8039,0.7973,0.7973,0.7973,0.8086,0.8328,0.8581,0.8775,0.8894,0.9081,0.9087,0.8894,0.8894,0.8835,0.877,0.877,0.8829,0.8894,0.8894,0.8765,0.8501,0.8501,0.8501,0.8501,0.856,0.8431,0.8236,0.8112,0.7852,0.7591,0.7587,0.7587,0.7657,0.7982,0.8312,0.8517,0.8517,0.8517,0.8452,0.8317,0.8252,0.8187,0.8052,0.7857,0.7787,0.7987,0.7922,0.7857,0.7987,0.7727,0.7265,0.6666,0.6535,0.6342,0.5818,0.5817,0.5895,0.5955,0.5946,0.6262,0.7165,0.717,0.7277,0.7794,0.7822,0.7732,0.7585,0.7536,0.7634,0.7934,0.7448,0.7101,0.7064,0.6045,0.5491,0.5491,0.5193,0.5019,0.5019,0.5149,0.5236,0.0,0.0,0.0,0.0,0.0,0.9569,0.0,0.0,0.0,0.9425,0.9419,0.9419,0.9371,0.9226,0.9099,0.8933,0.0,0.0,0.0,0.9069,0.0,0.8516,0.8566,0.8552,0.8392,0.8551,0.8771,0.8926,0.8577,0.8382,0.8332,0.8199,0.8067,0.7925,0.786,0.7969,0.8207,0.8342,0.8589,0.8958,0.9081,0.9081,0.9081,0.9151,0.9087,0.8964,0.9081,0.9145,0.9145,0.9087,0.9087,0.9087,0.9017,0.9017,0.9081,0.9081,0.9022,0.8899,0.8565,0.8371,0.8242,0.8037,0.7907,0.7847,0.8236,0.8441,0.8576,0.8517,0.8517,0.8517,0.8517,0.8517,0.8517,0.8517,0.8317,0.8247,0.8511,0.8376,0.8312,0.8576,0.8705,0.8376,0.7321,0.712,0.6929,0.6412,0.6284,0.6346,0.6342,0.6141,0.64,0.7491,0.7385,0.7624,0.8465,0.853,0.852,0.8494,0.8456,0.852,0.8632,0.837,0.796,0.7379,0.6612,0.6134,0.5916,0.5583,0.5366,0.5236,0.5285,0.5323,0.0,0.0,0.0,0.0,0.9792,0.0,0.0,0.0,0.9851,0.9896,0.0,0.962,0.9844,0.0,0.0,0.0,0.0,0.0,0.9513,0.982,0.9863,0.9153,0.8847,0.8776,0.9045,0.9209,0.9198,0.8977,0.867,0.8393,0.8148,0.792,0.7901,0.8221,0.8091,0.8089,0.8342,0.8528,0.8651,0.8835,0.9268,0.9396,0.9274,0.9606,0.9676,0.967,0.953,0.953,0.9676,0.9548,0.942,0.942,0.9087,0.9081,0.9274,0.9274,0.9344,0.942,0.935,0.928,0.9145,0.9145,0.9011,0.8823,0.8765,0.877,0.8705,0.8576,0.8517,0.8517,0.8517,0.8517,0.8517,0.8517,0.8576,0.8705,0.877,0.8958,0.9145,0.921,0.928,0.9092,0.8236,0.8037,0.7977,0.7787,0.7792,0.7657,0.7391,0.7326,0.744,0.7736,0.7804,0.8032,0.8627,0.8515,0.8561,0.8888,0.869,0.8866,0.9445,0.9148,0.8462,0.7354,0.7167,0.6849,0.6435,0.6087,0.5707,0.5285,0.555,0.5674,0.0,0.0,0.0,0.0,0.0,0.0,0.9844,0.0,0.9947,0.0,0.0,0.0,0.0,0.0,0.0,0.0,0.9977,0.0,0.0,0.0,0.9714,0.9624,0.0,0.0,0.8971,0.9092,0.9157,0.9207,0.8974,0.8743,0.8628,0.8346,0.8092,0.7846,0.7915,0.7929,0.7806,0.8115,0.8432,0.8754,0.9203,0.9396,0.9396,0.9792,0.9862,0.9804,0.9792,0.9856,0.9926,0.9798,0.9798,0.9798,0.9542,0.9478,0.9414,0.9414,0.9478,0.9484,0.9484,0.9478,0.9408,0.9338,0.9274,0.9145,0.8958,0.8894,0.8894,0.8705,0.8641,0.8641,0.8517,0.8576,0.8641,0.8641,0.877,0.8894,0.8894,0.9145,0.9274,0.9274,0.9408,0.9356,0.9022,0.8823,0.856,0.8177,0.8107,0.8107,0.8102,0.7787,0.7817,0.8302,0.8135,0.8252,0.8755,0.8825,0.8957,0.9211,0.9188,0.9328,0.9607,0.9372,0.9029,0.8601,0.8089,0.7621,0.7187,0.6881,0.6494,0.6093,0.5847,0.5761,0.995,0.0,0.0,0.0,0.0,0.0,0.0,0.0,0.0,0.0,0.0,0.0,0.0,0.0,1.0379,0.0,0.0,1.0174,0.0,0.965,0.0,0.0,0.0,0.0,0.0,0.9153,0.9289,0.9543,0.9266,0.9091,0.9091,0.8739,0.8334,0.7897,0.7996,0.7926,0.7772,0.806,0.8394,0.8713,0.915,0.9396,0.9518,0.9849,0.9989,0.9926,0.9983,1.0047,1.011,1.0047,0.9983,0.9983,0.9862,0.9734,0.9606,0.9548,0.9484,0.9484,0.9484,0.9484,0.9484,0.9408,0.9344,0.9344,0.9145,0.9081,0.9017,0.8894,0.8835,0.877,0.8641,0.8705,0.8835,0.8835,0.8958,0.9081,0.9081,0.921,0.9344,0.9344,0.9414,0.9484,0.9484,0.9285,0.9022,0.8624,0.8565,0.8624,0.8683,0.8371,0.8312,0.8835,0.8543,0.847,0.8986,0.906,0.9159,0.9382,0.951,0.9562,0.9614,0.9503,0.944,0.9449,0.8919,0.8407,0.7996,0.7679,0.7301,0.6976,0.6263,0.6019,0.0,0.0,0.0,1.0376,0.0,0.0,0.0,0.0,1.0522,0.0,0.0,0.0,1.0616,1.0573,1.0402,0.0,0.0,0.0,0.0,0.0,0.0,0.0,0.0,0.0,0.0,0.9714,0.9688,0.9884,0.9563,0.9389,0.9389,0.8974,0.8786,0.8943,0.8531,0.8411,0.8663,0.8675,0.8687,0.8825,0.9265,0.9518,0.9518,0.9849,1.011,1.0238,1.011,1.011,1.0308,1.011,0.9983,0.9983,0.9983,0.9983,0.9919,0.9606,0.9484,0.9484,0.9484,0.9484,0.9484,0.9484,0.9484,0.9478,0.9338,0.9274,0.9274,0.9081,0.8894,0.8835,0.8952,0.8894,0.8835,0.8958,0.9145,0.9274,0.9274,0.9408,0.9484,0.9484,0.9484,0.9484,0.9484,0.9484,0.9484,0.9484,0.9484,0.9414,0.9274,0.9274,0.921,0.9017,0.8851,0.8902,0.9285,0.9066,0.905,0.9382,0.9413,0.9465,0.9614,0.9725,0.9628,0.9308,0.9385,0.9227,0.867,0.8374,0.808,0.7647,0.6866,0.6562,1.0523,1.0297,1.0173,1.0111,0.0,0.0,0.0,0.0,0.0,0.0,0.0,0.0,0.0,0.0,0.0,0.0,0.0,0.0,0.0,0.0,0.0,0.0,0.0,0.0,0.0,0.0,0.9721,0.9987,0.9535,0.9432,0.9717,0.9207,0.8821,0.8764,0.8558,0.8354,0.8043,0.8501,0.8723,0.8759,0.9244,0.9588,0.9728,1.0047,1.0238,1.0301,1.0371,1.0428,1.0498,1.0434,1.0371,1.0364,1.0244,1.0174,1.0174,0.9919,0.9798,0.9676,0.9548,0.9484,0.9484,0.9484,0.9484,0.9484,0.9414,0.9414,0.9408,0.921,0.921,0.9274,0.921,0.921,0.9268,0.9332,0.9402,0.9414,0.9414,0.9478,0.9484,0.9484,0.9484,0.9548,0.9676,0.9676,0.9676,0.9548,0.9484,0.9542,0.9606,0.953,0.946,0.9542,0.9382,0.9334,0.948,0.9439,0.9415,0.9517,0.9465,0.9465,0.9614,0.9569,0.9526,0.9511,0.9555,0.9407,0.9007,0.8958,0.8695,0.8332,0.7736,0.7214,1.0871,1.0588,1.0406,1.0335,1.0262,0.0,1.0249,0.0,1.0907,0.0,0.0,0.0,0.0,0.0,0.0,0.0,0.0,0.0,0.0,1.036,0.0,0.0,0.0,0.0,0.0,0.9595,0.9755,1.0035,0.9714,0.9608,0.984,0.9345,0.9017,0.8794,0.8692,0.8483,0.8331,0.8685,0.8906,0.901,0.9319,0.96,0.9804,0.9989,1.018,1.0308,1.0428,1.0561,1.0624,1.0624,1.0624,1.0561,1.0434,1.0428,1.0371,1.011,0.9926,0.9862,0.9676,0.9612,0.9612,0.9548,0.9484,0.9484,0.9484,0.9484,0.9484,0.9472,0.946,0.9518,0.953,0.9594,0.9594,0.9594,0.96,0.9612,0.9548,0.9484,0.9484,0.9484,0.9484,0.9548,0.974,0.9804,0.9804,0.9676,0.967,0.9734,0.9862,0.9786,0.9722,0.9862,0.9728,0.9625,0.9603,0.9608,0.9614,0.9614,0.9458,0.9465,0.9614,0.951,0.951,0.9614,0.9614,0.9519,0.9329,0.9329,0.9168,0.886,0.8501,0.8091]}]]